<?xml version="1.0" encoding="UTF-8" standalone="no" ?>
<gpx xmlns="http://www.topografix.com/GPX/1/1" xmlns:xsi="http://www.w3.org/2001/XMLSchema-instance" xsi:schemaLocation="http://www.topografix.com/GPX/1/1 http://www.topografix.com/GPX/1/1/gpx.xsd" version="1.1" creator="VisuGPX - https://www.visugpx.com">
  <metadata>
    <name>Moulin de la Tour - Saint-Guilhem - ND Lieu Plaisant</name>
    <desc><![CDATA[2015-09 - Gorges de l'Hérault - Moulin de la Tour - Saint-Guilhem - Roc de la Bissonne - Les Fenestrelles - Cap du Ginestet - Ermitage Dame du Lieu Plaisant

[b]album[/b] : [url]https://goo.gl/photos/88Ax6oDpKeEijUiV6[/url]
[img]https://2.bp.blogspot.com/-fJxNhIkPnkw/WMrOQahMwMI/AAAAAAAAQy4/joCDYYyunb4ChOT1qBzeP0pKrwZrdlCYgCLcB/s1600/2015-09_Saint-Guilhem_Roc-Bisone_Ermitage-lieu-plaisant_Photos_i.jpg[/img]
[b]Idées de randonnées dans la même région[/b]
Parcours : [url]https://www.visugpx.com/membres/24856/causses/saint-guilhem/[/url]
Photos : [url]https://jcvertygo.blogspot.com/p/saint-guilhem.html[/url]]]></desc>
  </metadata>
  <trk>
    <name><![CDATA[Moulin de la Tour - Saint-Guilhem - ND Lieu Plaisant_1]]></name>
    <trkseg>
      <trkpt lat="43.72525" lon="3.55037">
        <ele>61.1</ele>
        <time>2015-09-09T11:57:37Z</time>
      </trkpt>
      <trkpt lat="43.72527" lon="3.55035">
        <ele>61.1</ele>
        <time>2015-09-09T11:57:42Z</time>
      </trkpt>
      <trkpt lat="43.72533" lon="3.55034">
        <ele>61.1</ele>
        <time>2015-09-09T11:57:47Z</time>
      </trkpt>
      <trkpt lat="43.72534" lon="3.55034">
        <ele>57.103722117261</ele>
        <time>2015-09-09T11:57:52Z</time>
      </trkpt>
      <trkpt lat="43.72534" lon="3.55034">
        <ele>57.103722117261</ele>
        <time>2015-09-09T11:57:57Z</time>
      </trkpt>
      <trkpt lat="43.72539" lon="3.55033">
        <ele>57.103722117261</ele>
        <time>2015-09-09T11:58:03Z</time>
      </trkpt>
      <trkpt lat="43.72549" lon="3.55031">
        <ele>57.46400480513</ele>
        <time>2015-09-09T11:58:10Z</time>
      </trkpt>
      <trkpt lat="43.7255" lon="3.5503">
        <ele>57.46400480513</ele>
        <time>2015-09-09T11:58:19Z</time>
      </trkpt>
      <trkpt lat="43.72556" lon="3.55032">
        <ele>57.46400480513</ele>
        <time>2015-09-09T11:58:22Z</time>
      </trkpt>
      <trkpt lat="43.72565" lon="3.55031">
        <ele>57.522271235553</ele>
        <time>2015-09-09T11:58:30Z</time>
      </trkpt>
      <trkpt lat="43.72568" lon="3.55031">
        <ele>57.522271235553</ele>
        <time>2015-09-09T11:58:33Z</time>
      </trkpt>
      <trkpt lat="43.7257" lon="3.5503">
        <ele>57.522271235553</ele>
        <time>2015-09-09T11:58:44Z</time>
      </trkpt>
      <trkpt lat="43.72591" lon="3.55025">
        <ele>57.719968804096</ele>
        <time>2015-09-09T11:58:55Z</time>
      </trkpt>
      <trkpt lat="43.72595" lon="3.55026">
        <ele>57.719968804096</ele>
        <time>2015-09-09T11:58:57Z</time>
      </trkpt>
      <trkpt lat="43.72607" lon="3.55024">
        <ele>58.005517350501</ele>
        <time>2015-09-09T11:59:09Z</time>
      </trkpt>
      <trkpt lat="43.72609" lon="3.55023">
        <ele>58.005517350501</ele>
        <time>2015-09-09T11:59:19Z</time>
      </trkpt>
      <trkpt lat="43.72629" lon="3.55021">
        <ele>58.40223113171</ele>
        <time>2015-09-09T11:59:32Z</time>
      </trkpt>
      <trkpt lat="43.72648" lon="3.55015">
        <ele>59.060088676088</ele>
        <time>2015-09-09T12:00:02Z</time>
      </trkpt>
      <trkpt lat="43.72654" lon="3.55014">
        <ele>59.060088676088</ele>
        <time>2015-09-09T12:00:07Z</time>
      </trkpt>
      <trkpt lat="43.72662" lon="3.55016">
        <ele>59.679635769882</ele>
        <time>2015-09-09T12:00:12Z</time>
      </trkpt>
      <trkpt lat="43.72665" lon="3.55018">
        <ele>59.679635769882</ele>
        <time>2015-09-09T12:00:17Z</time>
      </trkpt>
      <trkpt lat="43.72667" lon="3.55019">
        <ele>59.679635769882</ele>
        <time>2015-09-09T12:00:22Z</time>
      </trkpt>
      <trkpt lat="43.72668" lon="3.55021">
        <ele>59.679635769882</ele>
        <time>2015-09-09T12:00:27Z</time>
      </trkpt>
      <trkpt lat="43.7268" lon="3.55028">
        <ele>60.401750155395</ele>
        <time>2015-09-09T12:00:40Z</time>
      </trkpt>
      <trkpt lat="43.72682" lon="3.55029">
        <ele>60.401750155395</ele>
        <time>2015-09-09T12:00:42Z</time>
      </trkpt>
      <trkpt lat="43.7271" lon="3.55039">
        <ele>61.098368693621</ele>
        <time>2015-09-09T12:01:10Z</time>
      </trkpt>
      <trkpt lat="43.72719" lon="3.55043">
        <ele>61.705246899204</ele>
        <time>2015-09-09T12:01:12Z</time>
      </trkpt>
      <trkpt lat="43.72722" lon="3.55043">
        <ele>61.705246899204</ele>
        <time>2015-09-09T12:01:26Z</time>
      </trkpt>
      <trkpt lat="43.72733" lon="3.55054">
        <ele>62.346212214242</ele>
        <time>2015-09-09T12:01:32Z</time>
      </trkpt>
      <trkpt lat="43.72736" lon="3.55061">
        <ele>62.346212214242</ele>
        <time>2015-09-09T12:01:37Z</time>
      </trkpt>
      <trkpt lat="43.72743" lon="3.55063">
        <ele>62.917939402359</ele>
        <time>2015-09-09T12:01:42Z</time>
      </trkpt>
      <trkpt lat="43.72751" lon="3.55073">
        <ele>63.459841685732</ele>
        <time>2015-09-09T12:01:57Z</time>
      </trkpt>
      <trkpt lat="43.72766" lon="3.55094">
        <ele>63.842480560416</ele>
        <time>2015-09-09T12:02:11Z</time>
      </trkpt>
      <trkpt lat="43.72767" lon="3.55096">
        <ele>63.842480560416</ele>
        <time>2015-09-09T12:02:12Z</time>
      </trkpt>
      <trkpt lat="43.72801" lon="3.55117">
        <ele>64.13282672508</ele>
        <time>2015-09-09T12:02:42Z</time>
      </trkpt>
      <trkpt lat="43.72805" lon="3.5512">
        <ele>64.13282672508</ele>
        <time>2015-09-09T12:02:50Z</time>
      </trkpt>
      <trkpt lat="43.72821" lon="3.55129">
        <ele>64.506421260029</ele>
        <time>2015-09-09T12:03:02Z</time>
      </trkpt>
      <trkpt lat="43.72828" lon="3.55128">
        <ele>64.506421260029</ele>
        <time>2015-09-09T12:03:14Z</time>
      </trkpt>
      <trkpt lat="43.72844" lon="3.55132">
        <ele>64.859229919792</ele>
        <time>2015-09-09T12:03:20Z</time>
      </trkpt>
      <trkpt lat="43.72846" lon="3.55134">
        <ele>64.859229919792</ele>
        <time>2015-09-09T12:03:22Z</time>
      </trkpt>
      <trkpt lat="43.7285" lon="3.5514">
        <ele>64.859229919792</ele>
        <time>2015-09-09T12:03:34Z</time>
      </trkpt>
      <trkpt lat="43.72852" lon="3.55143">
        <ele>65.099491246463</ele>
        <time>2015-09-09T12:03:37Z</time>
      </trkpt>
      <trkpt lat="43.72861" lon="3.55151">
        <ele>65.304487195544</ele>
        <time>2015-09-09T12:03:46Z</time>
      </trkpt>
      <trkpt lat="43.72873" lon="3.55167">
        <ele>65.464309943164</ele>
        <time>2015-09-09T12:04:00Z</time>
      </trkpt>
      <trkpt lat="43.72873" lon="3.55168">
        <ele>65.464309943164</ele>
        <time>2015-09-09T12:04:07Z</time>
      </trkpt>
      <trkpt lat="43.72887" lon="3.55183">
        <ele>65.691886348741</ele>
        <time>2015-09-09T12:04:17Z</time>
      </trkpt>
      <trkpt lat="43.72907" lon="3.55209">
        <ele>66.040137252219</ele>
        <time>2015-09-09T12:04:47Z</time>
      </trkpt>
      <trkpt lat="43.7291" lon="3.55212">
        <ele>66.040137252219</ele>
        <time>2015-09-09T12:04:59Z</time>
      </trkpt>
      <trkpt lat="43.72941" lon="3.55234">
        <ele>66.377617162358</ele>
        <time>2015-09-09T12:05:24Z</time>
      </trkpt>
      <trkpt lat="43.72943" lon="3.55237">
        <ele>66.377617162358</ele>
        <time>2015-09-09T12:05:31Z</time>
      </trkpt>
      <trkpt lat="43.72949" lon="3.55243">
        <ele>66.661856149369</ele>
        <time>2015-09-09T12:05:32Z</time>
      </trkpt>
      <trkpt lat="43.72955" lon="3.55251">
        <ele>66.661856149369</ele>
        <time>2015-09-09T12:05:37Z</time>
      </trkpt>
      <trkpt lat="43.72962" lon="3.55254">
        <ele>66.869695203738</ele>
        <time>2015-09-09T12:05:49Z</time>
      </trkpt>
      <trkpt lat="43.72966" lon="3.55253">
        <ele>66.869695203738</ele>
        <time>2015-09-09T12:05:49Z</time>
      </trkpt>
      <trkpt lat="43.72966" lon="3.55254">
        <ele>66.869695203738</ele>
        <time>2015-09-09T12:05:58Z</time>
      </trkpt>
      <trkpt lat="43.72972" lon="3.55255">
        <ele>66.980349512981</ele>
        <time>2015-09-09T12:05:58Z</time>
      </trkpt>
      <trkpt lat="43.73006" lon="3.55269">
        <ele>66.94665131619</ele>
        <time>2015-09-09T12:06:23Z</time>
      </trkpt>
      <trkpt lat="43.73008" lon="3.55271">
        <ele>66.94665131619</ele>
        <time>2015-09-09T12:06:27Z</time>
      </trkpt>
      <trkpt lat="43.73038" lon="3.55289">
        <ele>66.641540696403</ele>
        <time>2015-09-09T12:06:59Z</time>
      </trkpt>
      <trkpt lat="43.73046" lon="3.55297">
        <ele>66.297570633142</ele>
        <time>2015-09-09T12:06:59Z</time>
      </trkpt>
      <trkpt lat="43.73056" lon="3.55303">
        <ele>65.973372570561</ele>
        <time>2015-09-09T12:07:07Z</time>
      </trkpt>
      <trkpt lat="43.73057" lon="3.55303">
        <ele>65.973372570561</ele>
        <time>2015-09-09T12:07:16Z</time>
      </trkpt>
      <trkpt lat="43.73065" lon="3.55309">
        <ele>65.695208744055</ele>
        <time>2015-09-09T12:07:19Z</time>
      </trkpt>
      <trkpt lat="43.73074" lon="3.55314">
        <ele>65.695208744055</ele>
        <time>2015-09-09T12:07:24Z</time>
      </trkpt>
      <trkpt lat="43.73076" lon="3.55315">
        <ele>65.446121550317</ele>
        <time>2015-09-09T12:07:31Z</time>
      </trkpt>
      <trkpt lat="43.73083" lon="3.55317">
        <ele>65.446121550317</ele>
        <time>2015-09-09T12:07:32Z</time>
      </trkpt>
      <trkpt lat="43.73087" lon="3.55321">
        <ele>65.182922006396</ele>
        <time>2015-09-09T12:07:37Z</time>
      </trkpt>
      <trkpt lat="43.73105" lon="3.55326">
        <ele>64.851527084254</ele>
        <time>2015-09-09T12:07:49Z</time>
      </trkpt>
      <trkpt lat="43.73109" lon="3.55326">
        <ele>64.851527084254</ele>
        <time>2015-09-09T12:07:55Z</time>
      </trkpt>
      <trkpt lat="43.73115" lon="3.55327">
        <ele>64.583472229337</ele>
        <time>2015-09-09T12:08:01Z</time>
      </trkpt>
      <trkpt lat="43.73153" lon="3.5533">
        <ele>64.686331556307</ele>
        <time>2015-09-09T12:08:25Z</time>
      </trkpt>
      <trkpt lat="43.73158" lon="3.55328">
        <ele>64.686331556307</ele>
        <time>2015-09-09T12:08:27Z</time>
      </trkpt>
      <trkpt lat="43.73182" lon="3.55346">
        <ele>65.082585863517</ele>
        <time>2015-09-09T12:08:52Z</time>
      </trkpt>
      <trkpt lat="43.7321" lon="3.5537">
        <ele>65.91239957238</ele>
        <time>2015-09-09T12:09:24Z</time>
      </trkpt>
      <trkpt lat="43.73217" lon="3.55373">
        <ele>65.91239957238</ele>
        <time>2015-09-09T12:09:29Z</time>
      </trkpt>
      <trkpt lat="43.7322" lon="3.55374">
        <ele>66.862126010356</ele>
        <time>2015-09-09T12:09:32Z</time>
      </trkpt>
      <trkpt lat="43.73223" lon="3.55381">
        <ele>66.862126010356</ele>
        <time>2015-09-09T12:09:37Z</time>
      </trkpt>
      <trkpt lat="43.73246" lon="3.55398">
        <ele>68.342134911894</ele>
        <time>2015-09-09T12:10:00Z</time>
      </trkpt>
      <trkpt lat="43.73247" lon="3.55398">
        <ele>68.342134911894</ele>
        <time>2015-09-09T12:10:08Z</time>
      </trkpt>
      <trkpt lat="43.7326" lon="3.55394">
        <ele>69.792751351068</ele>
        <time>2015-09-09T12:10:08Z</time>
      </trkpt>
      <trkpt lat="43.73287" lon="3.55378">
        <ele>71.298515131048</ele>
        <time>2015-09-09T12:10:28Z</time>
      </trkpt>
      <trkpt lat="43.7329" lon="3.55384">
        <ele>71.298515131048</ele>
        <time>2015-09-09T12:10:32Z</time>
      </trkpt>
      <trkpt lat="43.73294" lon="3.55386">
        <ele>72.747386392378</ele>
        <time>2015-09-09T12:10:40Z</time>
      </trkpt>
      <trkpt lat="43.73316" lon="3.55374">
        <ele>74.182069200059</ele>
        <time>2015-09-09T12:11:00Z</time>
      </trkpt>
      <trkpt lat="43.73333" lon="3.55341">
        <ele>75.687751462426</ele>
        <time>2015-09-09T12:11:27Z</time>
      </trkpt>
      <trkpt lat="43.73337" lon="3.55339">
        <ele>75.687751462426</ele>
        <time>2015-09-09T12:11:32Z</time>
      </trkpt>
      <trkpt lat="43.73343" lon="3.55329">
        <ele>77.119939069366</ele>
        <time>2015-09-09T12:11:37Z</time>
      </trkpt>
      <trkpt lat="43.7335" lon="3.55321">
        <ele>78.433840205192</ele>
        <time>2015-09-09T12:11:48Z</time>
      </trkpt>
      <trkpt lat="43.73357" lon="3.55306">
        <ele>79.618666979241</ele>
        <time>2015-09-09T12:11:48Z</time>
      </trkpt>
      <trkpt lat="43.73357" lon="3.55293">
        <ele>80.695558332879</ele>
        <time>2015-09-09T12:11:57Z</time>
      </trkpt>
      <trkpt lat="43.73373" lon="3.55254">
        <ele>81.805756168457</ele>
        <time>2015-09-09T12:12:27Z</time>
      </trkpt>
      <trkpt lat="43.73367" lon="3.55239">
        <ele>82.431096225063</ele>
        <time>2015-09-09T12:12:57Z</time>
      </trkpt>
      <trkpt lat="43.73373" lon="3.55229">
        <ele>82.955418464799</ele>
        <time>2015-09-09T12:13:02Z</time>
      </trkpt>
      <trkpt lat="43.73357" lon="3.55183">
        <ele>83.431996983035</ele>
        <time>2015-09-09T12:13:30Z</time>
      </trkpt>
      <trkpt lat="43.73357" lon="3.55182">
        <ele>83.431996983035</ele>
        <time>2015-09-09T12:13:32Z</time>
      </trkpt>
      <trkpt lat="43.73358" lon="3.55172">
        <ele>83.431996983035</ele>
        <time>2015-09-09T12:13:37Z</time>
      </trkpt>
      <trkpt lat="43.73358" lon="3.55164">
        <ele>83.864957244722</ele>
        <time>2015-09-09T12:13:42Z</time>
      </trkpt>
      <trkpt lat="43.73356" lon="3.55124">
        <ele>84.288393534108</ele>
        <time>2015-09-09T12:14:02Z</time>
      </trkpt>
      <trkpt lat="43.73371" lon="3.55084">
        <ele>84.823816790936</ele>
        <time>2015-09-09T12:14:30Z</time>
      </trkpt>
      <trkpt lat="43.73371" lon="3.55082">
        <ele>84.823816790936</ele>
        <time>2015-09-09T12:14:32Z</time>
      </trkpt>
      <trkpt lat="43.73379" lon="3.55053">
        <ele>85.537282905956</ele>
        <time>2015-09-09T12:15:02Z</time>
      </trkpt>
      <trkpt lat="43.7338" lon="3.55052">
        <ele>85.537282905956</ele>
        <time>2015-09-09T12:15:07Z</time>
      </trkpt>
      <trkpt lat="43.73384" lon="3.5504">
        <ele>86.174421362103</ele>
        <time>2015-09-09T12:15:12Z</time>
      </trkpt>
      <trkpt lat="43.7339" lon="3.55023">
        <ele>86.741286950154</ele>
        <time>2015-09-09T12:15:18Z</time>
      </trkpt>
      <trkpt lat="43.73386" lon="3.5501">
        <ele>87.273461395512</ele>
        <time>2015-09-09T12:15:33Z</time>
      </trkpt>
      <trkpt lat="43.73382" lon="3.55011">
        <ele>87.273461395512</ele>
        <time>2015-09-09T12:15:39Z</time>
      </trkpt>
      <trkpt lat="43.73372" lon="3.5501">
        <ele>87.818501798379</ele>
        <time>2015-09-09T12:15:43Z</time>
      </trkpt>
      <trkpt lat="43.73362" lon="3.55019">
        <ele>88.597759778493</ele>
        <time>2015-09-09T12:16:02Z</time>
      </trkpt>
      <trkpt lat="43.7337" lon="3.55007">
        <ele>89.369852310875</ele>
        <time>2015-09-09T12:16:09Z</time>
      </trkpt>
      <trkpt lat="43.7339" lon="3.54979">
        <ele>90.238112159696</ele>
        <time>2015-09-09T12:16:32Z</time>
      </trkpt>
      <trkpt lat="43.73394" lon="3.54969">
        <ele>90.238112159696</ele>
        <time>2015-09-09T12:16:44Z</time>
      </trkpt>
      <trkpt lat="43.73395" lon="3.54968">
        <ele>91.208750679844</ele>
        <time>2015-09-09T12:16:55Z</time>
      </trkpt>
      <trkpt lat="43.734" lon="3.54942">
        <ele>92.389996025288</ele>
        <time>2015-09-09T12:17:08Z</time>
      </trkpt>
      <trkpt lat="43.73402" lon="3.54936">
        <ele>92.389996025288</ele>
        <time>2015-09-09T12:17:19Z</time>
      </trkpt>
      <trkpt lat="43.73423" lon="3.54917">
        <ele>93.76350218373</ele>
        <time>2015-09-09T12:17:32Z</time>
      </trkpt>
      <trkpt lat="43.73422" lon="3.54919">
        <ele>93.76350218373</ele>
        <time>2015-09-09T12:17:37Z</time>
      </trkpt>
      <trkpt lat="43.73427" lon="3.54916">
        <ele>93.76350218373</ele>
        <time>2015-09-09T12:17:42Z</time>
      </trkpt>
      <trkpt lat="43.73418" lon="3.54881">
        <ele>95.209712505329</ele>
        <time>2015-09-09T12:18:12Z</time>
      </trkpt>
      <trkpt lat="43.73423" lon="3.54857">
        <ele>96.691642284528</ele>
        <time>2015-09-09T12:18:33Z</time>
      </trkpt>
      <trkpt lat="43.73438" lon="3.54832">
        <ele>98.10242516731</ele>
        <time>2015-09-09T12:18:41Z</time>
      </trkpt>
      <trkpt lat="43.73438" lon="3.5483">
        <ele>98.10242516731</ele>
        <time>2015-09-09T12:18:42Z</time>
      </trkpt>
      <trkpt lat="43.73475" lon="3.54831">
        <ele>99.562086750627</ele>
        <time>2015-09-09T12:19:12Z</time>
      </trkpt>
      <trkpt lat="43.735" lon="3.54802">
        <ele>101.16649734799</ele>
        <time>2015-09-09T12:19:39Z</time>
      </trkpt>
      <trkpt lat="43.73501" lon="3.54803">
        <ele>101.16649734799</ele>
        <time>2015-09-09T12:19:47Z</time>
      </trkpt>
      <trkpt lat="43.73505" lon="3.54808">
        <ele>101.16649734799</ele>
        <time>2015-09-09T12:19:47Z</time>
      </trkpt>
      <trkpt lat="43.73512" lon="3.5481">
        <ele>102.58307213538</ele>
        <time>2015-09-09T12:20:00Z</time>
      </trkpt>
      <trkpt lat="43.73521" lon="3.54816">
        <ele>103.86791313629</ele>
        <time>2015-09-09T12:20:12Z</time>
      </trkpt>
      <trkpt lat="43.73525" lon="3.54817">
        <ele>103.86791313629</ele>
        <time>2015-09-09T12:20:23Z</time>
      </trkpt>
      <trkpt lat="43.73542" lon="3.54811">
        <ele>105.1599151744</ele>
        <time>2015-09-09T12:20:37Z</time>
      </trkpt>
      <trkpt lat="43.73553" lon="3.54803">
        <ele>106.32696482742</ele>
        <time>2015-09-09T12:20:49Z</time>
      </trkpt>
      <trkpt lat="43.73557" lon="3.54798">
        <ele>106.32696482742</ele>
        <time>2015-09-09T12:20:49Z</time>
      </trkpt>
      <trkpt lat="43.7356" lon="3.54794">
        <ele>107.34856093908</ele>
        <time>2015-09-09T12:20:56Z</time>
      </trkpt>
      <trkpt lat="43.73581" lon="3.54802">
        <ele>108.3505681461</ele>
        <time>2015-09-09T12:21:12Z</time>
      </trkpt>
      <trkpt lat="43.73586" lon="3.54803">
        <ele>108.3505681461</ele>
        <time>2015-09-09T12:21:19Z</time>
      </trkpt>
      <trkpt lat="43.73608" lon="3.5481">
        <ele>109.33392735756</ele>
        <time>2015-09-09T12:21:37Z</time>
      </trkpt>
      <trkpt lat="43.73613" lon="3.54811">
        <ele>109.33392735756</ele>
        <time>2015-09-09T12:21:42Z</time>
      </trkpt>
      <trkpt lat="43.73617" lon="3.5481">
        <ele>110.2418837918</ele>
        <time>2015-09-09T12:21:47Z</time>
      </trkpt>
      <trkpt lat="43.73628" lon="3.548">
        <ele>111.05102163819</ele>
        <time>2015-09-09T12:21:52Z</time>
      </trkpt>
      <trkpt lat="43.73635" lon="3.54787">
        <ele>111.71112060921</ele>
        <time>2015-09-09T12:21:57Z</time>
      </trkpt>
      <trkpt lat="43.73642" lon="3.5477">
        <ele>112.19053745521</ele>
        <time>2015-09-09T12:22:02Z</time>
      </trkpt>
      <trkpt lat="43.73648" lon="3.54762">
        <ele>112.19053745521</ele>
        <time>2015-09-09T12:22:07Z</time>
      </trkpt>
      <trkpt lat="43.73653" lon="3.54757">
        <ele>112.43164486496</ele>
        <time>2015-09-09T12:22:12Z</time>
      </trkpt>
      <trkpt lat="43.7366" lon="3.5476">
        <ele>112.43164486496</ele>
        <time>2015-09-09T12:22:17Z</time>
      </trkpt>
      <trkpt lat="43.73666" lon="3.54759">
        <ele>112.35290144363</ele>
        <time>2015-09-09T12:22:22Z</time>
      </trkpt>
      <trkpt lat="43.73672" lon="3.54752">
        <ele>112.35290144363</ele>
        <time>2015-09-09T12:22:27Z</time>
      </trkpt>
      <trkpt lat="43.73674" lon="3.5474">
        <ele>112.02383662013</ele>
        <time>2015-09-09T12:22:32Z</time>
      </trkpt>
      <trkpt lat="43.73677" lon="3.54729">
        <ele>112.02383662013</ele>
        <time>2015-09-09T12:22:37Z</time>
      </trkpt>
      <trkpt lat="43.73679" lon="3.54719">
        <ele>111.52398048711</ele>
        <time>2015-09-09T12:22:42Z</time>
      </trkpt>
      <trkpt lat="43.73683" lon="3.5471">
        <ele>111.52398048711</ele>
        <time>2015-09-09T12:22:47Z</time>
      </trkpt>
      <trkpt lat="43.73681" lon="3.54702">
        <ele>110.88424646074</ele>
        <time>2015-09-09T12:22:52Z</time>
      </trkpt>
      <trkpt lat="43.73681" lon="3.54695">
        <ele>110.88424646074</ele>
        <time>2015-09-09T12:22:57Z</time>
      </trkpt>
      <trkpt lat="43.73687" lon="3.54686">
        <ele>110.04715574675</ele>
        <time>2015-09-09T12:23:02Z</time>
      </trkpt>
      <trkpt lat="43.7369" lon="3.54678">
        <ele>110.04715574675</ele>
        <time>2015-09-09T12:23:07Z</time>
      </trkpt>
      <trkpt lat="43.73689" lon="3.54671">
        <ele>109.1041775864</ele>
        <time>2015-09-09T12:23:12Z</time>
      </trkpt>
      <trkpt lat="43.7369" lon="3.54669">
        <ele>109.1041775864</ele>
        <time>2015-09-09T12:23:17Z</time>
      </trkpt>
      <trkpt lat="43.73692" lon="3.54667">
        <ele>109.1041775864</ele>
        <time>2015-09-09T12:23:32Z</time>
      </trkpt>
      <trkpt lat="43.73683" lon="3.54663">
        <ele>108.31338748239</ele>
        <time>2015-09-09T12:23:52Z</time>
      </trkpt>
      <trkpt lat="43.73684" lon="3.54659">
        <ele>108.31338748239</ele>
        <time>2015-09-09T12:24:02Z</time>
      </trkpt>
      <trkpt lat="43.73682" lon="3.54658">
        <ele>108.31338748239</ele>
        <time>2015-09-09T12:24:07Z</time>
      </trkpt>
      <trkpt lat="43.73677" lon="3.54659">
        <ele>107.52410414316</ele>
        <time>2015-09-09T12:24:12Z</time>
      </trkpt>
      <trkpt lat="43.73673" lon="3.5466">
        <ele>107.52410414316</ele>
        <time>2015-09-09T12:24:17Z</time>
      </trkpt>
      <trkpt lat="43.73669" lon="3.54656">
        <ele>107.52410414316</ele>
        <time>2015-09-09T12:24:22Z</time>
      </trkpt>
      <trkpt lat="43.73666" lon="3.54654">
        <ele>106.8418065439</ele>
        <time>2015-09-09T12:24:27Z</time>
      </trkpt>
      <trkpt lat="43.73664" lon="3.54651">
        <ele>106.8418065439</ele>
        <time>2015-09-09T12:24:32Z</time>
      </trkpt>
      <trkpt lat="43.73661" lon="3.54647">
        <ele>106.8418065439</ele>
        <time>2015-09-09T12:24:37Z</time>
      </trkpt>
      <trkpt lat="43.73657" lon="3.54646">
        <ele>106.14753083554</ele>
        <time>2015-09-09T12:24:42Z</time>
      </trkpt>
      <trkpt lat="43.73654" lon="3.54647">
        <ele>106.14753083554</ele>
        <time>2015-09-09T12:24:47Z</time>
      </trkpt>
      <trkpt lat="43.7365" lon="3.54646">
        <ele>106.14753083554</ele>
        <time>2015-09-09T12:24:52Z</time>
      </trkpt>
      <trkpt lat="43.73648" lon="3.54647">
        <ele>105.66272988904</ele>
        <time>2015-09-09T12:24:57Z</time>
      </trkpt>
      <trkpt lat="43.73645" lon="3.54649">
        <ele>105.66272988904</ele>
        <time>2015-09-09T12:25:02Z</time>
      </trkpt>
      <trkpt lat="43.73644" lon="3.54648">
        <ele>105.66272988904</ele>
        <time>2015-09-09T12:25:07Z</time>
      </trkpt>
      <trkpt lat="43.73646" lon="3.54648">
        <ele>105.66272988904</ele>
        <time>2015-09-09T12:25:12Z</time>
      </trkpt>
      <trkpt lat="43.73645" lon="3.54646">
        <ele>105.66272988904</ele>
        <time>2015-09-09T12:25:17Z</time>
      </trkpt>
      <trkpt lat="43.73648" lon="3.54642">
        <ele>105.31787765861</ele>
        <time>2015-09-09T12:25:22Z</time>
      </trkpt>
      <trkpt lat="43.73649" lon="3.54641">
        <ele>105.31787765861</ele>
        <time>2015-09-09T12:25:27Z</time>
      </trkpt>
      <trkpt lat="43.7365" lon="3.54633">
        <ele>105.31787765861</ele>
        <time>2015-09-09T12:25:32Z</time>
      </trkpt>
      <trkpt lat="43.73647" lon="3.54628">
        <ele>105.03363853334</ele>
        <time>2015-09-09T12:25:37Z</time>
      </trkpt>
      <trkpt lat="43.73642" lon="3.54622">
        <ele>105.03363853334</ele>
        <time>2015-09-09T12:25:42Z</time>
      </trkpt>
      <trkpt lat="43.73643" lon="3.54614">
        <ele>104.82278290113</ele>
        <time>2015-09-09T12:25:47Z</time>
      </trkpt>
      <trkpt lat="43.73643" lon="3.54609">
        <ele>104.82278290113</ele>
        <time>2015-09-09T12:25:52Z</time>
      </trkpt>
      <trkpt lat="43.73647" lon="3.54603">
        <ele>104.74011274649</ele>
        <time>2015-09-09T12:25:57Z</time>
      </trkpt>
      <trkpt lat="43.73646" lon="3.54596">
        <ele>104.74011274649</ele>
        <time>2015-09-09T12:26:02Z</time>
      </trkpt>
      <trkpt lat="43.73644" lon="3.54592">
        <ele>104.74939654568</ele>
        <time>2015-09-09T12:26:07Z</time>
      </trkpt>
      <trkpt lat="43.7364" lon="3.54587">
        <ele>104.74939654568</ele>
        <time>2015-09-09T12:26:12Z</time>
      </trkpt>
      <trkpt lat="43.7364" lon="3.54582">
        <ele>104.74939654568</ele>
        <time>2015-09-09T12:26:17Z</time>
      </trkpt>
      <trkpt lat="43.73641" lon="3.54576">
        <ele>105.1051957727</ele>
        <time>2015-09-09T12:26:22Z</time>
      </trkpt>
      <trkpt lat="43.73645" lon="3.54572">
        <ele>105.1051957727</ele>
        <time>2015-09-09T12:26:27Z</time>
      </trkpt>
      <trkpt lat="43.73649" lon="3.54567">
        <ele>105.7537942249</ele>
        <time>2015-09-09T12:26:32Z</time>
      </trkpt>
      <trkpt lat="43.73647" lon="3.54559">
        <ele>105.7537942249</ele>
        <time>2015-09-09T12:26:37Z</time>
      </trkpt>
      <trkpt lat="43.73648" lon="3.54553">
        <ele>106.64451432061</ele>
        <time>2015-09-09T12:26:42Z</time>
      </trkpt>
      <trkpt lat="43.73649" lon="3.54545">
        <ele>106.64451432061</ele>
        <time>2015-09-09T12:26:47Z</time>
      </trkpt>
      <trkpt lat="43.73652" lon="3.54539">
        <ele>107.68637902742</ele>
        <time>2015-09-09T12:26:52Z</time>
      </trkpt>
      <trkpt lat="43.73661" lon="3.54531">
        <ele>108.78019469309</ele>
        <time>2015-09-09T12:26:57Z</time>
      </trkpt>
      <trkpt lat="43.73667" lon="3.54523">
        <ele>108.78019469309</ele>
        <time>2015-09-09T12:27:02Z</time>
      </trkpt>
      <trkpt lat="43.73666" lon="3.54515">
        <ele>110.10788343414</ele>
        <time>2015-09-09T12:27:07Z</time>
      </trkpt>
      <trkpt lat="43.73656" lon="3.54503">
        <ele>111.85168297803</ele>
        <time>2015-09-09T12:27:12Z</time>
      </trkpt>
      <trkpt lat="43.73654" lon="3.54496">
        <ele>111.85168297803</ele>
        <time>2015-09-09T12:27:17Z</time>
      </trkpt>
      <trkpt lat="43.73654" lon="3.54488">
        <ele>113.8619544421</ele>
        <time>2015-09-09T12:27:22Z</time>
      </trkpt>
      <trkpt lat="43.73652" lon="3.54482">
        <ele>113.8619544421</ele>
        <time>2015-09-09T12:27:27Z</time>
      </trkpt>
      <trkpt lat="43.73651" lon="3.54475">
        <ele>116.1435111412</ele>
        <time>2015-09-09T12:27:32Z</time>
      </trkpt>
      <trkpt lat="43.7365" lon="3.54469">
        <ele>116.1435111412</ele>
        <time>2015-09-09T12:27:37Z</time>
      </trkpt>
      <trkpt lat="43.73651" lon="3.54464">
        <ele>116.1435111412</ele>
        <time>2015-09-09T12:27:42Z</time>
      </trkpt>
      <trkpt lat="43.73652" lon="3.54459">
        <ele>118.58469537461</ele>
        <time>2015-09-09T12:27:47Z</time>
      </trkpt>
      <trkpt lat="43.73652" lon="3.54454">
        <ele>118.58469537461</ele>
        <time>2015-09-09T12:27:52Z</time>
      </trkpt>
      <trkpt lat="43.73652" lon="3.54448">
        <ele>118.58469537461</ele>
        <time>2015-09-09T12:27:57Z</time>
      </trkpt>
      <trkpt lat="43.73653" lon="3.54444">
        <ele>121.00954879465</ele>
        <time>2015-09-09T12:28:02Z</time>
      </trkpt>
      <trkpt lat="43.73654" lon="3.54436">
        <ele>121.00954879465</ele>
        <time>2015-09-09T12:28:07Z</time>
      </trkpt>
      <trkpt lat="43.73654" lon="3.54429">
        <ele>123.34165132079</ele>
        <time>2015-09-09T12:28:12Z</time>
      </trkpt>
      <trkpt lat="43.73653" lon="3.54423">
        <ele>123.34165132079</ele>
        <time>2015-09-09T12:28:17Z</time>
      </trkpt>
      <trkpt lat="43.73652" lon="3.54418">
        <ele>123.34165132079</ele>
        <time>2015-09-09T12:28:22Z</time>
      </trkpt>
      <trkpt lat="43.73653" lon="3.54413">
        <ele>125.65467735883</ele>
        <time>2015-09-09T12:28:27Z</time>
      </trkpt>
      <trkpt lat="43.73652" lon="3.54411">
        <ele>125.65467735883</ele>
        <time>2015-09-09T12:28:32Z</time>
      </trkpt>
      <trkpt lat="43.73646" lon="3.54413">
        <ele>125.65467735883</ele>
        <time>2015-09-09T12:28:42Z</time>
      </trkpt>
      <trkpt lat="43.73644" lon="3.54415">
        <ele>127.93048375892</ele>
        <time>2015-09-09T12:28:47Z</time>
      </trkpt>
      <trkpt lat="43.73643" lon="3.54419">
        <ele>127.93048375892</ele>
        <time>2015-09-09T12:28:52Z</time>
      </trkpt>
      <trkpt lat="43.73639" lon="3.54423">
        <ele>127.93048375892</ele>
        <time>2015-09-09T12:28:57Z</time>
      </trkpt>
      <trkpt lat="43.73636" lon="3.54427">
        <ele>130.06593775768</ele>
        <time>2015-09-09T12:29:02Z</time>
      </trkpt>
      <trkpt lat="43.73636" lon="3.54432">
        <ele>130.06593775768</ele>
        <time>2015-09-09T12:29:07Z</time>
      </trkpt>
      <trkpt lat="43.73633" lon="3.54436">
        <ele>130.06593775768</ele>
        <time>2015-09-09T12:29:12Z</time>
      </trkpt>
      <trkpt lat="43.73633" lon="3.54439">
        <ele>132.12452678026</ele>
        <time>2015-09-09T12:29:17Z</time>
      </trkpt>
      <trkpt lat="43.73632" lon="3.54442">
        <ele>132.12452678026</ele>
        <time>2015-09-09T12:29:22Z</time>
      </trkpt>
      <trkpt lat="43.73629" lon="3.54447">
        <ele>132.12452678026</ele>
        <time>2015-09-09T12:29:27Z</time>
      </trkpt>
      <trkpt lat="43.73629" lon="3.5445">
        <ele>133.97797324219</ele>
        <time>2015-09-09T12:29:32Z</time>
      </trkpt>
      <trkpt lat="43.73625" lon="3.54455">
        <ele>133.97797324219</ele>
        <time>2015-09-09T12:29:37Z</time>
      </trkpt>
      <trkpt lat="43.73622" lon="3.54459">
        <ele>135.69547836017</ele>
        <time>2015-09-09T12:29:42Z</time>
      </trkpt>
      <trkpt lat="43.73618" lon="3.54464">
        <ele>135.69547836017</ele>
        <time>2015-09-09T12:29:47Z</time>
      </trkpt>
      <trkpt lat="43.73618" lon="3.54467">
        <ele>135.69547836017</ele>
        <time>2015-09-09T12:29:52Z</time>
      </trkpt>
      <trkpt lat="43.73616" lon="3.5447">
        <ele>137.24072644942</ele>
        <time>2015-09-09T12:29:57Z</time>
      </trkpt>
      <trkpt lat="43.73615" lon="3.5447">
        <ele>137.24072644942</ele>
        <time>2015-09-09T12:30:02Z</time>
      </trkpt>
      <trkpt lat="43.7361" lon="3.54475">
        <ele>137.24072644942</ele>
        <time>2015-09-09T12:30:07Z</time>
      </trkpt>
      <trkpt lat="43.7361" lon="3.54475">
        <ele>137.24072644942</ele>
        <time>2015-09-09T12:30:12Z</time>
      </trkpt>
      <trkpt lat="43.7361" lon="3.54479">
        <ele>138.59505943929</ele>
        <time>2015-09-09T12:30:17Z</time>
      </trkpt>
      <trkpt lat="43.73611" lon="3.5448">
        <ele>138.59505943929</ele>
        <time>2015-09-09T12:30:22Z</time>
      </trkpt>
      <trkpt lat="43.73602" lon="3.54474">
        <ele>139.9291810942</ele>
        <time>2015-09-09T12:30:32Z</time>
      </trkpt>
      <trkpt lat="43.73598" lon="3.54474">
        <ele>139.9291810942</ele>
        <time>2015-09-09T12:30:37Z</time>
      </trkpt>
      <trkpt lat="43.73604" lon="3.54475">
        <ele>141.53109973769</ele>
        <time>2015-09-09T12:30:57Z</time>
      </trkpt>
      <trkpt lat="43.73608" lon="3.5447">
        <ele>141.53109973769</ele>
        <time>2015-09-09T12:31:02Z</time>
      </trkpt>
      <trkpt lat="43.7361" lon="3.54465">
        <ele>143.0905064826</ele>
        <time>2015-09-09T12:31:07Z</time>
      </trkpt>
      <trkpt lat="43.73613" lon="3.5446">
        <ele>143.0905064826</ele>
        <time>2015-09-09T12:31:12Z</time>
      </trkpt>
      <trkpt lat="43.73613" lon="3.54453">
        <ele>144.7092382034</ele>
        <time>2015-09-09T12:31:17Z</time>
      </trkpt>
      <trkpt lat="43.73613" lon="3.54446">
        <ele>144.7092382034</ele>
        <time>2015-09-09T12:31:22Z</time>
      </trkpt>
      <trkpt lat="43.73617" lon="3.54438">
        <ele>146.49598232858</ele>
        <time>2015-09-09T12:31:27Z</time>
      </trkpt>
      <trkpt lat="43.7362" lon="3.54432">
        <ele>146.49598232858</ele>
        <time>2015-09-09T12:31:32Z</time>
      </trkpt>
      <trkpt lat="43.73623" lon="3.54427">
        <ele>148.33488606179</ele>
        <time>2015-09-09T12:31:37Z</time>
      </trkpt>
      <trkpt lat="43.73623" lon="3.54419">
        <ele>148.33488606179</ele>
        <time>2015-09-09T12:31:42Z</time>
      </trkpt>
      <trkpt lat="43.73624" lon="3.54411">
        <ele>150.32031777532</ele>
        <time>2015-09-09T12:31:47Z</time>
      </trkpt>
      <trkpt lat="43.7363" lon="3.54406">
        <ele>150.32031777532</ele>
        <time>2015-09-09T12:31:52Z</time>
      </trkpt>
      <trkpt lat="43.73634" lon="3.544">
        <ele>152.33763538741</ele>
        <time>2015-09-09T12:31:57Z</time>
      </trkpt>
      <trkpt lat="43.73632" lon="3.54396">
        <ele>152.33763538741</ele>
        <time>2015-09-09T12:32:02Z</time>
      </trkpt>
      <trkpt lat="43.73628" lon="3.54392">
        <ele>152.33763538741</ele>
        <time>2015-09-09T12:32:07Z</time>
      </trkpt>
      <trkpt lat="43.73623" lon="3.54389">
        <ele>154.56885283044</ele>
        <time>2015-09-09T12:32:12Z</time>
      </trkpt>
      <trkpt lat="43.7362" lon="3.54385">
        <ele>154.56885283044</ele>
        <time>2015-09-09T12:32:17Z</time>
      </trkpt>
      <trkpt lat="43.73618" lon="3.54382">
        <ele>154.56885283044</ele>
        <time>2015-09-09T12:32:22Z</time>
      </trkpt>
      <trkpt lat="43.73614" lon="3.54375">
        <ele>156.87947262121</ele>
        <time>2015-09-09T12:32:27Z</time>
      </trkpt>
      <trkpt lat="43.73613" lon="3.54375">
        <ele>156.87947262121</ele>
        <time>2015-09-09T12:32:32Z</time>
      </trkpt>
      <trkpt lat="43.73616" lon="3.54364">
        <ele>159.00064353357</ele>
        <time>2015-09-09T12:32:37Z</time>
      </trkpt>
      <trkpt lat="43.73617" lon="3.54358">
        <ele>159.00064353357</ele>
        <time>2015-09-09T12:32:42Z</time>
      </trkpt>
      <trkpt lat="43.73615" lon="3.54352">
        <ele>160.97212288177</ele>
        <time>2015-09-09T12:32:47Z</time>
      </trkpt>
      <trkpt lat="43.73613" lon="3.54347">
        <ele>160.97212288177</ele>
        <time>2015-09-09T12:32:52Z</time>
      </trkpt>
      <trkpt lat="43.73611" lon="3.54345">
        <ele>160.97212288177</ele>
        <time>2015-09-09T12:32:57Z</time>
      </trkpt>
      <trkpt lat="43.73602" lon="3.54337">
        <ele>162.81685839372</ele>
        <time>2015-09-09T12:33:02Z</time>
      </trkpt>
      <trkpt lat="43.736" lon="3.54332">
        <ele>162.81685839372</ele>
        <time>2015-09-09T12:33:07Z</time>
      </trkpt>
      <trkpt lat="43.73598" lon="3.54327">
        <ele>162.81685839372</ele>
        <time>2015-09-09T12:33:12Z</time>
      </trkpt>
      <trkpt lat="43.73602" lon="3.54323">
        <ele>164.48451360268</ele>
        <time>2015-09-09T12:33:17Z</time>
      </trkpt>
      <trkpt lat="43.73602" lon="3.54323">
        <ele>164.48451360268</ele>
        <time>2015-09-09T12:33:22Z</time>
      </trkpt>
      <trkpt lat="43.73632" lon="3.5431">
        <ele>165.91463541827</ele>
        <time>2015-09-09T12:33:27Z</time>
      </trkpt>
      <trkpt lat="43.73646" lon="3.54301">
        <ele>167.10961967758</ele>
        <time>2015-09-09T12:33:32Z</time>
      </trkpt>
      <trkpt lat="43.73647" lon="3.54301">
        <ele>167.10961967758</ele>
        <time>2015-09-09T12:33:37Z</time>
      </trkpt>
      <trkpt lat="43.73639" lon="3.54301">
        <ele>167.10961967758</ele>
        <time>2015-09-09T12:33:42Z</time>
      </trkpt>
      <trkpt lat="43.73638" lon="3.54296">
        <ele>168.07243718896</ele>
        <time>2015-09-09T12:33:47Z</time>
      </trkpt>
      <trkpt lat="43.73635" lon="3.54294">
        <ele>168.07243718896</ele>
        <time>2015-09-09T12:33:52Z</time>
      </trkpt>
      <trkpt lat="43.73633" lon="3.54293">
        <ele>168.07243718896</ele>
        <time>2015-09-09T12:33:57Z</time>
      </trkpt>
      <trkpt lat="43.73632" lon="3.54291">
        <ele>168.07243718896</ele>
        <time>2015-09-09T12:34:07Z</time>
      </trkpt>
      <trkpt lat="43.73633" lon="3.54289">
        <ele>168.80657600376</ele>
        <time>2015-09-09T12:34:12Z</time>
      </trkpt>
      <trkpt lat="43.7363" lon="3.54284">
        <ele>168.80657600376</ele>
        <time>2015-09-09T12:34:17Z</time>
      </trkpt>
      <trkpt lat="43.73629" lon="3.54279">
        <ele>168.80657600376</ele>
        <time>2015-09-09T12:34:22Z</time>
      </trkpt>
      <trkpt lat="43.73634" lon="3.54272">
        <ele>169.51774467876</ele>
        <time>2015-09-09T12:34:27Z</time>
      </trkpt>
      <trkpt lat="43.73633" lon="3.54265">
        <ele>169.51774467876</ele>
        <time>2015-09-09T12:34:32Z</time>
      </trkpt>
      <trkpt lat="43.73635" lon="3.54259">
        <ele>170.1949120243</ele>
        <time>2015-09-09T12:34:37Z</time>
      </trkpt>
      <trkpt lat="43.7364" lon="3.54252">
        <ele>170.1949120243</ele>
        <time>2015-09-09T12:34:42Z</time>
      </trkpt>
      <trkpt lat="43.73633" lon="3.54245">
        <ele>170.79918562457</ele>
        <time>2015-09-09T12:34:47Z</time>
      </trkpt>
      <trkpt lat="43.73632" lon="3.54238">
        <ele>170.79918562457</ele>
        <time>2015-09-09T12:34:52Z</time>
      </trkpt>
      <trkpt lat="43.7363" lon="3.54231">
        <ele>171.32360327856</ele>
        <time>2015-09-09T12:34:57Z</time>
      </trkpt>
      <trkpt lat="43.73632" lon="3.54228">
        <ele>171.32360327856</ele>
        <time>2015-09-09T12:35:02Z</time>
      </trkpt>
      <trkpt lat="43.73654" lon="3.54213">
        <ele>171.93491213877</ele>
        <time>2015-09-09T12:35:17Z</time>
      </trkpt>
      <trkpt lat="43.73651" lon="3.54206">
        <ele>171.93491213877</ele>
        <time>2015-09-09T12:35:22Z</time>
      </trkpt>
      <trkpt lat="43.73649" lon="3.54202">
        <ele>172.70092485544</ele>
        <time>2015-09-09T12:35:27Z</time>
      </trkpt>
      <trkpt lat="43.73645" lon="3.54197">
        <ele>172.70092485544</ele>
        <time>2015-09-09T12:35:32Z</time>
      </trkpt>
      <trkpt lat="43.73642" lon="3.54189">
        <ele>173.66964618269</ele>
        <time>2015-09-09T12:35:39Z</time>
      </trkpt>
      <trkpt lat="43.7364" lon="3.54185">
        <ele>173.66964618269</ele>
        <time>2015-09-09T12:35:47Z</time>
      </trkpt>
      <trkpt lat="43.73637" lon="3.54182">
        <ele>173.66964618269</ele>
        <time>2015-09-09T12:35:47Z</time>
      </trkpt>
      <trkpt lat="43.73629" lon="3.54174">
        <ele>174.87058697682</ele>
        <time>2015-09-09T12:35:55Z</time>
      </trkpt>
      <trkpt lat="43.73631" lon="3.54155">
        <ele>176.64750029399</ele>
        <time>2015-09-09T12:36:18Z</time>
      </trkpt>
      <trkpt lat="43.73632" lon="3.54156">
        <ele>176.64750029399</ele>
        <time>2015-09-09T12:36:22Z</time>
      </trkpt>
      <trkpt lat="43.73634" lon="3.54175">
        <ele>179.1443412879</ele>
        <time>2015-09-09T12:36:52Z</time>
      </trkpt>
      <trkpt lat="43.73618" lon="3.54213">
        <ele>181.68543906944</ele>
        <time>2015-09-09T12:37:24Z</time>
      </trkpt>
      <trkpt lat="43.73603" lon="3.54221">
        <ele>183.81758941832</ele>
        <time>2015-09-09T12:37:37Z</time>
      </trkpt>
      <trkpt lat="43.73607" lon="3.54225">
        <ele>183.81758941832</ele>
        <time>2015-09-09T12:37:57Z</time>
      </trkpt>
      <trkpt lat="43.73612" lon="3.54228">
        <ele>185.90026977808</ele>
        <time>2015-09-09T12:38:03Z</time>
      </trkpt>
      <trkpt lat="43.73612" lon="3.54229">
        <ele>185.90026977808</ele>
        <time>2015-09-09T12:38:07Z</time>
      </trkpt>
      <trkpt lat="43.73613" lon="3.54241">
        <ele>188.02172144513</ele>
        <time>2015-09-09T12:38:27Z</time>
      </trkpt>
      <trkpt lat="43.73605" lon="3.54248">
        <ele>189.75922690661</ele>
        <time>2015-09-09T12:38:42Z</time>
      </trkpt>
      <trkpt lat="43.73605" lon="3.5424">
        <ele>189.75922690661</ele>
        <time>2015-09-09T12:38:55Z</time>
      </trkpt>
      <trkpt lat="43.73605" lon="3.5424">
        <ele>189.75922690661</ele>
        <time>2015-09-09T12:38:57Z</time>
      </trkpt>
      <trkpt lat="43.73598" lon="3.5424">
        <ele>191.78867749514</ele>
        <time>2015-09-09T12:39:03Z</time>
      </trkpt>
      <trkpt lat="43.73596" lon="3.54239">
        <ele>191.78867749514</ele>
        <time>2015-09-09T12:39:07Z</time>
      </trkpt>
      <trkpt lat="43.73596" lon="3.5422">
        <ele>193.74114316865</ele>
        <time>2015-09-09T12:39:28Z</time>
      </trkpt>
      <trkpt lat="43.73594" lon="3.54209">
        <ele>193.74114316865</ele>
        <time>2015-09-09T12:39:41Z</time>
      </trkpt>
      <trkpt lat="43.7359" lon="3.54203">
        <ele>195.57768906899</ele>
        <time>2015-09-09T12:39:49Z</time>
      </trkpt>
      <trkpt lat="43.73582" lon="3.54187">
        <ele>197.36348324185</ele>
        <time>2015-09-09T12:39:56Z</time>
      </trkpt>
      <trkpt lat="43.73581" lon="3.54186">
        <ele>197.36348324185</ele>
        <time>2015-09-09T12:39:57Z</time>
      </trkpt>
      <trkpt lat="43.73585" lon="3.54177">
        <ele>197.36348324185</ele>
        <time>2015-09-09T12:40:13Z</time>
      </trkpt>
      <trkpt lat="43.73577" lon="3.54151">
        <ele>199.15908705989</ele>
        <time>2015-09-09T12:40:25Z</time>
      </trkpt>
      <trkpt lat="43.73576" lon="3.54148">
        <ele>199.15908705989</ele>
        <time>2015-09-09T12:40:27Z</time>
      </trkpt>
      <trkpt lat="43.73568" lon="3.54132">
        <ele>200.80445417718</ele>
        <time>2015-09-09T12:40:51Z</time>
      </trkpt>
      <trkpt lat="43.73567" lon="3.54131">
        <ele>200.80445417718</ele>
        <time>2015-09-09T12:40:58Z</time>
      </trkpt>
      <trkpt lat="43.73557" lon="3.54118">
        <ele>202.36792350257</ele>
        <time>2015-09-09T12:41:04Z</time>
      </trkpt>
      <trkpt lat="43.73554" lon="3.54115">
        <ele>202.36792350257</ele>
        <time>2015-09-09T12:41:15Z</time>
      </trkpt>
      <trkpt lat="43.73543" lon="3.54102">
        <ele>203.82661107446</ele>
        <time>2015-09-09T12:41:17Z</time>
      </trkpt>
      <trkpt lat="43.73544" lon="3.54097">
        <ele>203.82661107446</ele>
        <time>2015-09-09T12:41:27Z</time>
      </trkpt>
      <trkpt lat="43.7354" lon="3.54086">
        <ele>205.14522958556</ele>
        <time>2015-09-09T12:41:27Z</time>
      </trkpt>
      <trkpt lat="43.73534" lon="3.5408">
        <ele>205.14522958556</ele>
        <time>2015-09-09T12:41:33Z</time>
      </trkpt>
      <trkpt lat="43.73533" lon="3.54075">
        <ele>206.26268377866</ele>
        <time>2015-09-09T12:41:37Z</time>
      </trkpt>
      <trkpt lat="43.73532" lon="3.5407">
        <ele>206.26268377866</ele>
        <time>2015-09-09T12:41:45Z</time>
      </trkpt>
      <trkpt lat="43.73535" lon="3.54067">
        <ele>206.26268377866</ele>
        <time>2015-09-09T12:41:50Z</time>
      </trkpt>
      <trkpt lat="43.73534" lon="3.54065">
        <ele>207.33912379565</ele>
        <time>2015-09-09T12:41:52Z</time>
      </trkpt>
      <trkpt lat="43.73516" lon="3.54059">
        <ele>208.27807921659</ele>
        <time>2015-09-09T12:41:59Z</time>
      </trkpt>
      <trkpt lat="43.73513" lon="3.54055">
        <ele>208.27807921659</ele>
        <time>2015-09-09T12:42:02Z</time>
      </trkpt>
      <trkpt lat="43.7351" lon="3.54048">
        <ele>209.03379941316</ele>
        <time>2015-09-09T12:42:07Z</time>
      </trkpt>
      <trkpt lat="43.73517" lon="3.54017">
        <ele>209.78058323454</ele>
        <time>2015-09-09T12:42:38Z</time>
      </trkpt>
      <trkpt lat="43.73514" lon="3.54015">
        <ele>209.78058323454</ele>
        <time>2015-09-09T12:42:38Z</time>
      </trkpt>
      <trkpt lat="43.73505" lon="3.54013">
        <ele>210.53583904479</ele>
        <time>2015-09-09T12:42:52Z</time>
      </trkpt>
      <trkpt lat="43.73507" lon="3.5401">
        <ele>210.53583904479</ele>
        <time>2015-09-09T12:43:00Z</time>
      </trkpt>
      <trkpt lat="43.73507" lon="3.54007">
        <ele>210.53583904479</ele>
        <time>2015-09-09T12:43:04Z</time>
      </trkpt>
      <trkpt lat="43.73508" lon="3.54003">
        <ele>210.53583904479</ele>
        <time>2015-09-09T12:43:11Z</time>
      </trkpt>
      <trkpt lat="43.7351" lon="3.53997">
        <ele>211.28684385426</ele>
        <time>2015-09-09T12:43:12Z</time>
      </trkpt>
      <trkpt lat="43.7351" lon="3.53993">
        <ele>211.28684385426</ele>
        <time>2015-09-09T12:43:17Z</time>
      </trkpt>
      <trkpt lat="43.7351" lon="3.5399">
        <ele>211.28684385426</ele>
        <time>2015-09-09T12:43:28Z</time>
      </trkpt>
      <trkpt lat="43.73513" lon="3.53992">
        <ele>211.28684385426</ele>
        <time>2015-09-09T12:43:34Z</time>
      </trkpt>
      <trkpt lat="43.73513" lon="3.53994">
        <ele>211.96416358069</ele>
        <time>2015-09-09T12:43:39Z</time>
      </trkpt>
      <trkpt lat="43.73522" lon="3.53994">
        <ele>212.64776357846</ele>
        <time>2015-09-09T12:43:42Z</time>
      </trkpt>
      <trkpt lat="43.7354" lon="3.53995">
        <ele>213.599037315</ele>
        <time>2015-09-09T12:43:58Z</time>
      </trkpt>
      <trkpt lat="43.73545" lon="3.53992">
        <ele>213.599037315</ele>
        <time>2015-09-09T12:44:04Z</time>
      </trkpt>
      <trkpt lat="43.73548" lon="3.53994">
        <ele>213.599037315</ele>
        <time>2015-09-09T12:44:07Z</time>
      </trkpt>
      <trkpt lat="43.73553" lon="3.53996">
        <ele>214.85764076958</ele>
        <time>2015-09-09T12:44:12Z</time>
      </trkpt>
      <trkpt lat="43.73558" lon="3.53995">
        <ele>214.85764076958</ele>
        <time>2015-09-09T12:44:17Z</time>
      </trkpt>
      <trkpt lat="43.73563" lon="3.53993">
        <ele>216.20002300607</ele>
        <time>2015-09-09T12:44:22Z</time>
      </trkpt>
      <trkpt lat="43.73567" lon="3.53986">
        <ele>216.20002300607</ele>
        <time>2015-09-09T12:44:27Z</time>
      </trkpt>
      <trkpt lat="43.73577" lon="3.53973">
        <ele>217.76465493862</ele>
        <time>2015-09-09T12:44:47Z</time>
      </trkpt>
      <trkpt lat="43.7358" lon="3.5397">
        <ele>217.76465493862</ele>
        <time>2015-09-09T12:44:52Z</time>
      </trkpt>
      <trkpt lat="43.73586" lon="3.53957">
        <ele>218.98744625548</ele>
        <time>2015-09-09T12:44:57Z</time>
      </trkpt>
      <trkpt lat="43.73591" lon="3.53947">
        <ele>218.98744625548</ele>
        <time>2015-09-09T12:45:02Z</time>
      </trkpt>
      <trkpt lat="43.73592" lon="3.53944">
        <ele>220.16810637901</ele>
        <time>2015-09-09T12:45:08Z</time>
      </trkpt>
      <trkpt lat="43.73601" lon="3.5393">
        <ele>221.36824927698</ele>
        <time>2015-09-09T12:45:22Z</time>
      </trkpt>
      <trkpt lat="43.73602" lon="3.53928">
        <ele>221.36824927698</ele>
        <time>2015-09-09T12:45:27Z</time>
      </trkpt>
      <trkpt lat="43.73602" lon="3.53928">
        <ele>221.36824927698</ele>
        <time>2015-09-09T12:45:32Z</time>
      </trkpt>
      <trkpt lat="43.736" lon="3.53922">
        <ele>221.36824927698</ele>
        <time>2015-09-09T12:45:47Z</time>
      </trkpt>
      <trkpt lat="43.73599" lon="3.53922">
        <ele>221.36824927698</ele>
        <time>2015-09-09T12:45:52Z</time>
      </trkpt>
      <trkpt lat="43.73595" lon="3.53923">
        <ele>222.4719445649</ele>
        <time>2015-09-09T12:45:57Z</time>
      </trkpt>
      <trkpt lat="43.73596" lon="3.53925">
        <ele>222.4719445649</ele>
        <time>2015-09-09T12:46:02Z</time>
      </trkpt>
      <trkpt lat="43.73601" lon="3.5393">
        <ele>222.4719445649</ele>
        <time>2015-09-09T12:46:27Z</time>
      </trkpt>
      <trkpt lat="43.73601" lon="3.53928">
        <ele>222.4719445649</ele>
        <time>2015-09-09T12:46:33Z</time>
      </trkpt>
      <trkpt lat="43.73606" lon="3.53925">
        <ele>223.81876324338</ele>
        <time>2015-09-09T12:46:44Z</time>
      </trkpt>
      <trkpt lat="43.73608" lon="3.53924">
        <ele>223.81876324338</ele>
        <time>2015-09-09T12:46:47Z</time>
      </trkpt>
      <trkpt lat="43.73612" lon="3.5392">
        <ele>223.81876324338</ele>
        <time>2015-09-09T12:46:53Z</time>
      </trkpt>
      <trkpt lat="43.73614" lon="3.53917">
        <ele>225.00206340107</ele>
        <time>2015-09-09T12:47:00Z</time>
      </trkpt>
      <trkpt lat="43.73616" lon="3.53909">
        <ele>225.00206340107</ele>
        <time>2015-09-09T12:47:19Z</time>
      </trkpt>
      <trkpt lat="43.73631" lon="3.53862">
        <ele>226.02019235407</ele>
        <time>2015-09-09T12:48:21Z</time>
      </trkpt>
      <trkpt lat="43.73632" lon="3.5386">
        <ele>226.02019235407</ele>
        <time>2015-09-09T12:48:22Z</time>
      </trkpt>
      <trkpt lat="43.73636" lon="3.5384">
        <ele>226.81440675972</ele>
        <time>2015-09-09T12:48:35Z</time>
      </trkpt>
      <trkpt lat="43.73638" lon="3.53838">
        <ele>226.81440675972</ele>
        <time>2015-09-09T12:48:37Z</time>
      </trkpt>
      <trkpt lat="43.73637" lon="3.53838">
        <ele>226.81440675972</ele>
        <time>2015-09-09T12:48:47Z</time>
      </trkpt>
      <trkpt lat="43.73648" lon="3.53802">
        <ele>227.70556398482</ele>
        <time>2015-09-09T12:49:21Z</time>
      </trkpt>
      <trkpt lat="43.73646" lon="3.53797">
        <ele>227.70556398482</ele>
        <time>2015-09-09T12:49:22Z</time>
      </trkpt>
      <trkpt lat="43.73636" lon="3.53769">
        <ele>228.8609462894</ele>
        <time>2015-09-09T12:49:47Z</time>
      </trkpt>
      <trkpt lat="43.7363" lon="3.53743">
        <ele>230.37712817401</ele>
        <time>2015-09-09T12:50:17Z</time>
      </trkpt>
      <trkpt lat="43.73622" lon="3.5373">
        <ele>231.91021092549</ele>
        <time>2015-09-09T12:50:27Z</time>
      </trkpt>
      <trkpt lat="43.73622" lon="3.53722">
        <ele>231.91021092549</ele>
        <time>2015-09-09T12:50:32Z</time>
      </trkpt>
      <trkpt lat="43.73624" lon="3.53707">
        <ele>233.47293596495</ele>
        <time>2015-09-09T12:50:46Z</time>
      </trkpt>
      <trkpt lat="43.73621" lon="3.53701">
        <ele>233.47293596495</ele>
        <time>2015-09-09T12:51:08Z</time>
      </trkpt>
      <trkpt lat="43.73625" lon="3.53693">
        <ele>235.59579937974</ele>
        <time>2015-09-09T12:51:18Z</time>
      </trkpt>
      <trkpt lat="43.73625" lon="3.5369">
        <ele>235.59579937974</ele>
        <time>2015-09-09T12:51:29Z</time>
      </trkpt>
      <trkpt lat="43.73621" lon="3.53671">
        <ele>237.77436691512</ele>
        <time>2015-09-09T12:51:43Z</time>
      </trkpt>
      <trkpt lat="43.73619" lon="3.53666">
        <ele>237.77436691512</ele>
        <time>2015-09-09T12:51:47Z</time>
      </trkpt>
      <trkpt lat="43.73617" lon="3.5366">
        <ele>237.77436691512</ele>
        <time>2015-09-09T12:51:52Z</time>
      </trkpt>
      <trkpt lat="43.73619" lon="3.53653">
        <ele>239.88695536222</ele>
        <time>2015-09-09T12:51:57Z</time>
      </trkpt>
      <trkpt lat="43.73619" lon="3.53646">
        <ele>239.88695536222</ele>
        <time>2015-09-09T12:52:02Z</time>
      </trkpt>
      <trkpt lat="43.73616" lon="3.53642">
        <ele>241.89305265408</ele>
        <time>2015-09-09T12:52:07Z</time>
      </trkpt>
      <trkpt lat="43.7361" lon="3.5364">
        <ele>241.89305265408</ele>
        <time>2015-09-09T12:52:12Z</time>
      </trkpt>
      <trkpt lat="43.73607" lon="3.53637">
        <ele>243.68336398039</ele>
        <time>2015-09-09T12:52:17Z</time>
      </trkpt>
      <trkpt lat="43.73608" lon="3.53629">
        <ele>243.68336398039</ele>
        <time>2015-09-09T12:52:22Z</time>
      </trkpt>
      <trkpt lat="43.73612" lon="3.53622">
        <ele>245.38781009813</ele>
        <time>2015-09-09T12:52:27Z</time>
      </trkpt>
      <trkpt lat="43.73612" lon="3.53617">
        <ele>245.38781009813</ele>
        <time>2015-09-09T12:52:32Z</time>
      </trkpt>
      <trkpt lat="43.73612" lon="3.5361">
        <ele>245.38781009813</ele>
        <time>2015-09-09T12:52:37Z</time>
      </trkpt>
      <trkpt lat="43.73611" lon="3.53604">
        <ele>246.93967131829</ele>
        <time>2015-09-09T12:52:42Z</time>
      </trkpt>
      <trkpt lat="43.73609" lon="3.53601">
        <ele>246.93967131829</ele>
        <time>2015-09-09T12:52:47Z</time>
      </trkpt>
      <trkpt lat="43.73606" lon="3.53596">
        <ele>246.93967131829</ele>
        <time>2015-09-09T12:52:57Z</time>
      </trkpt>
      <trkpt lat="43.736" lon="3.53598">
        <ele>248.3208000019</ele>
        <time>2015-09-09T12:53:02Z</time>
      </trkpt>
      <trkpt lat="43.73599" lon="3.53595">
        <ele>248.3208000019</ele>
        <time>2015-09-09T12:53:12Z</time>
      </trkpt>
      <trkpt lat="43.73602" lon="3.53574">
        <ele>249.75986024552</ele>
        <time>2015-09-09T12:53:25Z</time>
      </trkpt>
      <trkpt lat="43.73608" lon="3.53536">
        <ele>251.16593320682</ele>
        <time>2015-09-09T12:53:47Z</time>
      </trkpt>
      <trkpt lat="43.73604" lon="3.53532">
        <ele>251.16593320682</ele>
        <time>2015-09-09T12:54:07Z</time>
      </trkpt>
      <trkpt lat="43.73602" lon="3.53515">
        <ele>252.52693745535</ele>
        <time>2015-09-09T12:54:18Z</time>
      </trkpt>
      <trkpt lat="43.73602" lon="3.53513">
        <ele>252.52693745535</ele>
        <time>2015-09-09T12:54:24Z</time>
      </trkpt>
      <trkpt lat="43.73596" lon="3.53505">
        <ele>253.64447022948</ele>
        <time>2015-09-09T12:54:48Z</time>
      </trkpt>
      <trkpt lat="43.73597" lon="3.53501">
        <ele>253.64447022948</ele>
        <time>2015-09-09T12:54:52Z</time>
      </trkpt>
      <trkpt lat="43.73596" lon="3.53498">
        <ele>253.64447022948</ele>
        <time>2015-09-09T12:55:09Z</time>
      </trkpt>
      <trkpt lat="43.73604" lon="3.53486">
        <ele>254.65243884331</ele>
        <time>2015-09-09T12:55:15Z</time>
      </trkpt>
      <trkpt lat="43.73611" lon="3.53467">
        <ele>255.66081557118</ele>
        <time>2015-09-09T12:55:22Z</time>
      </trkpt>
      <trkpt lat="43.73612" lon="3.5346">
        <ele>255.66081557118</ele>
        <time>2015-09-09T12:55:29Z</time>
      </trkpt>
      <trkpt lat="43.73611" lon="3.53459">
        <ele>255.66081557118</ele>
        <time>2015-09-09T12:55:32Z</time>
      </trkpt>
      <trkpt lat="43.73609" lon="3.53455">
        <ele>256.9011961428</ele>
        <time>2015-09-09T12:55:37Z</time>
      </trkpt>
      <trkpt lat="43.73603" lon="3.53418">
        <ele>258.28487969269</ele>
        <time>2015-09-09T12:56:29Z</time>
      </trkpt>
      <trkpt lat="43.73604" lon="3.53414">
        <ele>258.28487969269</ele>
        <time>2015-09-09T12:56:32Z</time>
      </trkpt>
      <trkpt lat="43.73603" lon="3.53391">
        <ele>260.19043519624</ele>
        <time>2015-09-09T12:57:00Z</time>
      </trkpt>
      <trkpt lat="43.73619" lon="3.53344">
        <ele>262.43394809346</ele>
        <time>2015-09-09T12:57:27Z</time>
      </trkpt>
      <trkpt lat="43.7362" lon="3.53341">
        <ele>262.43394809346</ele>
        <time>2015-09-09T12:57:32Z</time>
      </trkpt>
      <trkpt lat="43.73621" lon="3.53337">
        <ele>262.43394809346</ele>
        <time>2015-09-09T12:57:37Z</time>
      </trkpt>
      <trkpt lat="43.73621" lon="3.5333">
        <ele>264.54143714957</ele>
        <time>2015-09-09T12:57:42Z</time>
      </trkpt>
      <trkpt lat="43.73621" lon="3.53326">
        <ele>264.54143714957</ele>
        <time>2015-09-09T12:57:47Z</time>
      </trkpt>
      <trkpt lat="43.73624" lon="3.53316">
        <ele>266.46323039391</ele>
        <time>2015-09-09T12:57:53Z</time>
      </trkpt>
      <trkpt lat="43.73627" lon="3.53309">
        <ele>266.46323039391</ele>
        <time>2015-09-09T12:57:59Z</time>
      </trkpt>
      <trkpt lat="43.73636" lon="3.53286">
        <ele>268.67264031049</ele>
        <time>2015-09-09T12:58:17Z</time>
      </trkpt>
      <trkpt lat="43.73635" lon="3.53281">
        <ele>268.67264031049</ele>
        <time>2015-09-09T12:58:22Z</time>
      </trkpt>
      <trkpt lat="43.73635" lon="3.53278">
        <ele>268.67264031049</ele>
        <time>2015-09-09T12:58:27Z</time>
      </trkpt>
      <trkpt lat="43.73632" lon="3.53277">
        <ele>270.81481099697</ele>
        <time>2015-09-09T12:58:32Z</time>
      </trkpt>
      <trkpt lat="43.73631" lon="3.53276">
        <ele>270.81481099697</ele>
        <time>2015-09-09T12:58:37Z</time>
      </trkpt>
      <trkpt lat="43.73634" lon="3.53272">
        <ele>270.81481099697</ele>
        <time>2015-09-09T12:58:42Z</time>
      </trkpt>
      <trkpt lat="43.73642" lon="3.53269">
        <ele>272.73409956045</ele>
        <time>2015-09-09T12:58:52Z</time>
      </trkpt>
      <trkpt lat="43.73642" lon="3.53264">
        <ele>272.73409956045</ele>
        <time>2015-09-09T12:58:57Z</time>
      </trkpt>
      <trkpt lat="43.73641" lon="3.53259">
        <ele>272.73409956045</ele>
        <time>2015-09-09T12:59:02Z</time>
      </trkpt>
      <trkpt lat="43.73641" lon="3.53253">
        <ele>274.47429304533</ele>
        <time>2015-09-09T12:59:07Z</time>
      </trkpt>
      <trkpt lat="43.73637" lon="3.53249">
        <ele>274.47429304533</ele>
        <time>2015-09-09T12:59:12Z</time>
      </trkpt>
      <trkpt lat="43.73637" lon="3.53244">
        <ele>274.47429304533</ele>
        <time>2015-09-09T12:59:17Z</time>
      </trkpt>
      <trkpt lat="43.73641" lon="3.53242">
        <ele>276.13413787868</ele>
        <time>2015-09-09T12:59:27Z</time>
      </trkpt>
      <trkpt lat="43.73643" lon="3.5324">
        <ele>276.13413787868</ele>
        <time>2015-09-09T12:59:32Z</time>
      </trkpt>
      <trkpt lat="43.73645" lon="3.53235">
        <ele>276.13413787868</ele>
        <time>2015-09-09T12:59:37Z</time>
      </trkpt>
      <trkpt lat="43.73644" lon="3.53231">
        <ele>277.53157049535</ele>
        <time>2015-09-09T12:59:42Z</time>
      </trkpt>
      <trkpt lat="43.73644" lon="3.53227">
        <ele>277.53157049535</ele>
        <time>2015-09-09T12:59:47Z</time>
      </trkpt>
      <trkpt lat="43.73641" lon="3.53224">
        <ele>277.53157049535</ele>
        <time>2015-09-09T12:59:52Z</time>
      </trkpt>
      <trkpt lat="43.73638" lon="3.5322">
        <ele>278.78688889731</ele>
        <time>2015-09-09T12:59:57Z</time>
      </trkpt>
      <trkpt lat="43.7364" lon="3.53213">
        <ele>278.78688889731</ele>
        <time>2015-09-09T13:00:02Z</time>
      </trkpt>
      <trkpt lat="43.73638" lon="3.53208">
        <ele>279.96874595179</ele>
        <time>2015-09-09T13:00:07Z</time>
      </trkpt>
      <trkpt lat="43.73643" lon="3.532">
        <ele>279.96874595179</ele>
        <time>2015-09-09T13:00:12Z</time>
      </trkpt>
      <trkpt lat="43.73638" lon="3.53197">
        <ele>281.097747393</ele>
        <time>2015-09-09T13:00:22Z</time>
      </trkpt>
      <trkpt lat="43.73637" lon="3.53194">
        <ele>281.097747393</ele>
        <time>2015-09-09T13:00:38Z</time>
      </trkpt>
      <trkpt lat="43.7365" lon="3.53161">
        <ele>282.40932004076</ele>
        <time>2015-09-09T13:00:55Z</time>
      </trkpt>
      <trkpt lat="43.73651" lon="3.53159">
        <ele>282.40932004076</ele>
        <time>2015-09-09T13:00:57Z</time>
      </trkpt>
      <trkpt lat="43.73677" lon="3.53128">
        <ele>284.1355122143</ele>
        <time>2015-09-09T13:01:27Z</time>
      </trkpt>
      <trkpt lat="43.73676" lon="3.53128">
        <ele>284.1355122143</ele>
        <time>2015-09-09T13:01:38Z</time>
      </trkpt>
      <trkpt lat="43.7368" lon="3.53124">
        <ele>284.1355122143</ele>
        <time>2015-09-09T13:01:47Z</time>
      </trkpt>
      <trkpt lat="43.73685" lon="3.53119">
        <ele>285.92814441873</ele>
        <time>2015-09-09T13:01:56Z</time>
      </trkpt>
      <trkpt lat="43.73686" lon="3.53114">
        <ele>285.92814441873</ele>
        <time>2015-09-09T13:01:57Z</time>
      </trkpt>
      <trkpt lat="43.73691" lon="3.53092">
        <ele>287.46444188226</ele>
        <time>2015-09-09T13:02:27Z</time>
      </trkpt>
      <trkpt lat="43.73697" lon="3.53085">
        <ele>287.46444188226</ele>
        <time>2015-09-09T13:02:32Z</time>
      </trkpt>
      <trkpt lat="43.73702" lon="3.5308">
        <ele>288.79194017959</ele>
        <time>2015-09-09T13:02:37Z</time>
      </trkpt>
      <trkpt lat="43.73721" lon="3.53064">
        <ele>290.01292601574</ele>
        <time>2015-09-09T13:02:57Z</time>
      </trkpt>
      <trkpt lat="43.73726" lon="3.53061">
        <ele>290.01292601574</ele>
        <time>2015-09-09T13:03:02Z</time>
      </trkpt>
      <trkpt lat="43.73732" lon="3.53058">
        <ele>291.20807094918</ele>
        <time>2015-09-09T13:03:07Z</time>
      </trkpt>
      <trkpt lat="43.73737" lon="3.53057">
        <ele>291.20807094918</ele>
        <time>2015-09-09T13:03:12Z</time>
      </trkpt>
      <trkpt lat="43.73742" lon="3.53056">
        <ele>292.23603431538</ele>
        <time>2015-09-09T13:03:17Z</time>
      </trkpt>
      <trkpt lat="43.73747" lon="3.53055">
        <ele>292.23603431538</ele>
        <time>2015-09-09T13:03:22Z</time>
      </trkpt>
      <trkpt lat="43.73751" lon="3.53055">
        <ele>292.23603431538</ele>
        <time>2015-09-09T13:03:27Z</time>
      </trkpt>
      <trkpt lat="43.73755" lon="3.53052">
        <ele>293.08162044246</ele>
        <time>2015-09-09T13:03:32Z</time>
      </trkpt>
      <trkpt lat="43.73758" lon="3.53049">
        <ele>293.08162044246</ele>
        <time>2015-09-09T13:03:37Z</time>
      </trkpt>
      <trkpt lat="43.73758" lon="3.53046">
        <ele>293.08162044246</ele>
        <time>2015-09-09T13:03:42Z</time>
      </trkpt>
      <trkpt lat="43.73758" lon="3.53045">
        <ele>293.08162044246</ele>
        <time>2015-09-09T13:03:47Z</time>
      </trkpt>
      <trkpt lat="43.73763" lon="3.5304">
        <ele>293.63038311174</ele>
        <time>2015-09-09T13:03:57Z</time>
      </trkpt>
      <trkpt lat="43.73764" lon="3.5304">
        <ele>293.63038311174</ele>
        <time>2015-09-09T13:04:02Z</time>
      </trkpt>
      <trkpt lat="43.73766" lon="3.53038">
        <ele>293.63038311174</ele>
        <time>2015-09-09T13:04:07Z</time>
      </trkpt>
      <trkpt lat="43.73766" lon="3.53037">
        <ele>293.63038311174</ele>
        <time>2015-09-09T13:04:12Z</time>
      </trkpt>
      <trkpt lat="43.73767" lon="3.53034">
        <ele>293.63038311174</ele>
        <time>2015-09-09T13:04:17Z</time>
      </trkpt>
      <trkpt lat="43.7377" lon="3.53031">
        <ele>294.03650952404</ele>
        <time>2015-09-09T13:04:22Z</time>
      </trkpt>
      <trkpt lat="43.73772" lon="3.53028">
        <ele>294.03650952404</ele>
        <time>2015-09-09T13:04:27Z</time>
      </trkpt>
      <trkpt lat="43.73773" lon="3.53025">
        <ele>294.03650952404</ele>
        <time>2015-09-09T13:04:32Z</time>
      </trkpt>
      <trkpt lat="43.73774" lon="3.53022">
        <ele>294.03650952404</ele>
        <time>2015-09-09T13:04:37Z</time>
      </trkpt>
      <trkpt lat="43.73776" lon="3.53018">
        <ele>294.52971403848</ele>
        <time>2015-09-09T13:04:42Z</time>
      </trkpt>
      <trkpt lat="43.73779" lon="3.53014">
        <ele>294.52971403848</ele>
        <time>2015-09-09T13:04:47Z</time>
      </trkpt>
      <trkpt lat="43.73782" lon="3.53013">
        <ele>294.52971403848</ele>
        <time>2015-09-09T13:04:52Z</time>
      </trkpt>
      <trkpt lat="43.73785" lon="3.53013">
        <ele>294.90464914703</ele>
        <time>2015-09-09T13:04:57Z</time>
      </trkpt>
      <trkpt lat="43.73786" lon="3.53012">
        <ele>294.90464914703</ele>
        <time>2015-09-09T13:05:02Z</time>
      </trkpt>
      <trkpt lat="43.73788" lon="3.53011">
        <ele>294.90464914703</ele>
        <time>2015-09-09T13:05:07Z</time>
      </trkpt>
      <trkpt lat="43.7379" lon="3.5301">
        <ele>294.90464914703</ele>
        <time>2015-09-09T13:05:12Z</time>
      </trkpt>
      <trkpt lat="43.73791" lon="3.53011">
        <ele>294.90464914703</ele>
        <time>2015-09-09T13:05:17Z</time>
      </trkpt>
      <trkpt lat="43.73791" lon="3.5301">
        <ele>294.90464914703</ele>
        <time>2015-09-09T13:05:22Z</time>
      </trkpt>
      <trkpt lat="43.7379" lon="3.53008">
        <ele>294.95694424637</ele>
        <time>2015-09-09T13:05:27Z</time>
      </trkpt>
      <trkpt lat="43.73793" lon="3.53007">
        <ele>294.95694424637</ele>
        <time>2015-09-09T13:05:32Z</time>
      </trkpt>
      <trkpt lat="43.73796" lon="3.53002">
        <ele>294.95694424637</ele>
        <time>2015-09-09T13:05:37Z</time>
      </trkpt>
      <trkpt lat="43.738" lon="3.52997">
        <ele>294.90162144543</ele>
        <time>2015-09-09T13:05:42Z</time>
      </trkpt>
      <trkpt lat="43.73804" lon="3.5299">
        <ele>294.90162144543</ele>
        <time>2015-09-09T13:05:47Z</time>
      </trkpt>
      <trkpt lat="43.73807" lon="3.52985">
        <ele>294.90934229607</ele>
        <time>2015-09-09T13:05:52Z</time>
      </trkpt>
      <trkpt lat="43.73806" lon="3.52981">
        <ele>294.90934229607</ele>
        <time>2015-09-09T13:05:57Z</time>
      </trkpt>
      <trkpt lat="43.73809" lon="3.52979">
        <ele>294.90934229607</ele>
        <time>2015-09-09T13:06:02Z</time>
      </trkpt>
      <trkpt lat="43.73809" lon="3.52979">
        <ele>294.90934229607</ele>
        <time>2015-09-09T13:06:07Z</time>
      </trkpt>
      <trkpt lat="43.73803" lon="3.52977">
        <ele>295.72885877369</ele>
        <time>2015-09-09T13:06:27Z</time>
      </trkpt>
      <trkpt lat="43.73803" lon="3.5298">
        <ele>295.72885877369</ele>
        <time>2015-09-09T13:06:33Z</time>
      </trkpt>
      <trkpt lat="43.73808" lon="3.52971">
        <ele>296.79781836388</ele>
        <time>2015-09-09T13:06:58Z</time>
      </trkpt>
      <trkpt lat="43.73805" lon="3.52954">
        <ele>298.06998623171</ele>
        <time>2015-09-09T13:07:22Z</time>
      </trkpt>
      <trkpt lat="43.73792" lon="3.52953">
        <ele>299.27131683871</ele>
        <time>2015-09-09T13:07:34Z</time>
      </trkpt>
      <trkpt lat="43.73785" lon="3.52956">
        <ele>299.27131683871</ele>
        <time>2015-09-09T13:07:47Z</time>
      </trkpt>
      <trkpt lat="43.73783" lon="3.52956">
        <ele>300.63801611412</ele>
        <time>2015-09-09T13:07:58Z</time>
      </trkpt>
      <trkpt lat="43.7377" lon="3.52945">
        <ele>302.61900050927</ele>
        <time>2015-09-09T13:08:22Z</time>
      </trkpt>
      <trkpt lat="43.73768" lon="3.52947">
        <ele>302.61900050927</ele>
        <time>2015-09-09T13:08:33Z</time>
      </trkpt>
      <trkpt lat="43.73763" lon="3.5295">
        <ele>302.61900050927</ele>
        <time>2015-09-09T13:08:47Z</time>
      </trkpt>
      <trkpt lat="43.73764" lon="3.5295">
        <ele>302.61900050927</ele>
        <time>2015-09-09T13:08:55Z</time>
      </trkpt>
      <trkpt lat="43.73765" lon="3.52949">
        <ele>304.89347340885</ele>
        <time>2015-09-09T13:08:57Z</time>
      </trkpt>
      <trkpt lat="43.73784" lon="3.52952">
        <ele>307.43715411845</ele>
        <time>2015-09-09T13:09:22Z</time>
      </trkpt>
      <trkpt lat="43.73789" lon="3.52953">
        <ele>307.43715411845</ele>
        <time>2015-09-09T13:09:31Z</time>
      </trkpt>
      <trkpt lat="43.73789" lon="3.52954">
        <ele>307.43715411845</ele>
        <time>2015-09-09T13:09:32Z</time>
      </trkpt>
      <trkpt lat="43.73792" lon="3.52955">
        <ele>307.43715411845</ele>
        <time>2015-09-09T13:09:37Z</time>
      </trkpt>
      <trkpt lat="43.73794" lon="3.52952">
        <ele>309.83766257326</ele>
        <time>2015-09-09T13:09:43Z</time>
      </trkpt>
      <trkpt lat="43.73794" lon="3.52951">
        <ele>309.83766257326</ele>
        <time>2015-09-09T13:09:47Z</time>
      </trkpt>
      <trkpt lat="43.73788" lon="3.52954">
        <ele>309.83766257326</ele>
        <time>2015-09-09T13:09:59Z</time>
      </trkpt>
      <trkpt lat="43.73793" lon="3.52956">
        <ele>312.65002017949</ele>
        <time>2015-09-09T13:10:08Z</time>
      </trkpt>
      <trkpt lat="43.73793" lon="3.52958">
        <ele>312.65002017949</ele>
        <time>2015-09-09T13:10:08Z</time>
      </trkpt>
      <trkpt lat="43.73804" lon="3.52964">
        <ele>315.55147288411</ele>
        <time>2015-09-09T13:10:35Z</time>
      </trkpt>
      <trkpt lat="43.73807" lon="3.52974">
        <ele>315.55147288411</ele>
        <time>2015-09-09T13:11:02Z</time>
      </trkpt>
      <trkpt lat="43.73803" lon="3.52975">
        <ele>318.47331247268</ele>
        <time>2015-09-09T13:11:16Z</time>
      </trkpt>
      <trkpt lat="43.7383" lon="3.52993">
        <ele>321.1356744087</ele>
        <time>2015-09-09T13:11:40Z</time>
      </trkpt>
      <trkpt lat="43.73826" lon="3.52998">
        <ele>321.1356744087</ele>
        <time>2015-09-09T13:11:43Z</time>
      </trkpt>
      <trkpt lat="43.73824" lon="3.53007">
        <ele>323.81322370433</ele>
        <time>2015-09-09T13:11:47Z</time>
      </trkpt>
      <trkpt lat="43.73827" lon="3.53014">
        <ele>323.81322370433</ele>
        <time>2015-09-09T13:12:00Z</time>
      </trkpt>
      <trkpt lat="43.73829" lon="3.53025">
        <ele>327.13513778659</ele>
        <time>2015-09-09T13:12:05Z</time>
      </trkpt>
      <trkpt lat="43.73847" lon="3.53044">
        <ele>329.8379966448</ele>
        <time>2015-09-09T13:12:39Z</time>
      </trkpt>
      <trkpt lat="43.73862" lon="3.53044">
        <ele>332.74172235513</ele>
        <time>2015-09-09T13:13:05Z</time>
      </trkpt>
      <trkpt lat="43.73864" lon="3.53045">
        <ele>332.74172235513</ele>
        <time>2015-09-09T13:13:07Z</time>
      </trkpt>
      <trkpt lat="43.73893" lon="3.53052">
        <ele>335.19322202189</ele>
        <time>2015-09-09T13:13:38Z</time>
      </trkpt>
      <trkpt lat="43.73901" lon="3.53052">
        <ele>335.19322202189</ele>
        <time>2015-09-09T13:13:44Z</time>
      </trkpt>
      <trkpt lat="43.73905" lon="3.53052">
        <ele>337.23722207881</ele>
        <time>2015-09-09T13:13:47Z</time>
      </trkpt>
      <trkpt lat="43.73913" lon="3.53051">
        <ele>337.23722207881</ele>
        <time>2015-09-09T13:13:52Z</time>
      </trkpt>
      <trkpt lat="43.73931" lon="3.53049">
        <ele>339.01726160943</ele>
        <time>2015-09-09T13:14:09Z</time>
      </trkpt>
      <trkpt lat="43.73948" lon="3.53019">
        <ele>340.69597557202</ele>
        <time>2015-09-09T13:14:38Z</time>
      </trkpt>
      <trkpt lat="43.73948" lon="3.53013">
        <ele>340.69597557202</ele>
        <time>2015-09-09T13:14:38Z</time>
      </trkpt>
      <trkpt lat="43.73947" lon="3.53006">
        <ele>342.03531065616</ele>
        <time>2015-09-09T13:14:44Z</time>
      </trkpt>
      <trkpt lat="43.73947" lon="3.53003">
        <ele>342.03531065616</ele>
        <time>2015-09-09T13:14:47Z</time>
      </trkpt>
      <trkpt lat="43.73947" lon="3.52998">
        <ele>342.03531065616</ele>
        <time>2015-09-09T13:14:52Z</time>
      </trkpt>
      <trkpt lat="43.73947" lon="3.52991">
        <ele>343.03188921766</ele>
        <time>2015-09-09T13:15:00Z</time>
      </trkpt>
      <trkpt lat="43.73946" lon="3.52989">
        <ele>343.03188921766</ele>
        <time>2015-09-09T13:15:08Z</time>
      </trkpt>
      <trkpt lat="43.73946" lon="3.52976">
        <ele>343.62596105569</ele>
        <time>2015-09-09T13:15:18Z</time>
      </trkpt>
      <trkpt lat="43.73947" lon="3.52962">
        <ele>343.97951389282</ele>
        <time>2015-09-09T13:15:28Z</time>
      </trkpt>
      <trkpt lat="43.73946" lon="3.52931">
        <ele>343.99836271395</ele>
        <time>2015-09-09T13:15:39Z</time>
      </trkpt>
      <trkpt lat="43.73948" lon="3.52923">
        <ele>343.99836271395</ele>
        <time>2015-09-09T13:15:44Z</time>
      </trkpt>
      <trkpt lat="43.7395" lon="3.52921">
        <ele>343.99836271395</ele>
        <time>2015-09-09T13:15:54Z</time>
      </trkpt>
      <trkpt lat="43.73952" lon="3.52899">
        <ele>343.99971929867</ele>
        <time>2015-09-09T13:15:54Z</time>
      </trkpt>
      <trkpt lat="43.73953" lon="3.52894">
        <ele>343.99971929867</ele>
        <time>2015-09-09T13:15:57Z</time>
      </trkpt>
      <trkpt lat="43.73956" lon="3.52877">
        <ele>343.77316658605</ele>
        <time>2015-09-09T13:16:08Z</time>
      </trkpt>
      <trkpt lat="43.73963" lon="3.5283">
        <ele>343.42701586911</ele>
        <time>2015-09-09T13:16:44Z</time>
      </trkpt>
      <trkpt lat="43.73964" lon="3.52827">
        <ele>343.42701586911</ele>
        <time>2015-09-09T13:16:54Z</time>
      </trkpt>
      <trkpt lat="43.73971" lon="3.52776">
        <ele>342.67284013934</ele>
        <time>2015-09-09T13:17:12Z</time>
      </trkpt>
      <trkpt lat="43.73968" lon="3.52723">
        <ele>341.57596696873</ele>
        <time>2015-09-09T13:17:43Z</time>
      </trkpt>
      <trkpt lat="43.73967" lon="3.52715">
        <ele>341.57596696873</ele>
        <time>2015-09-09T13:17:47Z</time>
      </trkpt>
      <trkpt lat="43.73966" lon="3.52706">
        <ele>340.32753600093</ele>
        <time>2015-09-09T13:17:52Z</time>
      </trkpt>
      <trkpt lat="43.73949" lon="3.52609">
        <ele>338.38444613345</ele>
        <time>2015-09-09T13:18:53Z</time>
      </trkpt>
      <trkpt lat="43.73947" lon="3.52602">
        <ele>338.38444613345</ele>
        <time>2015-09-09T13:18:53Z</time>
      </trkpt>
      <trkpt lat="43.73947" lon="3.52599">
        <ele>338.38444613345</ele>
        <time>2015-09-09T13:18:57Z</time>
      </trkpt>
      <trkpt lat="43.73942" lon="3.5257">
        <ele>336.06678530084</ele>
        <time>2015-09-09T13:19:43Z</time>
      </trkpt>
      <trkpt lat="43.73945" lon="3.52565">
        <ele>336.06678530084</ele>
        <time>2015-09-09T13:19:48Z</time>
      </trkpt>
      <trkpt lat="43.73945" lon="3.52559">
        <ele>336.06678530084</ele>
        <time>2015-09-09T13:19:58Z</time>
      </trkpt>
      <trkpt lat="43.73936" lon="3.52512">
        <ele>333.35502322815</ele>
        <time>2015-09-09T13:20:17Z</time>
      </trkpt>
      <trkpt lat="43.73939" lon="3.52498">
        <ele>330.75083669932</ele>
        <time>2015-09-09T13:20:29Z</time>
      </trkpt>
      <trkpt lat="43.73936" lon="3.52463">
        <ele>328.18538051118</ele>
        <time>2015-09-09T13:20:53Z</time>
      </trkpt>
      <trkpt lat="43.73937" lon="3.52456">
        <ele>328.18538051118</ele>
        <time>2015-09-09T13:20:53Z</time>
      </trkpt>
      <trkpt lat="43.73929" lon="3.52406">
        <ele>325.37841352183</ele>
        <time>2015-09-09T13:21:22Z</time>
      </trkpt>
      <trkpt lat="43.73927" lon="3.52374">
        <ele>322.64720515951</ele>
        <time>2015-09-09T13:21:47Z</time>
      </trkpt>
      <trkpt lat="43.73927" lon="3.52365">
        <ele>322.64720515951</ele>
        <time>2015-09-09T13:21:52Z</time>
      </trkpt>
      <trkpt lat="43.73938" lon="3.52328">
        <ele>320.09794561811</ele>
        <time>2015-09-09T13:22:22Z</time>
      </trkpt>
      <trkpt lat="43.73941" lon="3.52324">
        <ele>320.09794561811</ele>
        <time>2015-09-09T13:22:34Z</time>
      </trkpt>
      <trkpt lat="43.73967" lon="3.52289">
        <ele>317.71299375794</ele>
        <time>2015-09-09T13:22:57Z</time>
      </trkpt>
      <trkpt lat="43.73989" lon="3.52266">
        <ele>315.46088797754</ele>
        <time>2015-09-09T13:23:27Z</time>
      </trkpt>
      <trkpt lat="43.73988" lon="3.52261">
        <ele>315.46088797754</ele>
        <time>2015-09-09T13:23:49Z</time>
      </trkpt>
      <trkpt lat="43.73987" lon="3.52263">
        <ele>315.46088797754</ele>
        <time>2015-09-09T13:23:58Z</time>
      </trkpt>
      <trkpt lat="43.73982" lon="3.52266">
        <ele>313.31185071473</ele>
        <time>2015-09-09T13:23:58Z</time>
      </trkpt>
      <trkpt lat="43.73978" lon="3.52273">
        <ele>313.31185071473</ele>
        <time>2015-09-09T13:24:05Z</time>
      </trkpt>
      <trkpt lat="43.73979" lon="3.52276">
        <ele>313.31185071473</ele>
        <time>2015-09-09T13:24:07Z</time>
      </trkpt>
      <trkpt lat="43.73976" lon="3.52309">
        <ele>311.43949679715</ele>
        <time>2015-09-09T13:24:32Z</time>
      </trkpt>
      <trkpt lat="43.73981" lon="3.52338">
        <ele>309.62895605322</ele>
        <time>2015-09-09T13:24:56Z</time>
      </trkpt>
      <trkpt lat="43.73981" lon="3.52339">
        <ele>309.62895605322</ele>
        <time>2015-09-09T13:24:57Z</time>
      </trkpt>
      <trkpt lat="43.73989" lon="3.52359">
        <ele>307.89686748264</ele>
        <time>2015-09-09T13:25:09Z</time>
      </trkpt>
      <trkpt lat="43.73993" lon="3.52364">
        <ele>307.89686748264</ele>
        <time>2015-09-09T13:25:15Z</time>
      </trkpt>
      <trkpt lat="43.74004" lon="3.52395">
        <ele>306.02758083937</ele>
        <time>2015-09-09T13:25:33Z</time>
      </trkpt>
      <trkpt lat="43.74005" lon="3.52399">
        <ele>306.02758083937</ele>
        <time>2015-09-09T13:25:43Z</time>
      </trkpt>
      <trkpt lat="43.74004" lon="3.52411">
        <ele>304.31138226474</ele>
        <time>2015-09-09T13:25:47Z</time>
      </trkpt>
      <trkpt lat="43.74009" lon="3.52421">
        <ele>304.31138226474</ele>
        <time>2015-09-09T13:25:56Z</time>
      </trkpt>
      <trkpt lat="43.7401" lon="3.52422">
        <ele>302.67067142884</ele>
        <time>2015-09-09T13:26:00Z</time>
      </trkpt>
      <trkpt lat="43.74012" lon="3.52427">
        <ele>302.67067142884</ele>
        <time>2015-09-09T13:26:05Z</time>
      </trkpt>
      <trkpt lat="43.74012" lon="3.52429">
        <ele>302.67067142884</ele>
        <time>2015-09-09T13:26:07Z</time>
      </trkpt>
      <trkpt lat="43.74022" lon="3.52445">
        <ele>301.49423022052</ele>
        <time>2015-09-09T13:26:29Z</time>
      </trkpt>
      <trkpt lat="43.74023" lon="3.52448">
        <ele>301.49423022052</ele>
        <time>2015-09-09T13:26:32Z</time>
      </trkpt>
      <trkpt lat="43.74026" lon="3.52452">
        <ele>301.49423022052</ele>
        <time>2015-09-09T13:26:37Z</time>
      </trkpt>
      <trkpt lat="43.74027" lon="3.52456">
        <ele>300.5786882535</ele>
        <time>2015-09-09T13:26:42Z</time>
      </trkpt>
      <trkpt lat="43.74031" lon="3.52462">
        <ele>300.5786882535</ele>
        <time>2015-09-09T13:26:47Z</time>
      </trkpt>
      <trkpt lat="43.7403" lon="3.52464">
        <ele>300.5786882535</ele>
        <time>2015-09-09T13:26:52Z</time>
      </trkpt>
      <trkpt lat="43.74033" lon="3.5247">
        <ele>299.67698925884</ele>
        <time>2015-09-09T13:26:57Z</time>
      </trkpt>
      <trkpt lat="43.74037" lon="3.52475">
        <ele>299.67698925884</ele>
        <time>2015-09-09T13:27:02Z</time>
      </trkpt>
      <trkpt lat="43.74041" lon="3.52481">
        <ele>298.77611389979</ele>
        <time>2015-09-09T13:27:07Z</time>
      </trkpt>
      <trkpt lat="43.74045" lon="3.52486">
        <ele>298.77611389979</ele>
        <time>2015-09-09T13:27:12Z</time>
      </trkpt>
      <trkpt lat="43.74049" lon="3.52489">
        <ele>298.15199072631</ele>
        <time>2015-09-09T13:27:17Z</time>
      </trkpt>
      <trkpt lat="43.74053" lon="3.52494">
        <ele>298.15199072631</ele>
        <time>2015-09-09T13:27:22Z</time>
      </trkpt>
      <trkpt lat="43.74056" lon="3.52498">
        <ele>297.67018560321</ele>
        <time>2015-09-09T13:27:27Z</time>
      </trkpt>
      <trkpt lat="43.74062" lon="3.52508">
        <ele>297.39288130287</ele>
        <time>2015-09-09T13:27:32Z</time>
      </trkpt>
      <trkpt lat="43.74064" lon="3.52515">
        <ele>297.39288130287</ele>
        <time>2015-09-09T13:27:37Z</time>
      </trkpt>
      <trkpt lat="43.74068" lon="3.52519">
        <ele>297.42016262294</ele>
        <time>2015-09-09T13:27:42Z</time>
      </trkpt>
      <trkpt lat="43.7407" lon="3.5252">
        <ele>297.42016262294</ele>
        <time>2015-09-09T13:27:47Z</time>
      </trkpt>
      <trkpt lat="43.74073" lon="3.52521">
        <ele>297.42016262294</ele>
        <time>2015-09-09T13:27:52Z</time>
      </trkpt>
      <trkpt lat="43.74085" lon="3.52525">
        <ele>298.62193542668</ele>
        <time>2015-09-09T13:28:06Z</time>
      </trkpt>
      <trkpt lat="43.74085" lon="3.52525">
        <ele>298.62193542668</ele>
        <time>2015-09-09T13:28:07Z</time>
      </trkpt>
      <trkpt lat="43.74089" lon="3.52527">
        <ele>298.62193542668</ele>
        <time>2015-09-09T13:28:22Z</time>
      </trkpt>
      <trkpt lat="43.74111" lon="3.52528">
        <ele>301.20990116423</ele>
        <time>2015-09-09T13:28:37Z</time>
      </trkpt>
      <trkpt lat="43.74131" lon="3.52518">
        <ele>305.16003122232</ele>
        <time>2015-09-09T13:29:07Z</time>
      </trkpt>
      <trkpt lat="43.74141" lon="3.5251">
        <ele>309.49501821578</ele>
        <time>2015-09-09T13:29:16Z</time>
      </trkpt>
      <trkpt lat="43.74156" lon="3.52498">
        <ele>314.05759665936</ele>
        <time>2015-09-09T13:29:27Z</time>
      </trkpt>
      <trkpt lat="43.74161" lon="3.52498">
        <ele>314.05759665936</ele>
        <time>2015-09-09T13:29:32Z</time>
      </trkpt>
      <trkpt lat="43.74165" lon="3.52499">
        <ele>318.62935348264</ele>
        <time>2015-09-09T13:29:37Z</time>
      </trkpt>
      <trkpt lat="43.74167" lon="3.52498">
        <ele>318.62935348264</ele>
        <time>2015-09-09T13:29:42Z</time>
      </trkpt>
      <trkpt lat="43.74169" lon="3.52501">
        <ele>318.62935348264</ele>
        <time>2015-09-09T13:29:47Z</time>
      </trkpt>
      <trkpt lat="43.74171" lon="3.52507">
        <ele>322.99351935284</ele>
        <time>2015-09-09T13:29:53Z</time>
      </trkpt>
      <trkpt lat="43.74173" lon="3.5251">
        <ele>322.99351935284</ele>
        <time>2015-09-09T13:29:57Z</time>
      </trkpt>
      <trkpt lat="43.74173" lon="3.52514">
        <ele>322.99351935284</ele>
        <time>2015-09-09T13:30:02Z</time>
      </trkpt>
      <trkpt lat="43.74173" lon="3.52518">
        <ele>322.99351935284</ele>
        <time>2015-09-09T13:30:09Z</time>
      </trkpt>
      <trkpt lat="43.74173" lon="3.52522">
        <ele>327.45429605753</ele>
        <time>2015-09-09T13:30:14Z</time>
      </trkpt>
      <trkpt lat="43.74173" lon="3.52525">
        <ele>327.45429605753</ele>
        <time>2015-09-09T13:30:18Z</time>
      </trkpt>
      <trkpt lat="43.74172" lon="3.52528">
        <ele>327.45429605753</ele>
        <time>2015-09-09T13:30:22Z</time>
      </trkpt>
      <trkpt lat="43.74181" lon="3.52555">
        <ele>332.1204473632</ele>
        <time>2015-09-09T13:30:54Z</time>
      </trkpt>
      <trkpt lat="43.74188" lon="3.5257">
        <ele>336.65998420624</ele>
        <time>2015-09-09T13:31:00Z</time>
      </trkpt>
      <trkpt lat="43.74188" lon="3.5257">
        <ele>336.65998420624</ele>
        <time>2015-09-09T13:31:07Z</time>
      </trkpt>
      <trkpt lat="43.74191" lon="3.52585">
        <ele>341.12611554978</ele>
        <time>2015-09-09T13:31:14Z</time>
      </trkpt>
      <trkpt lat="43.74184" lon="3.52598">
        <ele>345.68384184897</ele>
        <time>2015-09-09T13:31:37Z</time>
      </trkpt>
      <trkpt lat="43.74182" lon="3.52602">
        <ele>345.68384184897</ele>
        <time>2015-09-09T13:31:43Z</time>
      </trkpt>
      <trkpt lat="43.74183" lon="3.52605">
        <ele>345.68384184897</ele>
        <time>2015-09-09T13:31:52Z</time>
      </trkpt>
      <trkpt lat="43.74199" lon="3.52636">
        <ele>349.95280465466</ele>
        <time>2015-09-09T13:32:06Z</time>
      </trkpt>
      <trkpt lat="43.74203" lon="3.52643">
        <ele>349.95280465466</ele>
        <time>2015-09-09T13:32:07Z</time>
      </trkpt>
      <trkpt lat="43.74206" lon="3.52652">
        <ele>354.25897099454</ele>
        <time>2015-09-09T13:32:15Z</time>
      </trkpt>
      <trkpt lat="43.74212" lon="3.5268">
        <ele>358.41455090667</ele>
        <time>2015-09-09T13:32:38Z</time>
      </trkpt>
      <trkpt lat="43.74214" lon="3.52684">
        <ele>358.41455090667</ele>
        <time>2015-09-09T13:32:45Z</time>
      </trkpt>
      <trkpt lat="43.74238" lon="3.52723">
        <ele>362.40478034498</ele>
        <time>2015-09-09T13:33:12Z</time>
      </trkpt>
      <trkpt lat="43.74245" lon="3.52727">
        <ele>362.40478034498</ele>
        <time>2015-09-09T13:33:24Z</time>
      </trkpt>
      <trkpt lat="43.74249" lon="3.52728">
        <ele>366.10145314858</ele>
        <time>2015-09-09T13:33:27Z</time>
      </trkpt>
      <trkpt lat="43.74253" lon="3.52734">
        <ele>366.10145314858</ele>
        <time>2015-09-09T13:33:36Z</time>
      </trkpt>
      <trkpt lat="43.74254" lon="3.52734">
        <ele>366.10145314858</ele>
        <time>2015-09-09T13:33:38Z</time>
      </trkpt>
      <trkpt lat="43.74257" lon="3.52737">
        <ele>369.58866762816</ele>
        <time>2015-09-09T13:33:42Z</time>
      </trkpt>
      <trkpt lat="43.74263" lon="3.5274">
        <ele>369.58866762816</ele>
        <time>2015-09-09T13:33:47Z</time>
      </trkpt>
      <trkpt lat="43.74275" lon="3.5275">
        <ele>372.9740672463</ele>
        <time>2015-09-09T13:34:12Z</time>
      </trkpt>
      <trkpt lat="43.74282" lon="3.52743">
        <ele>376.1274115277</ele>
        <time>2015-09-09T13:34:42Z</time>
      </trkpt>
      <trkpt lat="43.7429" lon="3.52757">
        <ele>378.78488217829</ele>
        <time>2015-09-09T13:35:19Z</time>
      </trkpt>
      <trkpt lat="43.74291" lon="3.52759">
        <ele>378.78488217829</ele>
        <time>2015-09-09T13:35:27Z</time>
      </trkpt>
      <trkpt lat="43.74296" lon="3.52765">
        <ele>378.78488217829</ele>
        <time>2015-09-09T13:35:27Z</time>
      </trkpt>
      <trkpt lat="43.74301" lon="3.5277">
        <ele>381.15048771318</ele>
        <time>2015-09-09T13:35:47Z</time>
      </trkpt>
      <trkpt lat="43.74318" lon="3.52779">
        <ele>383.37114019587</ele>
        <time>2015-09-09T13:36:17Z</time>
      </trkpt>
      <trkpt lat="43.7432" lon="3.52784">
        <ele>383.37114019587</ele>
        <time>2015-09-09T13:36:26Z</time>
      </trkpt>
      <trkpt lat="43.74329" lon="3.52792">
        <ele>385.41072779696</ele>
        <time>2015-09-09T13:36:37Z</time>
      </trkpt>
      <trkpt lat="43.74336" lon="3.52796">
        <ele>385.41072779696</ele>
        <time>2015-09-09T13:36:47Z</time>
      </trkpt>
      <trkpt lat="43.7435" lon="3.52809">
        <ele>387.46716072788</ele>
        <time>2015-09-09T13:37:16Z</time>
      </trkpt>
      <trkpt lat="43.74353" lon="3.52813">
        <ele>387.46716072788</ele>
        <time>2015-09-09T13:37:17Z</time>
      </trkpt>
      <trkpt lat="43.74368" lon="3.52816">
        <ele>389.42140094557</ele>
        <time>2015-09-09T13:37:47Z</time>
      </trkpt>
      <trkpt lat="43.74369" lon="3.52809">
        <ele>389.42140094557</ele>
        <time>2015-09-09T13:38:00Z</time>
      </trkpt>
      <trkpt lat="43.74364" lon="3.52776">
        <ele>391.36545481135</ele>
        <time>2015-09-09T13:38:24Z</time>
      </trkpt>
      <trkpt lat="43.74352" lon="3.52737">
        <ele>393.41366516629</ele>
        <time>2015-09-09T13:38:52Z</time>
      </trkpt>
      <trkpt lat="43.74344" lon="3.52725">
        <ele>395.45574773199</ele>
        <time>2015-09-09T13:39:17Z</time>
      </trkpt>
      <trkpt lat="43.7434" lon="3.52719">
        <ele>395.45574773199</ele>
        <time>2015-09-09T13:39:28Z</time>
      </trkpt>
      <trkpt lat="43.74337" lon="3.52701">
        <ele>397.47622219268</ele>
        <time>2015-09-09T13:39:47Z</time>
      </trkpt>
      <trkpt lat="43.74341" lon="3.52693">
        <ele>397.47622219268</ele>
        <time>2015-09-09T13:39:52Z</time>
      </trkpt>
      <trkpt lat="43.74339" lon="3.52687">
        <ele>399.36013436199</ele>
        <time>2015-09-09T13:39:57Z</time>
      </trkpt>
      <trkpt lat="43.74338" lon="3.52659">
        <ele>401.145662498</ele>
        <time>2015-09-09T13:40:29Z</time>
      </trkpt>
      <trkpt lat="43.74324" lon="3.52632">
        <ele>402.76775937302</ele>
        <time>2015-09-09T13:40:55Z</time>
      </trkpt>
      <trkpt lat="43.74324" lon="3.5263">
        <ele>402.76775937302</ele>
        <time>2015-09-09T13:40:57Z</time>
      </trkpt>
      <trkpt lat="43.74323" lon="3.52622">
        <ele>402.76775937302</ele>
        <time>2015-09-09T13:41:04Z</time>
      </trkpt>
      <trkpt lat="43.74321" lon="3.52619">
        <ele>404.19560422679</ele>
        <time>2015-09-09T13:41:19Z</time>
      </trkpt>
      <trkpt lat="43.74322" lon="3.52612">
        <ele>404.19560422679</ele>
        <time>2015-09-09T13:41:34Z</time>
      </trkpt>
      <trkpt lat="43.74322" lon="3.52611">
        <ele>404.19560422679</ele>
        <time>2015-09-09T13:41:44Z</time>
      </trkpt>
      <trkpt lat="43.74327" lon="3.52601">
        <ele>405.51662756999</ele>
        <time>2015-09-09T13:41:47Z</time>
      </trkpt>
      <trkpt lat="43.74331" lon="3.52591">
        <ele>405.51662756999</ele>
        <time>2015-09-09T13:41:58Z</time>
      </trkpt>
      <trkpt lat="43.74331" lon="3.52577">
        <ele>406.74022006854</ele>
        <time>2015-09-09T13:42:33Z</time>
      </trkpt>
      <trkpt lat="43.74327" lon="3.5258">
        <ele>406.74022006854</ele>
        <time>2015-09-09T13:42:38Z</time>
      </trkpt>
      <trkpt lat="43.74325" lon="3.52581">
        <ele>406.74022006854</ele>
        <time>2015-09-09T13:42:42Z</time>
      </trkpt>
      <trkpt lat="43.7433" lon="3.52597">
        <ele>408.04841316795</ele>
        <time>2015-09-09T13:42:56Z</time>
      </trkpt>
      <trkpt lat="43.7433" lon="3.52598">
        <ele>408.04841316795</ele>
        <time>2015-09-09T13:42:57Z</time>
      </trkpt>
      <trkpt lat="43.74342" lon="3.52577">
        <ele>409.24946026071</ele>
        <time>2015-09-09T13:43:34Z</time>
      </trkpt>
      <trkpt lat="43.74342" lon="3.52575">
        <ele>409.24946026071</ele>
        <time>2015-09-09T13:43:41Z</time>
      </trkpt>
      <trkpt lat="43.74342" lon="3.52564">
        <ele>410.23815095139</ele>
        <time>2015-09-09T13:43:47Z</time>
      </trkpt>
      <trkpt lat="43.74341" lon="3.52559">
        <ele>410.23815095139</ele>
        <time>2015-09-09T13:43:52Z</time>
      </trkpt>
      <trkpt lat="43.74331" lon="3.52498">
        <ele>411.22031286506</ele>
        <time>2015-09-09T13:44:34Z</time>
      </trkpt>
      <trkpt lat="43.74332" lon="3.52494">
        <ele>411.22031286506</ele>
        <time>2015-09-09T13:44:48Z</time>
      </trkpt>
      <trkpt lat="43.7433" lon="3.52493">
        <ele>411.22031286506</ele>
        <time>2015-09-09T13:45:02Z</time>
      </trkpt>
      <trkpt lat="43.74335" lon="3.52504">
        <ele>412.53084985674</ele>
        <time>2015-09-09T13:45:31Z</time>
      </trkpt>
      <trkpt lat="43.74347" lon="3.52513">
        <ele>413.75864075074</ele>
        <time>2015-09-09T13:45:44Z</time>
      </trkpt>
      <trkpt lat="43.7435" lon="3.52508">
        <ele>413.75864075074</ele>
        <time>2015-09-09T13:45:44Z</time>
      </trkpt>
      <trkpt lat="43.7435" lon="3.52506">
        <ele>413.75864075074</ele>
        <time>2015-09-09T13:45:47Z</time>
      </trkpt>
      <trkpt lat="43.7435" lon="3.52503">
        <ele>413.75864075074</ele>
        <time>2015-09-09T13:45:53Z</time>
      </trkpt>
      <trkpt lat="43.74348" lon="3.52502">
        <ele>414.85449469309</ele>
        <time>2015-09-09T13:45:57Z</time>
      </trkpt>
      <trkpt lat="43.74348" lon="3.52501">
        <ele>414.85449469309</ele>
        <time>2015-09-09T13:46:02Z</time>
      </trkpt>
      <trkpt lat="43.74344" lon="3.52477">
        <ele>416.29203611878</ele>
        <time>2015-09-09T13:46:41Z</time>
      </trkpt>
      <trkpt lat="43.74346" lon="3.52481">
        <ele>416.29203611878</ele>
        <time>2015-09-09T13:46:52Z</time>
      </trkpt>
      <trkpt lat="43.74346" lon="3.52482">
        <ele>416.29203611878</ele>
        <time>2015-09-09T13:46:58Z</time>
      </trkpt>
      <trkpt lat="43.74348" lon="3.52484">
        <ele>416.29203611878</ele>
        <time>2015-09-09T13:47:03Z</time>
      </trkpt>
      <trkpt lat="43.74351" lon="3.52485">
        <ele>418.17770609565</ele>
        <time>2015-09-09T13:47:07Z</time>
      </trkpt>
      <trkpt lat="43.74356" lon="3.52461">
        <ele>419.9171517166</ele>
        <time>2015-09-09T13:47:39Z</time>
      </trkpt>
      <trkpt lat="43.74354" lon="3.52455">
        <ele>419.9171517166</ele>
        <time>2015-09-09T13:47:44Z</time>
      </trkpt>
      <trkpt lat="43.74353" lon="3.52451">
        <ele>419.9171517166</ele>
        <time>2015-09-09T13:47:47Z</time>
      </trkpt>
      <trkpt lat="43.74349" lon="3.52446">
        <ele>421.4500791136</ele>
        <time>2015-09-09T13:47:53Z</time>
      </trkpt>
      <trkpt lat="43.74352" lon="3.52433">
        <ele>422.96619731566</ele>
        <time>2015-09-09T13:48:04Z</time>
      </trkpt>
      <trkpt lat="43.74352" lon="3.52432">
        <ele>422.96619731566</ele>
        <time>2015-09-09T13:48:04Z</time>
      </trkpt>
      <trkpt lat="43.74357" lon="3.52421">
        <ele>424.48280529699</ele>
        <time>2015-09-09T13:48:16Z</time>
      </trkpt>
      <trkpt lat="43.7436" lon="3.52415">
        <ele>424.48280529699</ele>
        <time>2015-09-09T13:48:16Z</time>
      </trkpt>
      <trkpt lat="43.74365" lon="3.5241">
        <ele>426.16003757913</ele>
        <time>2015-09-09T13:48:30Z</time>
      </trkpt>
      <trkpt lat="43.7437" lon="3.52404">
        <ele>426.16003757913</ele>
        <time>2015-09-09T13:48:32Z</time>
      </trkpt>
      <trkpt lat="43.74395" lon="3.52378">
        <ele>427.71347330272</ele>
        <time>2015-09-09T13:48:39Z</time>
      </trkpt>
      <trkpt lat="43.744" lon="3.52369">
        <ele>427.71347330272</ele>
        <time>2015-09-09T13:48:49Z</time>
      </trkpt>
      <trkpt lat="43.7437" lon="3.52379">
        <ele>428.50523011241</ele>
        <time>2015-09-09T13:49:02Z</time>
      </trkpt>
      <trkpt lat="43.74377" lon="3.52343">
        <ele>429.27222464146</ele>
        <time>2015-09-09T13:49:27Z</time>
      </trkpt>
      <trkpt lat="43.74376" lon="3.52328">
        <ele>429.97672771328</ele>
        <time>2015-09-09T13:49:39Z</time>
      </trkpt>
      <trkpt lat="43.74377" lon="3.52321">
        <ele>429.97672771328</ele>
        <time>2015-09-09T13:49:44Z</time>
      </trkpt>
      <trkpt lat="43.74376" lon="3.52316">
        <ele>429.97672771328</ele>
        <time>2015-09-09T13:49:47Z</time>
      </trkpt>
      <trkpt lat="43.74373" lon="3.52309">
        <ele>430.69921176008</ele>
        <time>2015-09-09T13:49:52Z</time>
      </trkpt>
      <trkpt lat="43.74375" lon="3.52296">
        <ele>431.51414460771</ele>
        <time>2015-09-09T13:50:05Z</time>
      </trkpt>
      <trkpt lat="43.74376" lon="3.52295">
        <ele>431.51414460771</ele>
        <time>2015-09-09T13:50:12Z</time>
      </trkpt>
      <trkpt lat="43.74398" lon="3.52286">
        <ele>432.83608161636</ele>
        <time>2015-09-09T13:50:27Z</time>
      </trkpt>
      <trkpt lat="43.74403" lon="3.52278">
        <ele>432.83608161636</ele>
        <time>2015-09-09T13:50:32Z</time>
      </trkpt>
      <trkpt lat="43.74409" lon="3.52272">
        <ele>435.7682065766</ele>
        <time>2015-09-09T13:50:37Z</time>
      </trkpt>
      <trkpt lat="43.74414" lon="3.5227">
        <ele>435.7682065766</ele>
        <time>2015-09-09T13:50:42Z</time>
      </trkpt>
      <trkpt lat="43.74417" lon="3.52266">
        <ele>440.04550904641</ele>
        <time>2015-09-09T13:50:47Z</time>
      </trkpt>
      <trkpt lat="43.7442" lon="3.5226">
        <ele>440.04550904641</ele>
        <time>2015-09-09T13:50:52Z</time>
      </trkpt>
      <trkpt lat="43.74423" lon="3.52254">
        <ele>444.87101210703</ele>
        <time>2015-09-09T13:50:58Z</time>
      </trkpt>
      <trkpt lat="43.74426" lon="3.52248">
        <ele>444.87101210703</ele>
        <time>2015-09-09T13:51:03Z</time>
      </trkpt>
      <trkpt lat="43.74429" lon="3.52242">
        <ele>449.64883691517</ele>
        <time>2015-09-09T13:51:10Z</time>
      </trkpt>
      <trkpt lat="43.74439" lon="3.5223">
        <ele>454.21611232189</ele>
        <time>2015-09-09T13:51:22Z</time>
      </trkpt>
      <trkpt lat="43.74443" lon="3.52228">
        <ele>454.21611232189</ele>
        <time>2015-09-09T13:51:27Z</time>
      </trkpt>
      <trkpt lat="43.74447" lon="3.52226">
        <ele>454.21611232189</ele>
        <time>2015-09-09T13:51:32Z</time>
      </trkpt>
      <trkpt lat="43.74451" lon="3.52221">
        <ele>458.50901181542</ele>
        <time>2015-09-09T13:51:37Z</time>
      </trkpt>
      <trkpt lat="43.74454" lon="3.5222">
        <ele>458.50901181542</ele>
        <time>2015-09-09T13:51:42Z</time>
      </trkpt>
      <trkpt lat="43.74455" lon="3.52219">
        <ele>458.50901181542</ele>
        <time>2015-09-09T13:51:47Z</time>
      </trkpt>
      <trkpt lat="43.7446" lon="3.52216">
        <ele>462.46920961877</ele>
        <time>2015-09-09T13:51:52Z</time>
      </trkpt>
      <trkpt lat="43.74465" lon="3.52219">
        <ele>462.46920961877</ele>
        <time>2015-09-09T13:51:57Z</time>
      </trkpt>
      <trkpt lat="43.74474" lon="3.52218">
        <ele>465.92836682079</ele>
        <time>2015-09-09T13:52:02Z</time>
      </trkpt>
      <trkpt lat="43.74478" lon="3.52217">
        <ele>465.92836682079</ele>
        <time>2015-09-09T13:52:10Z</time>
      </trkpt>
      <trkpt lat="43.74495" lon="3.52217">
        <ele>468.90491858603</ele>
        <time>2015-09-09T13:52:22Z</time>
      </trkpt>
      <trkpt lat="43.74508" lon="3.52218">
        <ele>471.59030898271</ele>
        <time>2015-09-09T13:52:35Z</time>
      </trkpt>
      <trkpt lat="43.74511" lon="3.52217">
        <ele>471.59030898271</ele>
        <time>2015-09-09T13:52:35Z</time>
      </trkpt>
      <trkpt lat="43.74513" lon="3.52217">
        <ele>471.59030898271</ele>
        <time>2015-09-09T13:52:37Z</time>
      </trkpt>
      <trkpt lat="43.74519" lon="3.52211">
        <ele>474.10516990148</ele>
        <time>2015-09-09T13:52:47Z</time>
      </trkpt>
      <trkpt lat="43.74527" lon="3.52205">
        <ele>476.4753620222</ele>
        <time>2015-09-09T13:52:53Z</time>
      </trkpt>
      <trkpt lat="43.74529" lon="3.52204">
        <ele>476.4753620222</ele>
        <time>2015-09-09T13:53:03Z</time>
      </trkpt>
      <trkpt lat="43.74539" lon="3.52199">
        <ele>478.99914007233</ele>
        <time>2015-09-09T13:53:07Z</time>
      </trkpt>
      <trkpt lat="43.74548" lon="3.52197">
        <ele>478.99914007233</ele>
        <time>2015-09-09T13:53:24Z</time>
      </trkpt>
      <trkpt lat="43.74548" lon="3.52199">
        <ele>481.15988010549</ele>
        <time>2015-09-09T13:53:29Z</time>
      </trkpt>
      <trkpt lat="43.74552" lon="3.52199">
        <ele>481.15988010549</ele>
        <time>2015-09-09T13:53:35Z</time>
      </trkpt>
      <trkpt lat="43.74553" lon="3.52199">
        <ele>481.15988010549</ele>
        <time>2015-09-09T13:53:37Z</time>
      </trkpt>
      <trkpt lat="43.7455" lon="3.52194">
        <ele>483.22937447861</ele>
        <time>2015-09-09T13:53:44Z</time>
      </trkpt>
      <trkpt lat="43.74549" lon="3.52193">
        <ele>483.22937447861</ele>
        <time>2015-09-09T13:53:47Z</time>
      </trkpt>
      <trkpt lat="43.74548" lon="3.52192">
        <ele>483.22937447861</ele>
        <time>2015-09-09T13:53:52Z</time>
      </trkpt>
      <trkpt lat="43.74546" lon="3.52194">
        <ele>483.22937447861</ele>
        <time>2015-09-09T13:54:04Z</time>
      </trkpt>
      <trkpt lat="43.7455" lon="3.52197">
        <ele>483.22937447861</ele>
        <time>2015-09-09T13:54:27Z</time>
      </trkpt>
      <trkpt lat="43.74558" lon="3.52209">
        <ele>485.01302468099</ele>
        <time>2015-09-09T13:54:36Z</time>
      </trkpt>
      <trkpt lat="43.74559" lon="3.52211">
        <ele>485.01302468099</ele>
        <time>2015-09-09T13:54:37Z</time>
      </trkpt>
      <trkpt lat="43.74562" lon="3.52215">
        <ele>485.01302468099</ele>
        <time>2015-09-09T13:54:48Z</time>
      </trkpt>
      <trkpt lat="43.74564" lon="3.52223">
        <ele>486.56196381683</ele>
        <time>2015-09-09T13:54:52Z</time>
      </trkpt>
      <trkpt lat="43.74565" lon="3.52234">
        <ele>486.56196381683</ele>
        <time>2015-09-09T13:55:02Z</time>
      </trkpt>
      <trkpt lat="43.74563" lon="3.52248">
        <ele>487.89545344384</ele>
        <time>2015-09-09T13:55:10Z</time>
      </trkpt>
      <trkpt lat="43.74563" lon="3.52253">
        <ele>487.89545344384</ele>
        <time>2015-09-09T13:55:13Z</time>
      </trkpt>
      <trkpt lat="43.74565" lon="3.52285">
        <ele>489.07521682356</ele>
        <time>2015-09-09T13:55:32Z</time>
      </trkpt>
      <trkpt lat="43.74562" lon="3.52297">
        <ele>490.01479116583</ele>
        <time>2015-09-09T13:55:40Z</time>
      </trkpt>
      <trkpt lat="43.74562" lon="3.523">
        <ele>490.01479116583</ele>
        <time>2015-09-09T13:55:42Z</time>
      </trkpt>
      <trkpt lat="43.74562" lon="3.52312">
        <ele>490.70681064442</ele>
        <time>2015-09-09T13:55:47Z</time>
      </trkpt>
      <trkpt lat="43.74563" lon="3.52324">
        <ele>490.70681064442</ele>
        <time>2015-09-09T13:55:52Z</time>
      </trkpt>
      <trkpt lat="43.74559" lon="3.52332">
        <ele>491.17397039198</ele>
        <time>2015-09-09T13:55:57Z</time>
      </trkpt>
      <trkpt lat="43.74554" lon="3.52338">
        <ele>491.17397039198</ele>
        <time>2015-09-09T13:56:02Z</time>
      </trkpt>
      <trkpt lat="43.74551" lon="3.52346">
        <ele>491.32262942659</ele>
        <time>2015-09-09T13:56:07Z</time>
      </trkpt>
      <trkpt lat="43.74553" lon="3.52365">
        <ele>491.11012638917</ele>
        <time>2015-09-09T13:56:30Z</time>
      </trkpt>
      <trkpt lat="43.74562" lon="3.52381">
        <ele>490.58437118945</ele>
        <time>2015-09-09T13:56:32Z</time>
      </trkpt>
      <trkpt lat="43.74568" lon="3.52386">
        <ele>490.58437118945</ele>
        <time>2015-09-09T13:56:37Z</time>
      </trkpt>
      <trkpt lat="43.74575" lon="3.52396">
        <ele>489.87703980728</ele>
        <time>2015-09-09T13:56:47Z</time>
      </trkpt>
      <trkpt lat="43.74599" lon="3.52421">
        <ele>488.76469928173</ele>
        <time>2015-09-09T13:57:06Z</time>
      </trkpt>
      <trkpt lat="43.74586" lon="3.52452">
        <ele>487.56016835734</ele>
        <time>2015-09-09T13:57:42Z</time>
      </trkpt>
      <trkpt lat="43.74581" lon="3.52454">
        <ele>487.56016835734</ele>
        <time>2015-09-09T13:57:48Z</time>
      </trkpt>
      <trkpt lat="43.7458" lon="3.5246">
        <ele>486.4381389881</ele>
        <time>2015-09-09T13:57:52Z</time>
      </trkpt>
      <trkpt lat="43.74574" lon="3.52489">
        <ele>485.57451508337</ele>
        <time>2015-09-09T13:58:12Z</time>
      </trkpt>
      <trkpt lat="43.74566" lon="3.52534">
        <ele>485.07375866943</ele>
        <time>2015-09-09T13:58:42Z</time>
      </trkpt>
      <trkpt lat="43.74565" lon="3.52545">
        <ele>485.07375866943</ele>
        <time>2015-09-09T13:58:55Z</time>
      </trkpt>
      <trkpt lat="43.74568" lon="3.52569">
        <ele>485.04588827915</ele>
        <time>2015-09-09T13:59:02Z</time>
      </trkpt>
      <trkpt lat="43.74569" lon="3.52586">
        <ele>485.07254212665</ele>
        <time>2015-09-09T13:59:10Z</time>
      </trkpt>
      <trkpt lat="43.74571" lon="3.52591">
        <ele>485.07254212665</ele>
        <time>2015-09-09T13:59:12Z</time>
      </trkpt>
      <trkpt lat="43.74578" lon="3.5265">
        <ele>485.6448401127</ele>
        <time>2015-09-09T13:59:45Z</time>
      </trkpt>
      <trkpt lat="43.74578" lon="3.52653">
        <ele>485.6448401127</ele>
        <time>2015-09-09T13:59:47Z</time>
      </trkpt>
      <trkpt lat="43.74577" lon="3.52667">
        <ele>486.39468334846</ele>
        <time>2015-09-09T13:59:57Z</time>
      </trkpt>
      <trkpt lat="43.74577" lon="3.52672">
        <ele>486.39468334846</ele>
        <time>2015-09-09T14:00:04Z</time>
      </trkpt>
      <trkpt lat="43.74584" lon="3.52685">
        <ele>487.26856242393</ele>
        <time>2015-09-09T14:00:07Z</time>
      </trkpt>
      <trkpt lat="43.74587" lon="3.52694">
        <ele>487.26856242393</ele>
        <time>2015-09-09T14:00:12Z</time>
      </trkpt>
      <trkpt lat="43.74589" lon="3.52704">
        <ele>488.11550179068</ele>
        <time>2015-09-09T14:00:17Z</time>
      </trkpt>
      <trkpt lat="43.74594" lon="3.52713">
        <ele>488.11550179068</ele>
        <time>2015-09-09T14:00:22Z</time>
      </trkpt>
      <trkpt lat="43.74601" lon="3.52719">
        <ele>488.93963755066</ele>
        <time>2015-09-09T14:00:27Z</time>
      </trkpt>
      <trkpt lat="43.74607" lon="3.52729">
        <ele>489.62941706554</ele>
        <time>2015-09-09T14:00:32Z</time>
      </trkpt>
      <trkpt lat="43.74615" lon="3.52737">
        <ele>490.19699363344</ele>
        <time>2015-09-09T14:00:37Z</time>
      </trkpt>
      <trkpt lat="43.74621" lon="3.52743">
        <ele>490.19699363344</ele>
        <time>2015-09-09T14:00:42Z</time>
      </trkpt>
      <trkpt lat="43.74625" lon="3.52745">
        <ele>490.59617631276</ele>
        <time>2015-09-09T14:00:47Z</time>
      </trkpt>
      <trkpt lat="43.74629" lon="3.52749">
        <ele>490.59617631276</ele>
        <time>2015-09-09T14:00:52Z</time>
      </trkpt>
      <trkpt lat="43.74635" lon="3.52755">
        <ele>490.84213810449</ele>
        <time>2015-09-09T14:00:57Z</time>
      </trkpt>
      <trkpt lat="43.74639" lon="3.52757">
        <ele>490.84213810449</ele>
        <time>2015-09-09T14:01:02Z</time>
      </trkpt>
      <trkpt lat="43.74644" lon="3.52761">
        <ele>490.80511241854</ele>
        <time>2015-09-09T14:01:07Z</time>
      </trkpt>
      <trkpt lat="43.7465" lon="3.52765">
        <ele>490.80511241854</ele>
        <time>2015-09-09T14:01:12Z</time>
      </trkpt>
      <trkpt lat="43.74657" lon="3.52767">
        <ele>490.45198307805</ele>
        <time>2015-09-09T14:01:17Z</time>
      </trkpt>
      <trkpt lat="43.74687" lon="3.52777">
        <ele>489.63752065018</ele>
        <time>2015-09-09T14:01:42Z</time>
      </trkpt>
      <trkpt lat="43.74692" lon="3.52781">
        <ele>489.63752065018</ele>
        <time>2015-09-09T14:01:47Z</time>
      </trkpt>
      <trkpt lat="43.74707" lon="3.52786">
        <ele>488.60300063471</ele>
        <time>2015-09-09T14:01:52Z</time>
      </trkpt>
      <trkpt lat="43.74718" lon="3.52789">
        <ele>486.9527615189</ele>
        <time>2015-09-09T14:01:57Z</time>
      </trkpt>
      <trkpt lat="43.74722" lon="3.52792">
        <ele>486.9527615189</ele>
        <time>2015-09-09T14:02:02Z</time>
      </trkpt>
      <trkpt lat="43.74724" lon="3.52796">
        <ele>486.9527615189</ele>
        <time>2015-09-09T14:02:07Z</time>
      </trkpt>
      <trkpt lat="43.74727" lon="3.528">
        <ele>484.89821836218</ele>
        <time>2015-09-09T14:02:12Z</time>
      </trkpt>
      <trkpt lat="43.7473" lon="3.52803">
        <ele>484.89821836218</ele>
        <time>2015-09-09T14:02:17Z</time>
      </trkpt>
      <trkpt lat="43.74732" lon="3.52805">
        <ele>484.89821836218</ele>
        <time>2015-09-09T14:02:22Z</time>
      </trkpt>
      <trkpt lat="43.74734" lon="3.52808">
        <ele>482.80915306294</ele>
        <time>2015-09-09T14:02:27Z</time>
      </trkpt>
      <trkpt lat="43.74734" lon="3.52808">
        <ele>482.80915306294</ele>
        <time>2015-09-09T14:02:32Z</time>
      </trkpt>
      <trkpt lat="43.74738" lon="3.52813">
        <ele>482.80915306294</ele>
        <time>2015-09-09T14:02:42Z</time>
      </trkpt>
      <trkpt lat="43.74739" lon="3.52812">
        <ele>482.80915306294</ele>
        <time>2015-09-09T14:02:47Z</time>
      </trkpt>
      <trkpt lat="43.74745" lon="3.52817">
        <ele>480.71105446304</ele>
        <time>2015-09-09T14:03:07Z</time>
      </trkpt>
      <trkpt lat="43.7476" lon="3.52827">
        <ele>478.54090476937</ele>
        <time>2015-09-09T14:03:22Z</time>
      </trkpt>
      <trkpt lat="43.74774" lon="3.52827">
        <ele>476.35560281074</ele>
        <time>2015-09-09T14:03:32Z</time>
      </trkpt>
      <trkpt lat="43.74782" lon="3.52827">
        <ele>476.35560281074</ele>
        <time>2015-09-09T14:03:42Z</time>
      </trkpt>
      <trkpt lat="43.74788" lon="3.52827">
        <ele>474.35180836587</ele>
        <time>2015-09-09T14:03:47Z</time>
      </trkpt>
      <trkpt lat="43.74799" lon="3.52831">
        <ele>472.53807160774</ele>
        <time>2015-09-09T14:03:52Z</time>
      </trkpt>
      <trkpt lat="43.74802" lon="3.52834">
        <ele>472.53807160774</ele>
        <time>2015-09-09T14:03:57Z</time>
      </trkpt>
      <trkpt lat="43.74808" lon="3.52839">
        <ele>470.84949977239</ele>
        <time>2015-09-09T14:04:02Z</time>
      </trkpt>
      <trkpt lat="43.74812" lon="3.52844">
        <ele>470.84949977239</ele>
        <time>2015-09-09T14:04:07Z</time>
      </trkpt>
      <trkpt lat="43.74813" lon="3.52848">
        <ele>470.84949977239</ele>
        <time>2015-09-09T14:04:12Z</time>
      </trkpt>
      <trkpt lat="43.74818" lon="3.52868">
        <ele>469.12450840769</ele>
        <time>2015-09-09T14:04:22Z</time>
      </trkpt>
      <trkpt lat="43.74821" lon="3.52877">
        <ele>469.12450840769</ele>
        <time>2015-09-09T14:04:27Z</time>
      </trkpt>
      <trkpt lat="43.74821" lon="3.52885">
        <ele>467.51588721885</ele>
        <time>2015-09-09T14:04:32Z</time>
      </trkpt>
      <trkpt lat="43.74821" lon="3.52894">
        <ele>467.51588721885</ele>
        <time>2015-09-09T14:04:37Z</time>
      </trkpt>
      <trkpt lat="43.74822" lon="3.52901">
        <ele>465.97729964876</ele>
        <time>2015-09-09T14:04:42Z</time>
      </trkpt>
      <trkpt lat="43.74821" lon="3.52909">
        <ele>465.97729964876</ele>
        <time>2015-09-09T14:04:47Z</time>
      </trkpt>
      <trkpt lat="43.7482" lon="3.52915">
        <ele>464.46538617245</ele>
        <time>2015-09-09T14:04:52Z</time>
      </trkpt>
      <trkpt lat="43.74821" lon="3.52923">
        <ele>464.46538617245</ele>
        <time>2015-09-09T14:04:57Z</time>
      </trkpt>
      <trkpt lat="43.74822" lon="3.52929">
        <ele>463.170247554</ele>
        <time>2015-09-09T14:05:02Z</time>
      </trkpt>
      <trkpt lat="43.74822" lon="3.52939">
        <ele>463.170247554</ele>
        <time>2015-09-09T14:05:07Z</time>
      </trkpt>
      <trkpt lat="43.74821" lon="3.52946">
        <ele>462.19513240077</ele>
        <time>2015-09-09T14:05:12Z</time>
      </trkpt>
      <trkpt lat="43.74821" lon="3.52953">
        <ele>462.19513240077</ele>
        <time>2015-09-09T14:05:17Z</time>
      </trkpt>
      <trkpt lat="43.74818" lon="3.52962">
        <ele>461.3896000568</ele>
        <time>2015-09-09T14:05:22Z</time>
      </trkpt>
      <trkpt lat="43.74817" lon="3.52965">
        <ele>461.3896000568</ele>
        <time>2015-09-09T14:05:29Z</time>
      </trkpt>
      <trkpt lat="43.74816" lon="3.52967">
        <ele>461.3896000568</ele>
        <time>2015-09-09T14:05:33Z</time>
      </trkpt>
      <trkpt lat="43.74808" lon="3.52967">
        <ele>460.844153196</ele>
        <time>2015-09-09T14:05:38Z</time>
      </trkpt>
      <trkpt lat="43.74806" lon="3.52966">
        <ele>460.844153196</ele>
        <time>2015-09-09T14:05:49Z</time>
      </trkpt>
      <trkpt lat="43.74795" lon="3.52963">
        <ele>460.61289434324</ele>
        <time>2015-09-09T14:05:52Z</time>
      </trkpt>
      <trkpt lat="43.74789" lon="3.52962">
        <ele>460.61289434324</ele>
        <time>2015-09-09T14:06:00Z</time>
      </trkpt>
      <trkpt lat="43.74783" lon="3.52959">
        <ele>460.49989312046</ele>
        <time>2015-09-09T14:06:02Z</time>
      </trkpt>
      <trkpt lat="43.74778" lon="3.52955">
        <ele>460.49989312046</ele>
        <time>2015-09-09T14:06:08Z</time>
      </trkpt>
      <trkpt lat="43.74774" lon="3.52953">
        <ele>460.52486107193</ele>
        <time>2015-09-09T14:06:13Z</time>
      </trkpt>
      <trkpt lat="43.74765" lon="3.52952">
        <ele>460.52486107193</ele>
        <time>2015-09-09T14:06:17Z</time>
      </trkpt>
      <trkpt lat="43.74759" lon="3.52953">
        <ele>460.69110315441</ele>
        <time>2015-09-09T14:06:22Z</time>
      </trkpt>
      <trkpt lat="43.74753" lon="3.52954">
        <ele>460.69110315441</ele>
        <time>2015-09-09T14:06:27Z</time>
      </trkpt>
      <trkpt lat="43.74749" lon="3.52956">
        <ele>461.02996231798</ele>
        <time>2015-09-09T14:06:32Z</time>
      </trkpt>
      <trkpt lat="43.74741" lon="3.52965">
        <ele>461.4545764235</ele>
        <time>2015-09-09T14:06:39Z</time>
      </trkpt>
      <trkpt lat="43.74741" lon="3.52966">
        <ele>461.4545764235</ele>
        <time>2015-09-09T14:06:48Z</time>
      </trkpt>
      <trkpt lat="43.74731" lon="3.52981">
        <ele>461.95616564448</ele>
        <time>2015-09-09T14:06:52Z</time>
      </trkpt>
      <trkpt lat="43.74726" lon="3.52987">
        <ele>461.95616564448</ele>
        <time>2015-09-09T14:06:58Z</time>
      </trkpt>
      <trkpt lat="43.74722" lon="3.5299">
        <ele>462.48304820628</ele>
        <time>2015-09-09T14:07:13Z</time>
      </trkpt>
      <trkpt lat="43.74706" lon="3.52985">
        <ele>463.13129725038</ele>
        <time>2015-09-09T14:07:21Z</time>
      </trkpt>
      <trkpt lat="43.74705" lon="3.52986">
        <ele>463.13129725038</ele>
        <time>2015-09-09T14:07:22Z</time>
      </trkpt>
      <trkpt lat="43.74701" lon="3.52985">
        <ele>463.13129725038</ele>
        <time>2015-09-09T14:07:29Z</time>
      </trkpt>
      <trkpt lat="43.74696" lon="3.52983">
        <ele>463.9606995864</ele>
        <time>2015-09-09T14:07:33Z</time>
      </trkpt>
      <trkpt lat="43.74692" lon="3.52982">
        <ele>463.9606995864</ele>
        <time>2015-09-09T14:07:37Z</time>
      </trkpt>
      <trkpt lat="43.74681" lon="3.52978">
        <ele>464.9396246474</ele>
        <time>2015-09-09T14:07:46Z</time>
      </trkpt>
      <trkpt lat="43.7467" lon="3.52976">
        <ele>465.86537728159</ele>
        <time>2015-09-09T14:07:54Z</time>
      </trkpt>
      <trkpt lat="43.74666" lon="3.52977">
        <ele>465.86537728159</ele>
        <time>2015-09-09T14:08:00Z</time>
      </trkpt>
      <trkpt lat="43.74655" lon="3.52981">
        <ele>466.737625494</ele>
        <time>2015-09-09T14:08:02Z</time>
      </trkpt>
      <trkpt lat="43.7465" lon="3.52984">
        <ele>466.737625494</ele>
        <time>2015-09-09T14:08:07Z</time>
      </trkpt>
      <trkpt lat="43.74637" lon="3.52997">
        <ele>467.42650520427</ele>
        <time>2015-09-09T14:08:19Z</time>
      </trkpt>
      <trkpt lat="43.74637" lon="3.53">
        <ele>467.42650520427</ele>
        <time>2015-09-09T14:08:21Z</time>
      </trkpt>
      <trkpt lat="43.74638" lon="3.53003">
        <ele>467.42650520427</ele>
        <time>2015-09-09T14:08:22Z</time>
      </trkpt>
      <trkpt lat="43.74642" lon="3.53042">
        <ele>467.61045601779</ele>
        <time>2015-09-09T14:08:47Z</time>
      </trkpt>
      <trkpt lat="43.74648" lon="3.53051">
        <ele>467.61045601779</ele>
        <time>2015-09-09T14:08:52Z</time>
      </trkpt>
      <trkpt lat="43.7465" lon="3.53057">
        <ele>467.78558178495</ele>
        <time>2015-09-09T14:08:57Z</time>
      </trkpt>
      <trkpt lat="43.74654" lon="3.53065">
        <ele>467.78558178495</ele>
        <time>2015-09-09T14:09:03Z</time>
      </trkpt>
      <trkpt lat="43.74656" lon="3.53071">
        <ele>467.90720043627</ele>
        <time>2015-09-09T14:09:07Z</time>
      </trkpt>
      <trkpt lat="43.74664" lon="3.53096">
        <ele>467.83321129706</ele>
        <time>2015-09-09T14:09:22Z</time>
      </trkpt>
      <trkpt lat="43.74667" lon="3.53102">
        <ele>467.83321129706</ele>
        <time>2015-09-09T14:09:31Z</time>
      </trkpt>
      <trkpt lat="43.74669" lon="3.53109">
        <ele>467.79280918304</ele>
        <time>2015-09-09T14:09:32Z</time>
      </trkpt>
      <trkpt lat="43.74681" lon="3.5313">
        <ele>467.86859111586</ele>
        <time>2015-09-09T14:09:46Z</time>
      </trkpt>
      <trkpt lat="43.74683" lon="3.53132">
        <ele>467.86859111586</ele>
        <time>2015-09-09T14:09:47Z</time>
      </trkpt>
      <trkpt lat="43.74688" lon="3.53139">
        <ele>467.94945138315</ele>
        <time>2015-09-09T14:09:52Z</time>
      </trkpt>
      <trkpt lat="43.7472" lon="3.53155">
        <ele>468.46568111818</ele>
        <time>2015-09-09T14:10:23Z</time>
      </trkpt>
      <trkpt lat="43.74725" lon="3.53154">
        <ele>468.46568111818</ele>
        <time>2015-09-09T14:10:27Z</time>
      </trkpt>
      <trkpt lat="43.74733" lon="3.53158">
        <ele>469.07981573623</ele>
        <time>2015-09-09T14:10:32Z</time>
      </trkpt>
      <trkpt lat="43.74799" lon="3.53185">
        <ele>469.85364105846</ele>
        <time>2015-09-09T14:11:28Z</time>
      </trkpt>
      <trkpt lat="43.74806" lon="3.53183">
        <ele>469.85364105846</ele>
        <time>2015-09-09T14:11:35Z</time>
      </trkpt>
      <trkpt lat="43.74808" lon="3.5318">
        <ele>470.62784087494</ele>
        <time>2015-09-09T14:11:37Z</time>
      </trkpt>
      <trkpt lat="43.74822" lon="3.53165">
        <ele>471.35573630826</ele>
        <time>2015-09-09T14:11:52Z</time>
      </trkpt>
      <trkpt lat="43.74854" lon="3.53156">
        <ele>472.12397040676</ele>
        <time>2015-09-09T14:12:17Z</time>
      </trkpt>
      <trkpt lat="43.74861" lon="3.53151">
        <ele>472.12397040676</ele>
        <time>2015-09-09T14:12:25Z</time>
      </trkpt>
      <trkpt lat="43.74864" lon="3.5315">
        <ele>472.58044248023</ele>
        <time>2015-09-09T14:12:28Z</time>
      </trkpt>
      <trkpt lat="43.74876" lon="3.53138">
        <ele>472.41427294174</ele>
        <time>2015-09-09T14:12:40Z</time>
      </trkpt>
      <trkpt lat="43.74876" lon="3.53136">
        <ele>472.41427294174</ele>
        <time>2015-09-09T14:12:42Z</time>
      </trkpt>
      <trkpt lat="43.74877" lon="3.53136">
        <ele>472.41427294174</ele>
        <time>2015-09-09T14:12:49Z</time>
      </trkpt>
      <trkpt lat="43.74887" lon="3.53129">
        <ele>471.8436253518</ele>
        <time>2015-09-09T14:13:08Z</time>
      </trkpt>
      <trkpt lat="43.74888" lon="3.53127">
        <ele>471.8436253518</ele>
        <time>2015-09-09T14:13:18Z</time>
      </trkpt>
      <trkpt lat="43.74896" lon="3.53111">
        <ele>471.23036177326</ele>
        <time>2015-09-09T14:13:23Z</time>
      </trkpt>
      <trkpt lat="43.749" lon="3.53105">
        <ele>471.23036177326</ele>
        <time>2015-09-09T14:13:27Z</time>
      </trkpt>
      <trkpt lat="43.74906" lon="3.53098">
        <ele>470.47761041707</ele>
        <time>2015-09-09T14:13:32Z</time>
      </trkpt>
      <trkpt lat="43.74912" lon="3.53092">
        <ele>470.47761041707</ele>
        <time>2015-09-09T14:13:37Z</time>
      </trkpt>
      <trkpt lat="43.74915" lon="3.53085">
        <ele>469.59693967376</ele>
        <time>2015-09-09T14:13:42Z</time>
      </trkpt>
      <trkpt lat="43.74918" lon="3.53079">
        <ele>469.59693967376</ele>
        <time>2015-09-09T14:13:48Z</time>
      </trkpt>
      <trkpt lat="43.74922" lon="3.53073">
        <ele>468.46977335813</ele>
        <time>2015-09-09T14:13:53Z</time>
      </trkpt>
      <trkpt lat="43.74941" lon="3.5304">
        <ele>466.71316252593</ele>
        <time>2015-09-09T14:14:23Z</time>
      </trkpt>
      <trkpt lat="43.74944" lon="3.53033">
        <ele>466.71316252593</ele>
        <time>2015-09-09T14:14:27Z</time>
      </trkpt>
      <trkpt lat="43.74945" lon="3.53017">
        <ele>464.9828587081</ele>
        <time>2015-09-09T14:14:36Z</time>
      </trkpt>
      <trkpt lat="43.74947" lon="3.53017">
        <ele>464.9828587081</ele>
        <time>2015-09-09T14:14:49Z</time>
      </trkpt>
      <trkpt lat="43.7495" lon="3.52999">
        <ele>463.22347017097</ele>
        <time>2015-09-09T14:14:52Z</time>
      </trkpt>
      <trkpt lat="43.74955" lon="3.52984">
        <ele>461.47022256815</ele>
        <time>2015-09-09T14:14:59Z</time>
      </trkpt>
      <trkpt lat="43.74949" lon="3.52951">
        <ele>459.69807938712</ele>
        <time>2015-09-09T14:15:17Z</time>
      </trkpt>
      <trkpt lat="43.7495" lon="3.5294">
        <ele>459.69807938712</ele>
        <time>2015-09-09T14:15:23Z</time>
      </trkpt>
      <trkpt lat="43.74951" lon="3.52933">
        <ele>457.91269380085</ele>
        <time>2015-09-09T14:15:33Z</time>
      </trkpt>
      <trkpt lat="43.74951" lon="3.52926">
        <ele>457.91269380085</ele>
        <time>2015-09-09T14:15:33Z</time>
      </trkpt>
      <trkpt lat="43.74947" lon="3.52899">
        <ele>456.13371624959</ele>
        <time>2015-09-09T14:15:52Z</time>
      </trkpt>
      <trkpt lat="43.74947" lon="3.52887">
        <ele>456.13371624959</ele>
        <time>2015-09-09T14:15:59Z</time>
      </trkpt>
      <trkpt lat="43.74946" lon="3.52842">
        <ele>453.38492113496</ele>
        <time>2015-09-09T14:16:21Z</time>
      </trkpt>
      <trkpt lat="43.74945" lon="3.52839">
        <ele>453.38492113496</ele>
        <time>2015-09-09T14:16:22Z</time>
      </trkpt>
      <trkpt lat="43.74943" lon="3.52827">
        <ele>450.53702403211</ele>
        <time>2015-09-09T14:16:29Z</time>
      </trkpt>
      <trkpt lat="43.7495" lon="3.52807">
        <ele>447.64760510457</ele>
        <time>2015-09-09T14:16:53Z</time>
      </trkpt>
      <trkpt lat="43.74954" lon="3.52805">
        <ele>447.64760510457</ele>
        <time>2015-09-09T14:16:57Z</time>
      </trkpt>
      <trkpt lat="43.74985" lon="3.5278">
        <ele>444.59711012059</ele>
        <time>2015-09-09T14:17:26Z</time>
      </trkpt>
      <trkpt lat="43.74986" lon="3.5278">
        <ele>444.59711012059</ele>
        <time>2015-09-09T14:17:27Z</time>
      </trkpt>
      <trkpt lat="43.7499" lon="3.52778">
        <ele>444.59711012059</ele>
        <time>2015-09-09T14:17:41Z</time>
      </trkpt>
      <trkpt lat="43.75007" lon="3.52776">
        <ele>441.92361732134</ele>
        <time>2015-09-09T14:17:47Z</time>
      </trkpt>
      <trkpt lat="43.75017" lon="3.52762">
        <ele>439.40394984945</ele>
        <time>2015-09-09T14:17:56Z</time>
      </trkpt>
      <trkpt lat="43.75019" lon="3.52757">
        <ele>439.40394984945</ele>
        <time>2015-09-09T14:17:57Z</time>
      </trkpt>
      <trkpt lat="43.75022" lon="3.52747">
        <ele>436.81635697136</ele>
        <time>2015-09-09T14:18:10Z</time>
      </trkpt>
      <trkpt lat="43.75025" lon="3.52737">
        <ele>436.81635697136</ele>
        <time>2015-09-09T14:18:22Z</time>
      </trkpt>
      <trkpt lat="43.75029" lon="3.52732">
        <ele>433.98425536496</ele>
        <time>2015-09-09T14:18:37Z</time>
      </trkpt>
      <trkpt lat="43.75029" lon="3.52731">
        <ele>433.98425536496</ele>
        <time>2015-09-09T14:18:42Z</time>
      </trkpt>
      <trkpt lat="43.75029" lon="3.5272">
        <ele>433.98425536496</ele>
        <time>2015-09-09T14:19:57Z</time>
      </trkpt>
      <trkpt lat="43.7504" lon="3.5272">
        <ele>430.73016453099</ele>
        <time>2015-09-09T14:20:09Z</time>
      </trkpt>
      <trkpt lat="43.75037" lon="3.52717">
        <ele>430.73016453099</ele>
        <time>2015-09-09T14:20:27Z</time>
      </trkpt>
      <trkpt lat="43.75037" lon="3.52712">
        <ele>430.73016453099</ele>
        <time>2015-09-09T14:20:32Z</time>
      </trkpt>
      <trkpt lat="43.75038" lon="3.52704">
        <ele>427.53917352223</ele>
        <time>2015-09-09T14:20:37Z</time>
      </trkpt>
      <trkpt lat="43.75044" lon="3.52684">
        <ele>424.38483243262</ele>
        <time>2015-09-09T14:20:47Z</time>
      </trkpt>
      <trkpt lat="43.75046" lon="3.52682">
        <ele>424.38483243262</ele>
        <time>2015-09-09T14:20:52Z</time>
      </trkpt>
      <trkpt lat="43.75047" lon="3.5268">
        <ele>424.38483243262</ele>
        <time>2015-09-09T14:20:57Z</time>
      </trkpt>
      <trkpt lat="43.75046" lon="3.5268">
        <ele>424.38483243262</ele>
        <time>2015-09-09T14:21:02Z</time>
      </trkpt>
      <trkpt lat="43.75049" lon="3.52671">
        <ele>421.38647376066</ele>
        <time>2015-09-09T14:21:17Z</time>
      </trkpt>
      <trkpt lat="43.75058" lon="3.52667">
        <ele>418.71169519007</ele>
        <time>2015-09-09T14:21:22Z</time>
      </trkpt>
      <trkpt lat="43.75063" lon="3.52663">
        <ele>418.71169519007</ele>
        <time>2015-09-09T14:21:27Z</time>
      </trkpt>
      <trkpt lat="43.75068" lon="3.52658">
        <ele>416.31293956355</ele>
        <time>2015-09-09T14:21:33Z</time>
      </trkpt>
      <trkpt lat="43.75071" lon="3.52654">
        <ele>416.31293956355</ele>
        <time>2015-09-09T14:21:40Z</time>
      </trkpt>
      <trkpt lat="43.75072" lon="3.52654">
        <ele>416.31293956355</ele>
        <time>2015-09-09T14:21:42Z</time>
      </trkpt>
      <trkpt lat="43.75074" lon="3.52655">
        <ele>416.31293956355</ele>
        <time>2015-09-09T14:21:57Z</time>
      </trkpt>
      <trkpt lat="43.75101" lon="3.52638">
        <ele>414.27488778332</ele>
        <time>2015-09-09T14:22:22Z</time>
      </trkpt>
      <trkpt lat="43.7511" lon="3.52638">
        <ele>412.58834220435</ele>
        <time>2015-09-09T14:22:31Z</time>
      </trkpt>
      <trkpt lat="43.75111" lon="3.52638">
        <ele>412.58834220435</ele>
        <time>2015-09-09T14:22:32Z</time>
      </trkpt>
      <trkpt lat="43.75125" lon="3.52628">
        <ele>411.37332070381</ele>
        <time>2015-09-09T14:22:43Z</time>
      </trkpt>
      <trkpt lat="43.75131" lon="3.52621">
        <ele>411.37332070381</ele>
        <time>2015-09-09T14:22:47Z</time>
      </trkpt>
      <trkpt lat="43.75136" lon="3.52614">
        <ele>410.5089584232</ele>
        <time>2015-09-09T14:22:52Z</time>
      </trkpt>
      <trkpt lat="43.75136" lon="3.52612">
        <ele>410.5089584232</ele>
        <time>2015-09-09T14:22:57Z</time>
      </trkpt>
      <trkpt lat="43.75138" lon="3.52609">
        <ele>410.5089584232</ele>
        <time>2015-09-09T14:23:07Z</time>
      </trkpt>
      <trkpt lat="43.75138" lon="3.52608">
        <ele>410.5089584232</ele>
        <time>2015-09-09T14:23:12Z</time>
      </trkpt>
      <trkpt lat="43.75142" lon="3.52604">
        <ele>410.02624255968</ele>
        <time>2015-09-09T14:23:42Z</time>
      </trkpt>
      <trkpt lat="43.75146" lon="3.52599">
        <ele>410.02624255968</ele>
        <time>2015-09-09T14:23:47Z</time>
      </trkpt>
      <trkpt lat="43.75154" lon="3.5259">
        <ele>409.67886215335</ele>
        <time>2015-09-09T14:23:56Z</time>
      </trkpt>
      <trkpt lat="43.75157" lon="3.52585">
        <ele>409.67886215335</ele>
        <time>2015-09-09T14:24:02Z</time>
      </trkpt>
      <trkpt lat="43.75159" lon="3.5258">
        <ele>409.48308540354</ele>
        <time>2015-09-09T14:24:07Z</time>
      </trkpt>
      <trkpt lat="43.75161" lon="3.52575">
        <ele>409.48308540354</ele>
        <time>2015-09-09T14:24:12Z</time>
      </trkpt>
      <trkpt lat="43.75164" lon="3.52568">
        <ele>409.39580871801</ele>
        <time>2015-09-09T14:24:17Z</time>
      </trkpt>
      <trkpt lat="43.75168" lon="3.52563">
        <ele>409.39580871801</ele>
        <time>2015-09-09T14:24:22Z</time>
      </trkpt>
      <trkpt lat="43.75169" lon="3.52556">
        <ele>409.39111209098</ele>
        <time>2015-09-09T14:24:27Z</time>
      </trkpt>
      <trkpt lat="43.75169" lon="3.52549">
        <ele>409.39111209098</ele>
        <time>2015-09-09T14:24:32Z</time>
      </trkpt>
      <trkpt lat="43.75169" lon="3.52546">
        <ele>409.39111209098</ele>
        <time>2015-09-09T14:24:37Z</time>
      </trkpt>
      <trkpt lat="43.75171" lon="3.52544">
        <ele>409.44467572425</ele>
        <time>2015-09-09T14:24:42Z</time>
      </trkpt>
      <trkpt lat="43.75174" lon="3.52542">
        <ele>409.44467572425</ele>
        <time>2015-09-09T14:24:47Z</time>
      </trkpt>
      <trkpt lat="43.75178" lon="3.52539">
        <ele>409.44467572425</ele>
        <time>2015-09-09T14:24:52Z</time>
      </trkpt>
      <trkpt lat="43.75183" lon="3.52538">
        <ele>409.57698107644</ele>
        <time>2015-09-09T14:24:57Z</time>
      </trkpt>
      <trkpt lat="43.75187" lon="3.52538">
        <ele>409.57698107644</ele>
        <time>2015-09-09T14:25:02Z</time>
      </trkpt>
      <trkpt lat="43.75191" lon="3.52537">
        <ele>409.57698107644</ele>
        <time>2015-09-09T14:25:07Z</time>
      </trkpt>
      <trkpt lat="43.75195" lon="3.52538">
        <ele>409.74910101687</ele>
        <time>2015-09-09T14:25:12Z</time>
      </trkpt>
      <trkpt lat="43.75199" lon="3.52542">
        <ele>409.74910101687</ele>
        <time>2015-09-09T14:25:17Z</time>
      </trkpt>
      <trkpt lat="43.75205" lon="3.52545">
        <ele>410.02571141591</ele>
        <time>2015-09-09T14:25:22Z</time>
      </trkpt>
      <trkpt lat="43.7521" lon="3.52549">
        <ele>410.02571141591</ele>
        <time>2015-09-09T14:25:27Z</time>
      </trkpt>
      <trkpt lat="43.75218" lon="3.5255">
        <ele>410.4087922895</ele>
        <time>2015-09-09T14:25:32Z</time>
      </trkpt>
      <trkpt lat="43.75223" lon="3.52551">
        <ele>410.4087922895</ele>
        <time>2015-09-09T14:25:38Z</time>
      </trkpt>
      <trkpt lat="43.7523" lon="3.5255">
        <ele>410.88547622177</ele>
        <time>2015-09-09T14:25:42Z</time>
      </trkpt>
      <trkpt lat="43.75235" lon="3.52547">
        <ele>410.88547622177</ele>
        <time>2015-09-09T14:25:50Z</time>
      </trkpt>
      <trkpt lat="43.75236" lon="3.52544">
        <ele>410.88547622177</ele>
        <time>2015-09-09T14:25:52Z</time>
      </trkpt>
      <trkpt lat="43.75238" lon="3.52536">
        <ele>411.42918972615</ele>
        <time>2015-09-09T14:25:58Z</time>
      </trkpt>
      <trkpt lat="43.75244" lon="3.52523">
        <ele>412.00074871783</ele>
        <time>2015-09-09T14:26:05Z</time>
      </trkpt>
      <trkpt lat="43.75244" lon="3.52521">
        <ele>412.00074871783</ele>
        <time>2015-09-09T14:26:07Z</time>
      </trkpt>
      <trkpt lat="43.75246" lon="3.52514">
        <ele>412.00074871783</ele>
        <time>2015-09-09T14:26:12Z</time>
      </trkpt>
      <trkpt lat="43.7525" lon="3.52508">
        <ele>412.67910844742</ele>
        <time>2015-09-09T14:26:17Z</time>
      </trkpt>
      <trkpt lat="43.75257" lon="3.52504">
        <ele>412.67910844742</ele>
        <time>2015-09-09T14:26:22Z</time>
      </trkpt>
      <trkpt lat="43.75264" lon="3.52499">
        <ele>413.42189867459</ele>
        <time>2015-09-09T14:26:29Z</time>
      </trkpt>
      <trkpt lat="43.75276" lon="3.52493">
        <ele>414.20416739806</ele>
        <time>2015-09-09T14:26:37Z</time>
      </trkpt>
      <trkpt lat="43.75298" lon="3.52488">
        <ele>415.16129437875</ele>
        <time>2015-09-09T14:26:54Z</time>
      </trkpt>
      <trkpt lat="43.75304" lon="3.52485">
        <ele>415.16129437875</ele>
        <time>2015-09-09T14:27:01Z</time>
      </trkpt>
      <trkpt lat="43.75313" lon="3.5248">
        <ele>416.21656704793</ele>
        <time>2015-09-09T14:27:07Z</time>
      </trkpt>
      <trkpt lat="43.75322" lon="3.5247">
        <ele>417.3131536729</ele>
        <time>2015-09-09T14:27:16Z</time>
      </trkpt>
      <trkpt lat="43.75323" lon="3.5247">
        <ele>417.3131536729</ele>
        <time>2015-09-09T14:27:17Z</time>
      </trkpt>
      <trkpt lat="43.75345" lon="3.52456">
        <ele>418.74426913924</ele>
        <time>2015-09-09T14:27:44Z</time>
      </trkpt>
      <trkpt lat="43.75353" lon="3.52409">
        <ele>420.39168246309</ele>
        <time>2015-09-09T14:28:05Z</time>
      </trkpt>
      <trkpt lat="43.75355" lon="3.52403">
        <ele>420.39168246309</ele>
        <time>2015-09-09T14:28:05Z</time>
      </trkpt>
      <trkpt lat="43.75356" lon="3.52401">
        <ele>420.39168246309</ele>
        <time>2015-09-09T14:28:07Z</time>
      </trkpt>
      <trkpt lat="43.75361" lon="3.52397">
        <ele>422.03009540837</ele>
        <time>2015-09-09T14:28:19Z</time>
      </trkpt>
      <trkpt lat="43.75367" lon="3.52391">
        <ele>422.03009540837</ele>
        <time>2015-09-09T14:28:19Z</time>
      </trkpt>
      <trkpt lat="43.7537" lon="3.52387">
        <ele>423.59505061225</ele>
        <time>2015-09-09T14:28:22Z</time>
      </trkpt>
      <trkpt lat="43.75373" lon="3.5238">
        <ele>423.59505061225</ele>
        <time>2015-09-09T14:28:27Z</time>
      </trkpt>
      <trkpt lat="43.75383" lon="3.5237">
        <ele>425.17130752168</ele>
        <time>2015-09-09T14:28:38Z</time>
      </trkpt>
      <trkpt lat="43.75392" lon="3.52372">
        <ele>426.6357854853</ele>
        <time>2015-09-09T14:28:47Z</time>
      </trkpt>
      <trkpt lat="43.75408" lon="3.52387">
        <ele>427.57230565322</ele>
        <time>2015-09-09T14:29:07Z</time>
      </trkpt>
      <trkpt lat="43.75413" lon="3.52393">
        <ele>427.57230565322</ele>
        <time>2015-09-09T14:29:19Z</time>
      </trkpt>
      <trkpt lat="43.75434" lon="3.52408">
        <ele>428.40394966362</ele>
        <time>2015-09-09T14:29:32Z</time>
      </trkpt>
      <trkpt lat="43.75441" lon="3.52412">
        <ele>428.40394966362</ele>
        <time>2015-09-09T14:29:37Z</time>
      </trkpt>
      <trkpt lat="43.7546" lon="3.52414">
        <ele>429.30703408564</ele>
        <time>2015-09-09T14:29:51Z</time>
      </trkpt>
      <trkpt lat="43.75464" lon="3.52415">
        <ele>429.30703408564</ele>
        <time>2015-09-09T14:29:58Z</time>
      </trkpt>
      <trkpt lat="43.75481" lon="3.52409">
        <ele>430.22874316922</ele>
        <time>2015-09-09T14:30:07Z</time>
      </trkpt>
      <trkpt lat="43.75487" lon="3.52408">
        <ele>430.22874316922</ele>
        <time>2015-09-09T14:30:16Z</time>
      </trkpt>
      <trkpt lat="43.75488" lon="3.52408">
        <ele>430.22874316922</ele>
        <time>2015-09-09T14:30:17Z</time>
      </trkpt>
      <trkpt lat="43.75491" lon="3.52407">
        <ele>431.09145216953</ele>
        <time>2015-09-09T14:30:22Z</time>
      </trkpt>
      <trkpt lat="43.75495" lon="3.52409">
        <ele>431.09145216953</ele>
        <time>2015-09-09T14:30:28Z</time>
      </trkpt>
      <trkpt lat="43.75505" lon="3.52407">
        <ele>431.88123234814</ele>
        <time>2015-09-09T14:30:37Z</time>
      </trkpt>
      <trkpt lat="43.75534" lon="3.52419">
        <ele>433.39258788807</ele>
        <time>2015-09-09T14:31:06Z</time>
      </trkpt>
      <trkpt lat="43.75544" lon="3.52421">
        <ele>434.88988272002</ele>
        <time>2015-09-09T14:31:14Z</time>
      </trkpt>
      <trkpt lat="43.75547" lon="3.52424">
        <ele>434.88988272002</ele>
        <time>2015-09-09T14:31:17Z</time>
      </trkpt>
      <trkpt lat="43.75555" lon="3.52423">
        <ele>436.18171875224</ele>
        <time>2015-09-09T14:31:32Z</time>
      </trkpt>
      <trkpt lat="43.75572" lon="3.52425">
        <ele>437.33650418698</ele>
        <time>2015-09-09T14:31:37Z</time>
      </trkpt>
      <trkpt lat="43.75596" lon="3.52434">
        <ele>438.5190648679</ele>
        <time>2015-09-09T14:32:06Z</time>
      </trkpt>
      <trkpt lat="43.75604" lon="3.52432">
        <ele>438.5190648679</ele>
        <time>2015-09-09T14:32:07Z</time>
      </trkpt>
      <trkpt lat="43.7561" lon="3.52433">
        <ele>439.62281950309</ele>
        <time>2015-09-09T14:32:20Z</time>
      </trkpt>
      <trkpt lat="43.75622" lon="3.52436">
        <ele>440.57823543528</ele>
        <time>2015-09-09T14:32:22Z</time>
      </trkpt>
      <trkpt lat="43.75629" lon="3.52436">
        <ele>440.57823543528</ele>
        <time>2015-09-09T14:32:27Z</time>
      </trkpt>
      <trkpt lat="43.75643" lon="3.52433">
        <ele>441.49440946697</ele>
        <time>2015-09-09T14:32:37Z</time>
      </trkpt>
      <trkpt lat="43.75642" lon="3.52431">
        <ele>441.49440946697</ele>
        <time>2015-09-09T14:32:42Z</time>
      </trkpt>
      <trkpt lat="43.75647" lon="3.52421">
        <ele>441.69450031667</ele>
        <time>2015-09-09T14:33:06Z</time>
      </trkpt>
      <trkpt lat="43.75647" lon="3.52421">
        <ele>441.69450031667</ele>
        <time>2015-09-09T14:33:07Z</time>
      </trkpt>
      <trkpt lat="43.75651" lon="3.5242">
        <ele>441.69450031667</ele>
        <time>2015-09-09T14:33:15Z</time>
      </trkpt>
      <trkpt lat="43.75646" lon="3.5242">
        <ele>441.69450031667</ele>
        <time>2015-09-09T14:33:53Z</time>
      </trkpt>
      <trkpt lat="43.75649" lon="3.52415">
        <ele>439.84740664413</ele>
        <time>2015-09-09T14:34:06Z</time>
      </trkpt>
      <trkpt lat="43.7565" lon="3.52415">
        <ele>439.84740664413</ele>
        <time>2015-09-09T14:34:07Z</time>
      </trkpt>
      <trkpt lat="43.75649" lon="3.52416">
        <ele>439.84740664413</ele>
        <time>2015-09-09T14:34:15Z</time>
      </trkpt>
      <trkpt lat="43.75646" lon="3.52421">
        <ele>439.84740664413</ele>
        <time>2015-09-09T14:34:18Z</time>
      </trkpt>
      <trkpt lat="43.75645" lon="3.52422">
        <ele>439.84740664413</ele>
        <time>2015-09-09T14:34:22Z</time>
      </trkpt>
      <trkpt lat="43.75656" lon="3.52423">
        <ele>437.30528113974</ele>
        <time>2015-09-09T14:36:52Z</time>
      </trkpt>
      <trkpt lat="43.7566" lon="3.52425">
        <ele>437.30528113974</ele>
        <time>2015-09-09T14:36:57Z</time>
      </trkpt>
      <trkpt lat="43.7566" lon="3.52426">
        <ele>437.30528113974</ele>
        <time>2015-09-09T14:37:02Z</time>
      </trkpt>
      <trkpt lat="43.75667" lon="3.52431">
        <ele>435.02038218128</ele>
        <time>2015-09-09T14:37:12Z</time>
      </trkpt>
      <trkpt lat="43.75677" lon="3.52432">
        <ele>432.95207441753</ele>
        <time>2015-09-09T14:37:30Z</time>
      </trkpt>
      <trkpt lat="43.75686" lon="3.52438">
        <ele>431.06216425327</ele>
        <time>2015-09-09T14:37:30Z</time>
      </trkpt>
      <trkpt lat="43.75688" lon="3.52439">
        <ele>431.06216425327</ele>
        <time>2015-09-09T14:37:32Z</time>
      </trkpt>
      <trkpt lat="43.75694" lon="3.52438">
        <ele>431.06216425327</ele>
        <time>2015-09-09T14:37:37Z</time>
      </trkpt>
      <trkpt lat="43.75713" lon="3.52453">
        <ele>429.25715808593</ele>
        <time>2015-09-09T14:37:57Z</time>
      </trkpt>
      <trkpt lat="43.75719" lon="3.52467">
        <ele>427.52226504437</ele>
        <time>2015-09-09T14:38:06Z</time>
      </trkpt>
      <trkpt lat="43.75719" lon="3.52468">
        <ele>427.52226504437</ele>
        <time>2015-09-09T14:38:07Z</time>
      </trkpt>
      <trkpt lat="43.75721" lon="3.52476">
        <ele>427.52226504437</ele>
        <time>2015-09-09T14:38:21Z</time>
      </trkpt>
      <trkpt lat="43.75721" lon="3.52485">
        <ele>425.90122674804</ele>
        <time>2015-09-09T14:38:21Z</time>
      </trkpt>
      <trkpt lat="43.75721" lon="3.52488">
        <ele>425.90122674804</ele>
        <time>2015-09-09T14:38:22Z</time>
      </trkpt>
      <trkpt lat="43.75718" lon="3.52496">
        <ele>425.90122674804</ele>
        <time>2015-09-09T14:38:27Z</time>
      </trkpt>
      <trkpt lat="43.75714" lon="3.52505">
        <ele>424.66481191951</ele>
        <time>2015-09-09T14:38:37Z</time>
      </trkpt>
      <trkpt lat="43.75707" lon="3.52546">
        <ele>424.25013358729</ele>
        <time>2015-09-09T14:39:06Z</time>
      </trkpt>
      <trkpt lat="43.75696" lon="3.52561">
        <ele>424.2528276615</ele>
        <time>2015-09-09T14:39:16Z</time>
      </trkpt>
      <trkpt lat="43.75696" lon="3.52566">
        <ele>424.2528276615</ele>
        <time>2015-09-09T14:39:17Z</time>
      </trkpt>
      <trkpt lat="43.75696" lon="3.52574">
        <ele>424.54200907884</ele>
        <time>2015-09-09T14:39:22Z</time>
      </trkpt>
      <trkpt lat="43.75701" lon="3.52617">
        <ele>425.28378320764</ele>
        <time>2015-09-09T14:39:37Z</time>
      </trkpt>
      <trkpt lat="43.75724" lon="3.52652">
        <ele>425.98224420286</ele>
        <time>2015-09-09T14:40:07Z</time>
      </trkpt>
      <trkpt lat="43.75739" lon="3.52674">
        <ele>426.6823919636</ele>
        <time>2015-09-09T14:40:17Z</time>
      </trkpt>
      <trkpt lat="43.75748" lon="3.52673">
        <ele>427.36824409823</ele>
        <time>2015-09-09T14:40:22Z</time>
      </trkpt>
      <trkpt lat="43.75753" lon="3.52677">
        <ele>427.36824409823</ele>
        <time>2015-09-09T14:40:27Z</time>
      </trkpt>
      <trkpt lat="43.75757" lon="3.5268">
        <ele>428.02501137943</ele>
        <time>2015-09-09T14:40:32Z</time>
      </trkpt>
      <trkpt lat="43.75765" lon="3.52683">
        <ele>428.02501137943</ele>
        <time>2015-09-09T14:40:42Z</time>
      </trkpt>
      <trkpt lat="43.75771" lon="3.52681">
        <ele>428.40847912088</ele>
        <time>2015-09-09T14:40:47Z</time>
      </trkpt>
      <trkpt lat="43.75781" lon="3.52683">
        <ele>428.53811672545</ele>
        <time>2015-09-09T14:41:07Z</time>
      </trkpt>
      <trkpt lat="43.75785" lon="3.52683">
        <ele>428.53811672545</ele>
        <time>2015-09-09T14:41:12Z</time>
      </trkpt>
      <trkpt lat="43.7579" lon="3.52682">
        <ele>428.41825533959</ele>
        <time>2015-09-09T14:41:17Z</time>
      </trkpt>
      <trkpt lat="43.75795" lon="3.52683">
        <ele>428.41825533959</ele>
        <time>2015-09-09T14:41:22Z</time>
      </trkpt>
      <trkpt lat="43.75799" lon="3.52685">
        <ele>428.05359929051</ele>
        <time>2015-09-09T14:41:27Z</time>
      </trkpt>
      <trkpt lat="43.75804" lon="3.52688">
        <ele>428.05359929051</ele>
        <time>2015-09-09T14:41:32Z</time>
      </trkpt>
      <trkpt lat="43.75809" lon="3.52693">
        <ele>427.62211745722</ele>
        <time>2015-09-09T14:41:37Z</time>
      </trkpt>
      <trkpt lat="43.75813" lon="3.52695">
        <ele>427.62211745722</ele>
        <time>2015-09-09T14:41:42Z</time>
      </trkpt>
      <trkpt lat="43.75814" lon="3.52698">
        <ele>427.62211745722</ele>
        <time>2015-09-09T14:41:47Z</time>
      </trkpt>
      <trkpt lat="43.75818" lon="3.52701">
        <ele>427.36093586751</ele>
        <time>2015-09-09T14:41:52Z</time>
      </trkpt>
      <trkpt lat="43.75822" lon="3.52706">
        <ele>427.36093586751</ele>
        <time>2015-09-09T14:41:57Z</time>
      </trkpt>
      <trkpt lat="43.75827" lon="3.52709">
        <ele>427.12899045845</ele>
        <time>2015-09-09T14:42:02Z</time>
      </trkpt>
      <trkpt lat="43.75831" lon="3.52711">
        <ele>427.12899045845</ele>
        <time>2015-09-09T14:42:07Z</time>
      </trkpt>
      <trkpt lat="43.75837" lon="3.52711">
        <ele>426.9540020307</ele>
        <time>2015-09-09T14:42:12Z</time>
      </trkpt>
      <trkpt lat="43.75841" lon="3.52713">
        <ele>426.9540020307</ele>
        <time>2015-09-09T14:42:17Z</time>
      </trkpt>
      <trkpt lat="43.75842" lon="3.5271">
        <ele>426.9540020307</ele>
        <time>2015-09-09T14:42:22Z</time>
      </trkpt>
      <trkpt lat="43.75845" lon="3.52704">
        <ele>426.81824212562</ele>
        <time>2015-09-09T14:42:27Z</time>
      </trkpt>
      <trkpt lat="43.75851" lon="3.52699">
        <ele>426.81824212562</ele>
        <time>2015-09-09T14:42:32Z</time>
      </trkpt>
      <trkpt lat="43.75855" lon="3.52695">
        <ele>426.70515359944</ele>
        <time>2015-09-09T14:42:37Z</time>
      </trkpt>
      <trkpt lat="43.75859" lon="3.52694">
        <ele>426.70515359944</ele>
        <time>2015-09-09T14:42:42Z</time>
      </trkpt>
      <trkpt lat="43.75861" lon="3.527">
        <ele>426.70515359944</ele>
        <time>2015-09-09T14:42:47Z</time>
      </trkpt>
      <trkpt lat="43.75866" lon="3.52704">
        <ele>426.49843228037</ele>
        <time>2015-09-09T14:42:52Z</time>
      </trkpt>
      <trkpt lat="43.7587" lon="3.52708">
        <ele>426.49843228037</ele>
        <time>2015-09-09T14:42:57Z</time>
      </trkpt>
      <trkpt lat="43.75875" lon="3.5271">
        <ele>426.36436903732</ele>
        <time>2015-09-09T14:43:02Z</time>
      </trkpt>
      <trkpt lat="43.7588" lon="3.52713">
        <ele>426.36436903732</ele>
        <time>2015-09-09T14:43:07Z</time>
      </trkpt>
      <trkpt lat="43.75884" lon="3.52717">
        <ele>426.35593473145</ele>
        <time>2015-09-09T14:43:12Z</time>
      </trkpt>
      <trkpt lat="43.75889" lon="3.52719">
        <ele>426.35593473145</ele>
        <time>2015-09-09T14:43:17Z</time>
      </trkpt>
      <trkpt lat="43.75896" lon="3.5272">
        <ele>426.44977844492</ele>
        <time>2015-09-09T14:43:22Z</time>
      </trkpt>
      <trkpt lat="43.759" lon="3.52724">
        <ele>426.44977844492</ele>
        <time>2015-09-09T14:43:27Z</time>
      </trkpt>
      <trkpt lat="43.75899" lon="3.52728">
        <ele>426.44977844492</ele>
        <time>2015-09-09T14:43:32Z</time>
      </trkpt>
      <trkpt lat="43.75902" lon="3.5273">
        <ele>426.73924503833</ele>
        <time>2015-09-09T14:43:37Z</time>
      </trkpt>
      <trkpt lat="43.75907" lon="3.5273">
        <ele>426.73924503833</ele>
        <time>2015-09-09T14:43:42Z</time>
      </trkpt>
      <trkpt lat="43.75911" lon="3.5273">
        <ele>426.73924503833</ele>
        <time>2015-09-09T14:43:47Z</time>
      </trkpt>
      <trkpt lat="43.75917" lon="3.52732">
        <ele>427.15173167924</ele>
        <time>2015-09-09T14:43:52Z</time>
      </trkpt>
      <trkpt lat="43.75922" lon="3.52733">
        <ele>427.15173167924</ele>
        <time>2015-09-09T14:43:57Z</time>
      </trkpt>
      <trkpt lat="43.75925" lon="3.52738">
        <ele>427.61960717018</ele>
        <time>2015-09-09T14:44:02Z</time>
      </trkpt>
      <trkpt lat="43.7593" lon="3.52742">
        <ele>427.61960717018</ele>
        <time>2015-09-09T14:44:07Z</time>
      </trkpt>
      <trkpt lat="43.75935" lon="3.52746">
        <ele>428.10886236507</ele>
        <time>2015-09-09T14:44:12Z</time>
      </trkpt>
      <trkpt lat="43.75939" lon="3.5275">
        <ele>428.10886236507</ele>
        <time>2015-09-09T14:44:17Z</time>
      </trkpt>
      <trkpt lat="43.75943" lon="3.52753">
        <ele>428.70320668539</ele>
        <time>2015-09-09T14:44:22Z</time>
      </trkpt>
      <trkpt lat="43.75946" lon="3.52752">
        <ele>428.70320668539</ele>
        <time>2015-09-09T14:44:27Z</time>
      </trkpt>
      <trkpt lat="43.7595" lon="3.52749">
        <ele>428.70320668539</ele>
        <time>2015-09-09T14:44:32Z</time>
      </trkpt>
      <trkpt lat="43.75954" lon="3.52747">
        <ele>429.33579015059</ele>
        <time>2015-09-09T14:44:37Z</time>
      </trkpt>
      <trkpt lat="43.75959" lon="3.52744">
        <ele>429.33579015059</ele>
        <time>2015-09-09T14:44:42Z</time>
      </trkpt>
      <trkpt lat="43.75964" lon="3.52741">
        <ele>430.00221116082</ele>
        <time>2015-09-09T14:44:47Z</time>
      </trkpt>
      <trkpt lat="43.7597" lon="3.52737">
        <ele>430.00221116082</ele>
        <time>2015-09-09T14:44:52Z</time>
      </trkpt>
      <trkpt lat="43.75975" lon="3.52733">
        <ele>430.66947934518</ele>
        <time>2015-09-09T14:44:57Z</time>
      </trkpt>
      <trkpt lat="43.75982" lon="3.52729">
        <ele>430.66947934518</ele>
        <time>2015-09-09T14:45:03Z</time>
      </trkpt>
      <trkpt lat="43.75982" lon="3.52728">
        <ele>430.66947934518</ele>
        <time>2015-09-09T14:45:10Z</time>
      </trkpt>
      <trkpt lat="43.75982" lon="3.52727">
        <ele>431.33585723264</ele>
        <time>2015-09-09T14:45:12Z</time>
      </trkpt>
      <trkpt lat="43.75981" lon="3.52725">
        <ele>431.33585723264</ele>
        <time>2015-09-09T14:45:17Z</time>
      </trkpt>
      <trkpt lat="43.7598" lon="3.52726">
        <ele>431.33585723264</ele>
        <time>2015-09-09T14:45:22Z</time>
      </trkpt>
      <trkpt lat="43.75983" lon="3.52724">
        <ele>431.33585723264</ele>
        <time>2015-09-09T14:45:27Z</time>
      </trkpt>
      <trkpt lat="43.75988" lon="3.52721">
        <ele>431.94210678873</ele>
        <time>2015-09-09T14:45:32Z</time>
      </trkpt>
      <trkpt lat="43.75995" lon="3.5272">
        <ele>431.94210678873</ele>
        <time>2015-09-09T14:45:37Z</time>
      </trkpt>
      <trkpt lat="43.76" lon="3.52717">
        <ele>432.57763902421</ele>
        <time>2015-09-09T14:45:42Z</time>
      </trkpt>
      <trkpt lat="43.76006" lon="3.52715">
        <ele>432.57763902421</ele>
        <time>2015-09-09T14:45:47Z</time>
      </trkpt>
      <trkpt lat="43.76011" lon="3.52714">
        <ele>433.31082479263</ele>
        <time>2015-09-09T14:45:52Z</time>
      </trkpt>
      <trkpt lat="43.76016" lon="3.52713">
        <ele>433.31082479263</ele>
        <time>2015-09-09T14:45:57Z</time>
      </trkpt>
      <trkpt lat="43.76022" lon="3.52711">
        <ele>434.10388530159</ele>
        <time>2015-09-09T14:46:02Z</time>
      </trkpt>
      <trkpt lat="43.76025" lon="3.5271">
        <ele>434.10388530159</ele>
        <time>2015-09-09T14:46:07Z</time>
      </trkpt>
      <trkpt lat="43.76029" lon="3.5271">
        <ele>434.10388530159</ele>
        <time>2015-09-09T14:46:12Z</time>
      </trkpt>
      <trkpt lat="43.76031" lon="3.52712">
        <ele>435.05137725608</ele>
        <time>2015-09-09T14:46:17Z</time>
      </trkpt>
      <trkpt lat="43.76033" lon="3.52715">
        <ele>435.05137725608</ele>
        <time>2015-09-09T14:46:22Z</time>
      </trkpt>
      <trkpt lat="43.76037" lon="3.52713">
        <ele>435.05137725608</ele>
        <time>2015-09-09T14:46:27Z</time>
      </trkpt>
      <trkpt lat="43.76044" lon="3.5271">
        <ele>436.1396324996</ele>
        <time>2015-09-09T14:46:32Z</time>
      </trkpt>
      <trkpt lat="43.76049" lon="3.52707">
        <ele>436.1396324996</ele>
        <time>2015-09-09T14:46:37Z</time>
      </trkpt>
      <trkpt lat="43.76054" lon="3.52705">
        <ele>437.41327350422</ele>
        <time>2015-09-09T14:46:42Z</time>
      </trkpt>
      <trkpt lat="43.76058" lon="3.527">
        <ele>437.41327350422</ele>
        <time>2015-09-09T14:46:47Z</time>
      </trkpt>
      <trkpt lat="43.76063" lon="3.52696">
        <ele>438.74023360623</ele>
        <time>2015-09-09T14:46:52Z</time>
      </trkpt>
      <trkpt lat="43.76069" lon="3.52692">
        <ele>438.74023360623</ele>
        <time>2015-09-09T14:46:57Z</time>
      </trkpt>
      <trkpt lat="43.76075" lon="3.52689">
        <ele>440.0845127916</ele>
        <time>2015-09-09T14:47:02Z</time>
      </trkpt>
      <trkpt lat="43.7608" lon="3.52687">
        <ele>440.0845127916</ele>
        <time>2015-09-09T14:47:07Z</time>
      </trkpt>
      <trkpt lat="43.76085" lon="3.52685">
        <ele>441.60010563351</ele>
        <time>2015-09-09T14:47:12Z</time>
      </trkpt>
      <trkpt lat="43.76091" lon="3.52684">
        <ele>441.60010563351</ele>
        <time>2015-09-09T14:47:17Z</time>
      </trkpt>
      <trkpt lat="43.76096" lon="3.52683">
        <ele>443.19869628517</ele>
        <time>2015-09-09T14:47:22Z</time>
      </trkpt>
      <trkpt lat="43.76101" lon="3.52681">
        <ele>443.19869628517</ele>
        <time>2015-09-09T14:47:27Z</time>
      </trkpt>
      <trkpt lat="43.76101" lon="3.5268">
        <ele>443.19869628517</ele>
        <time>2015-09-09T14:47:32Z</time>
      </trkpt>
      <trkpt lat="43.76103" lon="3.5268">
        <ele>443.19869628517</ele>
        <time>2015-09-09T14:47:37Z</time>
      </trkpt>
      <trkpt lat="43.76105" lon="3.52675">
        <ele>444.79829025774</ele>
        <time>2015-09-09T14:47:42Z</time>
      </trkpt>
      <trkpt lat="43.76105" lon="3.52672">
        <ele>444.79829025774</ele>
        <time>2015-09-09T14:47:47Z</time>
      </trkpt>
      <trkpt lat="43.76104" lon="3.52676">
        <ele>444.79829025774</ele>
        <time>2015-09-09T14:47:52Z</time>
      </trkpt>
      <trkpt lat="43.761" lon="3.52679">
        <ele>446.17887457164</ele>
        <time>2015-09-09T14:47:57Z</time>
      </trkpt>
      <trkpt lat="43.76095" lon="3.52682">
        <ele>446.17887457164</ele>
        <time>2015-09-09T14:48:02Z</time>
      </trkpt>
      <trkpt lat="43.76089" lon="3.52684">
        <ele>447.02200013214</ele>
        <time>2015-09-09T14:48:07Z</time>
      </trkpt>
      <trkpt lat="43.76084" lon="3.52685">
        <ele>447.02200013214</ele>
        <time>2015-09-09T14:48:12Z</time>
      </trkpt>
      <trkpt lat="43.76079" lon="3.52687">
        <ele>447.65387529087</ele>
        <time>2015-09-09T14:48:17Z</time>
      </trkpt>
      <trkpt lat="43.76074" lon="3.5269">
        <ele>447.65387529087</ele>
        <time>2015-09-09T14:48:22Z</time>
      </trkpt>
      <trkpt lat="43.76068" lon="3.52695">
        <ele>448.30536099166</ele>
        <time>2015-09-09T14:48:27Z</time>
      </trkpt>
      <trkpt lat="43.76063" lon="3.52699">
        <ele>448.30536099166</ele>
        <time>2015-09-09T14:48:32Z</time>
      </trkpt>
      <trkpt lat="43.76058" lon="3.52703">
        <ele>448.88774731224</ele>
        <time>2015-09-09T14:48:37Z</time>
      </trkpt>
      <trkpt lat="43.76053" lon="3.52705">
        <ele>448.88774731224</ele>
        <time>2015-09-09T14:48:50Z</time>
      </trkpt>
      <trkpt lat="43.76031" lon="3.52707">
        <ele>449.39116330874</ele>
        <time>2015-09-09T14:49:02Z</time>
      </trkpt>
      <trkpt lat="43.76025" lon="3.52709">
        <ele>449.39116330874</ele>
        <time>2015-09-09T14:49:07Z</time>
      </trkpt>
      <trkpt lat="43.76009" lon="3.52715">
        <ele>449.82116466618</ele>
        <time>2015-09-09T14:49:17Z</time>
      </trkpt>
      <trkpt lat="43.76003" lon="3.52716">
        <ele>449.82116466618</ele>
        <time>2015-09-09T14:49:22Z</time>
      </trkpt>
      <trkpt lat="43.75974" lon="3.52728">
        <ele>450.24081383806</ele>
        <time>2015-09-09T14:49:47Z</time>
      </trkpt>
      <trkpt lat="43.75966" lon="3.52732">
        <ele>450.24081383806</ele>
        <time>2015-09-09T14:50:03Z</time>
      </trkpt>
      <trkpt lat="43.75953" lon="3.52735">
        <ele>450.43481797861</ele>
        <time>2015-09-09T14:50:07Z</time>
      </trkpt>
      <trkpt lat="43.75945" lon="3.52738">
        <ele>450.43481797861</ele>
        <time>2015-09-09T14:50:14Z</time>
      </trkpt>
      <trkpt lat="43.75944" lon="3.5274">
        <ele>450.43496403124</ele>
        <time>2015-09-09T14:50:17Z</time>
      </trkpt>
      <trkpt lat="43.7594" lon="3.52742">
        <ele>450.43496403124</ele>
        <time>2015-09-09T14:50:22Z</time>
      </trkpt>
      <trkpt lat="43.75935" lon="3.52739">
        <ele>450.02630532255</ele>
        <time>2015-09-09T14:50:29Z</time>
      </trkpt>
      <trkpt lat="43.7593" lon="3.52736">
        <ele>450.02630532255</ele>
        <time>2015-09-09T14:50:32Z</time>
      </trkpt>
      <trkpt lat="43.75912" lon="3.52729">
        <ele>449.11174731433</ele>
        <time>2015-09-09T14:50:46Z</time>
      </trkpt>
      <trkpt lat="43.7591" lon="3.52728">
        <ele>449.11174731433</ele>
        <time>2015-09-09T14:50:47Z</time>
      </trkpt>
      <trkpt lat="43.75904" lon="3.52724">
        <ele>449.11174731433</ele>
        <time>2015-09-09T14:50:52Z</time>
      </trkpt>
      <trkpt lat="43.75888" lon="3.52714">
        <ele>447.50189520418</ele>
        <time>2015-09-09T14:51:06Z</time>
      </trkpt>
      <trkpt lat="43.75887" lon="3.52713">
        <ele>447.50189520418</ele>
        <time>2015-09-09T14:51:07Z</time>
      </trkpt>
      <trkpt lat="43.75883" lon="3.52709">
        <ele>447.50189520418</ele>
        <time>2015-09-09T14:51:12Z</time>
      </trkpt>
      <trkpt lat="43.7586" lon="3.52699">
        <ele>444.99440555259</ele>
        <time>2015-09-09T14:51:32Z</time>
      </trkpt>
      <trkpt lat="43.75852" lon="3.52701">
        <ele>444.99440555259</ele>
        <time>2015-09-09T14:51:43Z</time>
      </trkpt>
      <trkpt lat="43.75836" lon="3.52701">
        <ele>441.96634136414</ele>
        <time>2015-09-09T14:51:50Z</time>
      </trkpt>
      <trkpt lat="43.75834" lon="3.52701">
        <ele>441.96634136414</ele>
        <time>2015-09-09T14:51:52Z</time>
      </trkpt>
      <trkpt lat="43.75827" lon="3.527">
        <ele>441.96634136414</ele>
        <time>2015-09-09T14:52:03Z</time>
      </trkpt>
      <trkpt lat="43.75811" lon="3.52687">
        <ele>438.27851616076</ele>
        <time>2015-09-09T14:52:17Z</time>
      </trkpt>
      <trkpt lat="43.75806" lon="3.52685">
        <ele>438.27851616076</ele>
        <time>2015-09-09T14:52:22Z</time>
      </trkpt>
      <trkpt lat="43.758" lon="3.52684">
        <ele>434.58195951649</ele>
        <time>2015-09-09T14:52:27Z</time>
      </trkpt>
      <trkpt lat="43.75795" lon="3.52685">
        <ele>434.58195951649</ele>
        <time>2015-09-09T14:52:32Z</time>
      </trkpt>
      <trkpt lat="43.75791" lon="3.52685">
        <ele>431.06189155315</ele>
        <time>2015-09-09T14:52:37Z</time>
      </trkpt>
      <trkpt lat="43.75791" lon="3.52691">
        <ele>431.06189155315</ele>
        <time>2015-09-09T14:52:53Z</time>
      </trkpt>
      <trkpt lat="43.75794" lon="3.52695">
        <ele>431.06189155315</ele>
        <time>2015-09-09T14:52:57Z</time>
      </trkpt>
      <trkpt lat="43.758" lon="3.527">
        <ele>427.90372844681</ele>
        <time>2015-09-09T14:53:02Z</time>
      </trkpt>
      <trkpt lat="43.75807" lon="3.52707">
        <ele>427.90372844681</ele>
        <time>2015-09-09T14:53:07Z</time>
      </trkpt>
      <trkpt lat="43.75814" lon="3.52718">
        <ele>425.1628243687</ele>
        <time>2015-09-09T14:53:19Z</time>
      </trkpt>
      <trkpt lat="43.75816" lon="3.52721">
        <ele>425.1628243687</ele>
        <time>2015-09-09T14:53:22Z</time>
      </trkpt>
      <trkpt lat="43.75817" lon="3.52723">
        <ele>425.1628243687</ele>
        <time>2015-09-09T14:53:34Z</time>
      </trkpt>
      <trkpt lat="43.75831" lon="3.52744">
        <ele>422.67297348726</ele>
        <time>2015-09-09T14:53:44Z</time>
      </trkpt>
      <trkpt lat="43.75832" lon="3.52746">
        <ele>422.67297348726</ele>
        <time>2015-09-09T14:53:44Z</time>
      </trkpt>
      <trkpt lat="43.75835" lon="3.52749">
        <ele>422.67297348726</ele>
        <time>2015-09-09T14:53:47Z</time>
      </trkpt>
      <trkpt lat="43.7584" lon="3.52776">
        <ele>420.50988199332</ele>
        <time>2015-09-09T14:54:07Z</time>
      </trkpt>
      <trkpt lat="43.75834" lon="3.52807">
        <ele>418.7858306412</ele>
        <time>2015-09-09T14:54:27Z</time>
      </trkpt>
      <trkpt lat="43.75832" lon="3.52814">
        <ele>418.7858306412</ele>
        <time>2015-09-09T14:54:32Z</time>
      </trkpt>
      <trkpt lat="43.75828" lon="3.52828">
        <ele>417.34403384071</ele>
        <time>2015-09-09T14:54:41Z</time>
      </trkpt>
      <trkpt lat="43.75827" lon="3.52831">
        <ele>417.34403384071</ele>
        <time>2015-09-09T14:54:42Z</time>
      </trkpt>
      <trkpt lat="43.75828" lon="3.52846">
        <ele>416.16794309804</ele>
        <time>2015-09-09T14:54:50Z</time>
      </trkpt>
      <trkpt lat="43.75829" lon="3.52851">
        <ele>416.16794309804</ele>
        <time>2015-09-09T14:54:52Z</time>
      </trkpt>
      <trkpt lat="43.75831" lon="3.5286">
        <ele>415.21247078963</ele>
        <time>2015-09-09T14:54:57Z</time>
      </trkpt>
      <trkpt lat="43.75846" lon="3.52893">
        <ele>414.52150633909</ele>
        <time>2015-09-09T14:55:17Z</time>
      </trkpt>
      <trkpt lat="43.7585" lon="3.52922">
        <ele>414.16361924514</ele>
        <time>2015-09-09T14:55:46Z</time>
      </trkpt>
      <trkpt lat="43.7585" lon="3.52922">
        <ele>414.16361924514</ele>
        <time>2015-09-09T14:55:47Z</time>
      </trkpt>
      <trkpt lat="43.75845" lon="3.5293">
        <ele>414.16361924514</ele>
        <time>2015-09-09T14:56:00Z</time>
      </trkpt>
      <trkpt lat="43.7584" lon="3.52946">
        <ele>414.17241853454</ele>
        <time>2015-09-09T14:56:07Z</time>
      </trkpt>
      <trkpt lat="43.75841" lon="3.52956">
        <ele>414.17241853454</ele>
        <time>2015-09-09T14:56:12Z</time>
      </trkpt>
      <trkpt lat="43.75841" lon="3.52962">
        <ele>414.27522666525</ele>
        <time>2015-09-09T14:56:17Z</time>
      </trkpt>
      <trkpt lat="43.75841" lon="3.52965">
        <ele>414.27522666525</ele>
        <time>2015-09-09T14:56:24Z</time>
      </trkpt>
      <trkpt lat="43.75846" lon="3.52971">
        <ele>414.27522666525</ele>
        <time>2015-09-09T14:56:36Z</time>
      </trkpt>
      <trkpt lat="43.75857" lon="3.52969">
        <ele>414.99719166952</ele>
        <time>2015-09-09T14:56:42Z</time>
      </trkpt>
      <trkpt lat="43.75858" lon="3.52968">
        <ele>414.99719166952</ele>
        <time>2015-09-09T14:56:47Z</time>
      </trkpt>
      <trkpt lat="43.75881" lon="3.52946">
        <ele>417.08242373638</ele>
        <time>2015-09-09T14:57:12Z</time>
      </trkpt>
      <trkpt lat="43.759" lon="3.52913">
        <ele>419.64563253069</ele>
        <time>2015-09-09T14:57:42Z</time>
      </trkpt>
      <trkpt lat="43.75916" lon="3.52898">
        <ele>422.70098773381</ele>
        <time>2015-09-09T14:58:02Z</time>
      </trkpt>
      <trkpt lat="43.75923" lon="3.52895">
        <ele>422.70098773381</ele>
        <time>2015-09-09T14:58:07Z</time>
      </trkpt>
      <trkpt lat="43.75929" lon="3.52892">
        <ele>426.23136854148</ele>
        <time>2015-09-09T14:58:16Z</time>
      </trkpt>
      <trkpt lat="43.7593" lon="3.52893">
        <ele>426.23136854148</ele>
        <time>2015-09-09T14:58:17Z</time>
      </trkpt>
      <trkpt lat="43.75932" lon="3.52893">
        <ele>426.23136854148</ele>
        <time>2015-09-09T14:58:22Z</time>
      </trkpt>
      <trkpt lat="43.75935" lon="3.52894">
        <ele>426.23136854148</ele>
        <time>2015-09-09T14:58:28Z</time>
      </trkpt>
      <trkpt lat="43.75937" lon="3.52896">
        <ele>426.23136854148</ele>
        <time>2015-09-09T14:58:32Z</time>
      </trkpt>
      <trkpt lat="43.75944" lon="3.52922">
        <ele>430.50778849255</ele>
        <time>2015-09-09T14:58:57Z</time>
      </trkpt>
      <trkpt lat="43.75944" lon="3.52932">
        <ele>430.50778849255</ele>
        <time>2015-09-09T14:59:06Z</time>
      </trkpt>
      <trkpt lat="43.75944" lon="3.52933">
        <ele>430.50778849255</ele>
        <time>2015-09-09T14:59:07Z</time>
      </trkpt>
      <trkpt lat="43.75943" lon="3.52939">
        <ele>434.91461464576</ele>
        <time>2015-09-09T14:59:12Z</time>
      </trkpt>
      <trkpt lat="43.75927" lon="3.52959">
        <ele>439.44316345557</ele>
        <time>2015-09-09T14:59:37Z</time>
      </trkpt>
      <trkpt lat="43.75922" lon="3.52961">
        <ele>439.44316345557</ele>
        <time>2015-09-09T14:59:42Z</time>
      </trkpt>
      <trkpt lat="43.75917" lon="3.52963">
        <ele>443.75368480312</ele>
        <time>2015-09-09T14:59:47Z</time>
      </trkpt>
      <trkpt lat="43.75911" lon="3.5297">
        <ele>443.75368480312</ele>
        <time>2015-09-09T14:59:52Z</time>
      </trkpt>
      <trkpt lat="43.75908" lon="3.52978">
        <ele>447.93563510446</ele>
        <time>2015-09-09T14:59:57Z</time>
      </trkpt>
      <trkpt lat="43.7591" lon="3.52985">
        <ele>447.93563510446</ele>
        <time>2015-09-09T15:00:02Z</time>
      </trkpt>
      <trkpt lat="43.75914" lon="3.52993">
        <ele>452.04359346861</ele>
        <time>2015-09-09T15:00:07Z</time>
      </trkpt>
      <trkpt lat="43.75916" lon="3.52997">
        <ele>452.04359346861</ele>
        <time>2015-09-09T15:00:12Z</time>
      </trkpt>
      <trkpt lat="43.75921" lon="3.53">
        <ele>452.04359346861</ele>
        <time>2015-09-09T15:00:17Z</time>
      </trkpt>
      <trkpt lat="43.75924" lon="3.53006">
        <ele>456.05646362558</ele>
        <time>2015-09-09T15:00:22Z</time>
      </trkpt>
      <trkpt lat="43.75936" lon="3.53021">
        <ele>459.71018108398</ele>
        <time>2015-09-09T15:00:27Z</time>
      </trkpt>
      <trkpt lat="43.75941" lon="3.53032">
        <ele>462.94865397865</ele>
        <time>2015-09-09T15:00:32Z</time>
      </trkpt>
      <trkpt lat="43.75943" lon="3.53036">
        <ele>462.94865397865</ele>
        <time>2015-09-09T15:00:37Z</time>
      </trkpt>
      <trkpt lat="43.75946" lon="3.53044">
        <ele>465.92306814967</ele>
        <time>2015-09-09T15:00:42Z</time>
      </trkpt>
      <trkpt lat="43.75949" lon="3.53051">
        <ele>465.92306814967</ele>
        <time>2015-09-09T15:00:47Z</time>
      </trkpt>
      <trkpt lat="43.75951" lon="3.53058">
        <ele>468.7744909818</ele>
        <time>2015-09-09T15:00:52Z</time>
      </trkpt>
      <trkpt lat="43.75954" lon="3.53065">
        <ele>468.7744909818</ele>
        <time>2015-09-09T15:00:57Z</time>
      </trkpt>
      <trkpt lat="43.75957" lon="3.53071">
        <ele>471.37482497991</ele>
        <time>2015-09-09T15:01:02Z</time>
      </trkpt>
      <trkpt lat="43.75959" lon="3.53077">
        <ele>471.37482497991</ele>
        <time>2015-09-09T15:01:07Z</time>
      </trkpt>
      <trkpt lat="43.75961" lon="3.53083">
        <ele>473.82250960113</ele>
        <time>2015-09-09T15:01:12Z</time>
      </trkpt>
      <trkpt lat="43.75963" lon="3.53089">
        <ele>473.82250960113</ele>
        <time>2015-09-09T15:01:17Z</time>
      </trkpt>
      <trkpt lat="43.75965" lon="3.53095">
        <ele>475.99327046492</ele>
        <time>2015-09-09T15:01:22Z</time>
      </trkpt>
      <trkpt lat="43.75966" lon="3.53103">
        <ele>475.99327046492</ele>
        <time>2015-09-09T15:01:27Z</time>
      </trkpt>
      <trkpt lat="43.75967" lon="3.53109">
        <ele>478.03239302215</ele>
        <time>2015-09-09T15:01:32Z</time>
      </trkpt>
      <trkpt lat="43.75968" lon="3.53116">
        <ele>478.03239302215</ele>
        <time>2015-09-09T15:01:37Z</time>
      </trkpt>
      <trkpt lat="43.7597" lon="3.53123">
        <ele>479.85894183736</ele>
        <time>2015-09-09T15:01:42Z</time>
      </trkpt>
      <trkpt lat="43.75972" lon="3.53129">
        <ele>479.85894183736</ele>
        <time>2015-09-09T15:01:47Z</time>
      </trkpt>
      <trkpt lat="43.75973" lon="3.53137">
        <ele>481.39876562885</ele>
        <time>2015-09-09T15:01:52Z</time>
      </trkpt>
      <trkpt lat="43.75977" lon="3.53146">
        <ele>481.39876562885</ele>
        <time>2015-09-09T15:01:57Z</time>
      </trkpt>
      <trkpt lat="43.7598" lon="3.5315">
        <ele>482.68507581541</ele>
        <time>2015-09-09T15:02:02Z</time>
      </trkpt>
      <trkpt lat="43.7598" lon="3.53156">
        <ele>482.68507581541</ele>
        <time>2015-09-09T15:02:07Z</time>
      </trkpt>
      <trkpt lat="43.75981" lon="3.53163">
        <ele>483.73516671927</ele>
        <time>2015-09-09T15:02:12Z</time>
      </trkpt>
      <trkpt lat="43.75984" lon="3.53167">
        <ele>483.73516671927</ele>
        <time>2015-09-09T15:02:17Z</time>
      </trkpt>
      <trkpt lat="43.75985" lon="3.53173">
        <ele>483.73516671927</ele>
        <time>2015-09-09T15:02:22Z</time>
      </trkpt>
      <trkpt lat="43.75988" lon="3.53179">
        <ele>484.56593460981</ele>
        <time>2015-09-09T15:02:27Z</time>
      </trkpt>
      <trkpt lat="43.75993" lon="3.53188">
        <ele>484.56593460981</ele>
        <time>2015-09-09T15:02:32Z</time>
      </trkpt>
      <trkpt lat="43.75996" lon="3.53193">
        <ele>485.25148960924</ele>
        <time>2015-09-09T15:02:37Z</time>
      </trkpt>
      <trkpt lat="43.76" lon="3.53199">
        <ele>485.25148960924</ele>
        <time>2015-09-09T15:02:42Z</time>
      </trkpt>
      <trkpt lat="43.76004" lon="3.53205">
        <ele>485.77461809027</ele>
        <time>2015-09-09T15:02:47Z</time>
      </trkpt>
      <trkpt lat="43.76008" lon="3.5321">
        <ele>485.77461809027</ele>
        <time>2015-09-09T15:02:52Z</time>
      </trkpt>
      <trkpt lat="43.76011" lon="3.53215">
        <ele>486.19204538877</ele>
        <time>2015-09-09T15:02:57Z</time>
      </trkpt>
      <trkpt lat="43.76015" lon="3.5322">
        <ele>486.19204538877</ele>
        <time>2015-09-09T15:03:02Z</time>
      </trkpt>
      <trkpt lat="43.7602" lon="3.53226">
        <ele>486.57118387472</ele>
        <time>2015-09-09T15:03:07Z</time>
      </trkpt>
      <trkpt lat="43.76026" lon="3.53234">
        <ele>486.57118387472</ele>
        <time>2015-09-09T15:03:12Z</time>
      </trkpt>
      <trkpt lat="43.76029" lon="3.53239">
        <ele>486.90267522581</ele>
        <time>2015-09-09T15:03:17Z</time>
      </trkpt>
      <trkpt lat="43.76032" lon="3.53244">
        <ele>486.90267522581</ele>
        <time>2015-09-09T15:03:22Z</time>
      </trkpt>
      <trkpt lat="43.76037" lon="3.53247">
        <ele>487.29338429697</ele>
        <time>2015-09-09T15:03:27Z</time>
      </trkpt>
      <trkpt lat="43.76041" lon="3.53251">
        <ele>487.29338429697</ele>
        <time>2015-09-09T15:03:32Z</time>
      </trkpt>
      <trkpt lat="43.76045" lon="3.53257">
        <ele>487.626090105</ele>
        <time>2015-09-09T15:03:37Z</time>
      </trkpt>
      <trkpt lat="43.76048" lon="3.53263">
        <ele>487.626090105</ele>
        <time>2015-09-09T15:03:42Z</time>
      </trkpt>
      <trkpt lat="43.76052" lon="3.53266">
        <ele>487.8933052878</ele>
        <time>2015-09-09T15:03:47Z</time>
      </trkpt>
      <trkpt lat="43.76056" lon="3.53269">
        <ele>487.8933052878</ele>
        <time>2015-09-09T15:03:52Z</time>
      </trkpt>
      <trkpt lat="43.76057" lon="3.53272">
        <ele>487.8933052878</ele>
        <time>2015-09-09T15:03:57Z</time>
      </trkpt>
      <trkpt lat="43.76061" lon="3.53276">
        <ele>488.17481064272</ele>
        <time>2015-09-09T15:04:02Z</time>
      </trkpt>
      <trkpt lat="43.76067" lon="3.53277">
        <ele>488.17481064272</ele>
        <time>2015-09-09T15:04:07Z</time>
      </trkpt>
      <trkpt lat="43.76071" lon="3.53279">
        <ele>488.47248475415</ele>
        <time>2015-09-09T15:04:12Z</time>
      </trkpt>
      <trkpt lat="43.76077" lon="3.53283">
        <ele>488.47248475415</ele>
        <time>2015-09-09T15:04:17Z</time>
      </trkpt>
      <trkpt lat="43.7608" lon="3.53284">
        <ele>488.86011980045</ele>
        <time>2015-09-09T15:04:22Z</time>
      </trkpt>
      <trkpt lat="43.76085" lon="3.53287">
        <ele>488.86011980045</ele>
        <time>2015-09-09T15:04:27Z</time>
      </trkpt>
      <trkpt lat="43.7609" lon="3.5329">
        <ele>489.31939785558</ele>
        <time>2015-09-09T15:04:32Z</time>
      </trkpt>
      <trkpt lat="43.76097" lon="3.53293">
        <ele>489.31939785558</ele>
        <time>2015-09-09T15:04:39Z</time>
      </trkpt>
      <trkpt lat="43.76099" lon="3.53295">
        <ele>489.91963173257</ele>
        <time>2015-09-09T15:04:48Z</time>
      </trkpt>
      <trkpt lat="43.76105" lon="3.53317">
        <ele>490.45084616847</ele>
        <time>2015-09-09T15:05:03Z</time>
      </trkpt>
      <trkpt lat="43.76109" lon="3.53325">
        <ele>490.45084616847</ele>
        <time>2015-09-09T15:05:07Z</time>
      </trkpt>
      <trkpt lat="43.76111" lon="3.53332">
        <ele>491.29513160759</ele>
        <time>2015-09-09T15:05:13Z</time>
      </trkpt>
      <trkpt lat="43.76114" lon="3.53336">
        <ele>491.29513160759</ele>
        <time>2015-09-09T15:05:17Z</time>
      </trkpt>
      <trkpt lat="43.7612" lon="3.53348">
        <ele>492.11389495533</ele>
        <time>2015-09-09T15:05:32Z</time>
      </trkpt>
      <trkpt lat="43.76128" lon="3.53362">
        <ele>492.91052339748</ele>
        <time>2015-09-09T15:05:37Z</time>
      </trkpt>
      <trkpt lat="43.76134" lon="3.53369">
        <ele>492.91052339748</ele>
        <time>2015-09-09T15:05:43Z</time>
      </trkpt>
      <trkpt lat="43.7614" lon="3.53375">
        <ele>493.65938202651</ele>
        <time>2015-09-09T15:05:47Z</time>
      </trkpt>
      <trkpt lat="43.76147" lon="3.53383">
        <ele>493.65938202651</ele>
        <time>2015-09-09T15:05:55Z</time>
      </trkpt>
      <trkpt lat="43.76148" lon="3.53385">
        <ele>494.39448061533</ele>
        <time>2015-09-09T15:05:57Z</time>
      </trkpt>
      <trkpt lat="43.7615" lon="3.53391">
        <ele>494.39448061533</ele>
        <time>2015-09-09T15:06:02Z</time>
      </trkpt>
      <trkpt lat="43.7615" lon="3.53398">
        <ele>495.10411524474</ele>
        <time>2015-09-09T15:06:07Z</time>
      </trkpt>
      <trkpt lat="43.76149" lon="3.53406">
        <ele>495.10411524474</ele>
        <time>2015-09-09T15:06:12Z</time>
      </trkpt>
      <trkpt lat="43.76148" lon="3.53414">
        <ele>495.82072241957</ele>
        <time>2015-09-09T15:06:17Z</time>
      </trkpt>
      <trkpt lat="43.76152" lon="3.53417">
        <ele>495.82072241957</ele>
        <time>2015-09-09T15:06:22Z</time>
      </trkpt>
      <trkpt lat="43.76151" lon="3.53421">
        <ele>495.82072241957</ele>
        <time>2015-09-09T15:06:27Z</time>
      </trkpt>
      <trkpt lat="43.76151" lon="3.53421">
        <ele>495.82072241957</ele>
        <time>2015-09-09T15:06:32Z</time>
      </trkpt>
      <trkpt lat="43.76145" lon="3.53427">
        <ele>496.73283150638</ele>
        <time>2015-09-09T15:07:07Z</time>
      </trkpt>
      <trkpt lat="43.76142" lon="3.53431">
        <ele>496.73283150638</ele>
        <time>2015-09-09T15:07:12Z</time>
      </trkpt>
      <trkpt lat="43.76138" lon="3.53435">
        <ele>496.73283150638</ele>
        <time>2015-09-09T15:07:17Z</time>
      </trkpt>
      <trkpt lat="43.76135" lon="3.53439">
        <ele>497.55338873192</ele>
        <time>2015-09-09T15:07:22Z</time>
      </trkpt>
      <trkpt lat="43.7613" lon="3.53443">
        <ele>497.55338873192</ele>
        <time>2015-09-09T15:07:27Z</time>
      </trkpt>
      <trkpt lat="43.76127" lon="3.53447">
        <ele>498.2904632483</ele>
        <time>2015-09-09T15:07:32Z</time>
      </trkpt>
      <trkpt lat="43.76127" lon="3.53448">
        <ele>498.2904632483</ele>
        <time>2015-09-09T15:07:37Z</time>
      </trkpt>
      <trkpt lat="43.76121" lon="3.5345">
        <ele>498.2904632483</ele>
        <time>2015-09-09T15:07:57Z</time>
      </trkpt>
      <trkpt lat="43.76115" lon="3.53452">
        <ele>498.89408717672</ele>
        <time>2015-09-09T15:08:02Z</time>
      </trkpt>
      <trkpt lat="43.7611" lon="3.53456">
        <ele>498.89408717672</ele>
        <time>2015-09-09T15:08:07Z</time>
      </trkpt>
      <trkpt lat="43.76105" lon="3.53459">
        <ele>499.40476806678</ele>
        <time>2015-09-09T15:08:12Z</time>
      </trkpt>
      <trkpt lat="43.76101" lon="3.53462">
        <ele>499.40476806678</ele>
        <time>2015-09-09T15:08:17Z</time>
      </trkpt>
      <trkpt lat="43.76095" lon="3.53467">
        <ele>499.93231524477</ele>
        <time>2015-09-09T15:08:22Z</time>
      </trkpt>
      <trkpt lat="43.76093" lon="3.53471">
        <ele>499.93231524477</ele>
        <time>2015-09-09T15:08:27Z</time>
      </trkpt>
      <trkpt lat="43.76089" lon="3.53472">
        <ele>499.93231524477</ele>
        <time>2015-09-09T15:08:32Z</time>
      </trkpt>
      <trkpt lat="43.76084" lon="3.53474">
        <ele>500.59279380521</ele>
        <time>2015-09-09T15:08:37Z</time>
      </trkpt>
      <trkpt lat="43.76078" lon="3.53477">
        <ele>500.59279380521</ele>
        <time>2015-09-09T15:08:42Z</time>
      </trkpt>
      <trkpt lat="43.76072" lon="3.53483">
        <ele>501.33480375683</ele>
        <time>2015-09-09T15:08:47Z</time>
      </trkpt>
      <trkpt lat="43.76068" lon="3.53486">
        <ele>501.33480375683</ele>
        <time>2015-09-09T15:08:52Z</time>
      </trkpt>
      <trkpt lat="43.76065" lon="3.53491">
        <ele>502.16809129669</ele>
        <time>2015-09-09T15:08:57Z</time>
      </trkpt>
      <trkpt lat="43.76064" lon="3.53495">
        <ele>502.16809129669</ele>
        <time>2015-09-09T15:09:02Z</time>
      </trkpt>
      <trkpt lat="43.76061" lon="3.53499">
        <ele>502.16809129669</ele>
        <time>2015-09-09T15:09:07Z</time>
      </trkpt>
      <trkpt lat="43.76057" lon="3.53504">
        <ele>503.23108496827</ele>
        <time>2015-09-09T15:09:12Z</time>
      </trkpt>
      <trkpt lat="43.76054" lon="3.5351">
        <ele>503.23108496827</ele>
        <time>2015-09-09T15:09:17Z</time>
      </trkpt>
      <trkpt lat="43.76048" lon="3.53519">
        <ele>504.43518852537</ele>
        <time>2015-09-09T15:09:22Z</time>
      </trkpt>
      <trkpt lat="43.76041" lon="3.53524">
        <ele>504.43518852537</ele>
        <time>2015-09-09T15:09:27Z</time>
      </trkpt>
      <trkpt lat="43.76034" lon="3.53529">
        <ele>505.68346423365</ele>
        <time>2015-09-09T15:09:32Z</time>
      </trkpt>
      <trkpt lat="43.7603" lon="3.5353">
        <ele>505.68346423365</ele>
        <time>2015-09-09T15:09:37Z</time>
      </trkpt>
      <trkpt lat="43.76024" lon="3.53535">
        <ele>506.98680952817</ele>
        <time>2015-09-09T15:09:42Z</time>
      </trkpt>
      <trkpt lat="43.76018" lon="3.53542">
        <ele>506.98680952817</ele>
        <time>2015-09-09T15:09:47Z</time>
      </trkpt>
      <trkpt lat="43.76012" lon="3.53548">
        <ele>508.28307519483</ele>
        <time>2015-09-09T15:09:52Z</time>
      </trkpt>
      <trkpt lat="43.7601" lon="3.5356">
        <ele>508.28307519483</ele>
        <time>2015-09-09T15:09:57Z</time>
      </trkpt>
      <trkpt lat="43.76008" lon="3.53566">
        <ele>509.48584274195</ele>
        <time>2015-09-09T15:10:02Z</time>
      </trkpt>
      <trkpt lat="43.76004" lon="3.53571">
        <ele>509.48584274195</ele>
        <time>2015-09-09T15:10:12Z</time>
      </trkpt>
      <trkpt lat="43.75991" lon="3.53592">
        <ele>510.64497539947</ele>
        <time>2015-09-09T15:10:24Z</time>
      </trkpt>
      <trkpt lat="43.75984" lon="3.53602">
        <ele>511.74912556219</ele>
        <time>2015-09-09T15:10:29Z</time>
      </trkpt>
      <trkpt lat="43.75978" lon="3.53611">
        <ele>511.74912556219</ele>
        <time>2015-09-09T15:10:35Z</time>
      </trkpt>
      <trkpt lat="43.75977" lon="3.53612">
        <ele>512.73026542597</ele>
        <time>2015-09-09T15:10:39Z</time>
      </trkpt>
      <trkpt lat="43.75968" lon="3.53621">
        <ele>513.56892078396</ele>
        <time>2015-09-09T15:10:44Z</time>
      </trkpt>
      <trkpt lat="43.75947" lon="3.53639">
        <ele>514.1321369678</ele>
        <time>2015-09-09T15:11:02Z</time>
      </trkpt>
      <trkpt lat="43.75941" lon="3.53641">
        <ele>514.1321369678</ele>
        <time>2015-09-09T15:11:07Z</time>
      </trkpt>
      <trkpt lat="43.75915" lon="3.53673">
        <ele>514.25424222068</ele>
        <time>2015-09-09T15:11:40Z</time>
      </trkpt>
      <trkpt lat="43.75908" lon="3.53677">
        <ele>514.25424222068</ele>
        <time>2015-09-09T15:11:42Z</time>
      </trkpt>
      <trkpt lat="43.75902" lon="3.5368">
        <ele>514.15763500799</ele>
        <time>2015-09-09T15:11:47Z</time>
      </trkpt>
      <trkpt lat="43.75896" lon="3.53682">
        <ele>514.15763500799</ele>
        <time>2015-09-09T15:11:52Z</time>
      </trkpt>
      <trkpt lat="43.75889" lon="3.53684">
        <ele>514.0057254072</ele>
        <time>2015-09-09T15:11:57Z</time>
      </trkpt>
      <trkpt lat="43.75882" lon="3.53687">
        <ele>514.0057254072</ele>
        <time>2015-09-09T15:12:02Z</time>
      </trkpt>
      <trkpt lat="43.75878" lon="3.53691">
        <ele>513.58975869032</ele>
        <time>2015-09-09T15:12:07Z</time>
      </trkpt>
      <trkpt lat="43.75873" lon="3.53695">
        <ele>513.58975869032</ele>
        <time>2015-09-09T15:12:12Z</time>
      </trkpt>
      <trkpt lat="43.75871" lon="3.53697">
        <ele>513.58975869032</ele>
        <time>2015-09-09T15:12:17Z</time>
      </trkpt>
      <trkpt lat="43.75871" lon="3.53697">
        <ele>513.58975869032</ele>
        <time>2015-09-09T15:12:22Z</time>
      </trkpt>
      <trkpt lat="43.75869" lon="3.53697">
        <ele>512.48643123704</ele>
        <time>2015-09-09T15:12:27Z</time>
      </trkpt>
      <trkpt lat="43.75869" lon="3.53695">
        <ele>512.48643123704</ele>
        <time>2015-09-09T15:12:32Z</time>
      </trkpt>
      <trkpt lat="43.75863" lon="3.53692">
        <ele>512.48643123704</ele>
        <time>2015-09-09T15:12:37Z</time>
      </trkpt>
      <trkpt lat="43.75858" lon="3.53694">
        <ele>511.12683990561</ele>
        <time>2015-09-09T15:12:42Z</time>
      </trkpt>
      <trkpt lat="43.75849" lon="3.53694">
        <ele>509.70930786403</ele>
        <time>2015-09-09T15:12:47Z</time>
      </trkpt>
      <trkpt lat="43.75847" lon="3.53693">
        <ele>509.70930786403</ele>
        <time>2015-09-09T15:12:52Z</time>
      </trkpt>
      <trkpt lat="43.75845" lon="3.53694">
        <ele>509.70930786403</ele>
        <time>2015-09-09T15:12:57Z</time>
      </trkpt>
      <trkpt lat="43.75844" lon="3.53694">
        <ele>509.70930786403</ele>
        <time>2015-09-09T15:13:02Z</time>
      </trkpt>
      <trkpt lat="43.75837" lon="3.53697">
        <ele>508.17268109304</ele>
        <time>2015-09-09T15:13:17Z</time>
      </trkpt>
      <trkpt lat="43.75836" lon="3.53699">
        <ele>508.17268109304</ele>
        <time>2015-09-09T15:13:22Z</time>
      </trkpt>
      <trkpt lat="43.75831" lon="3.537">
        <ele>508.17268109304</ele>
        <time>2015-09-09T15:13:27Z</time>
      </trkpt>
      <trkpt lat="43.75829" lon="3.53699">
        <ele>506.64788082455</ele>
        <time>2015-09-09T15:13:32Z</time>
      </trkpt>
      <trkpt lat="43.75826" lon="3.53701">
        <ele>506.64788082455</ele>
        <time>2015-09-09T15:13:37Z</time>
      </trkpt>
      <trkpt lat="43.75825" lon="3.53703">
        <ele>506.64788082455</ele>
        <time>2015-09-09T15:13:42Z</time>
      </trkpt>
      <trkpt lat="43.75823" lon="3.53704">
        <ele>506.64788082455</ele>
        <time>2015-09-09T15:13:47Z</time>
      </trkpt>
      <trkpt lat="43.75818" lon="3.53715">
        <ele>505.15519123723</ele>
        <time>2015-09-09T15:13:57Z</time>
      </trkpt>
      <trkpt lat="43.75816" lon="3.5372">
        <ele>505.15519123723</ele>
        <time>2015-09-09T15:14:06Z</time>
      </trkpt>
      <trkpt lat="43.75817" lon="3.53722">
        <ele>505.15519123723</ele>
        <time>2015-09-09T15:14:07Z</time>
      </trkpt>
      <trkpt lat="43.75812" lon="3.53721">
        <ele>503.81407388792</ele>
        <time>2015-09-09T15:14:23Z</time>
      </trkpt>
      <trkpt lat="43.7581" lon="3.5372">
        <ele>503.81407388792</ele>
        <time>2015-09-09T15:14:29Z</time>
      </trkpt>
      <trkpt lat="43.75808" lon="3.53712">
        <ele>503.81407388792</ele>
        <time>2015-09-09T15:14:36Z</time>
      </trkpt>
      <trkpt lat="43.75807" lon="3.5371">
        <ele>502.80671517257</ele>
        <time>2015-09-09T15:14:37Z</time>
      </trkpt>
      <trkpt lat="43.75803" lon="3.5367">
        <ele>502.70435706759</ele>
        <time>2015-09-09T15:15:06Z</time>
      </trkpt>
      <trkpt lat="43.75804" lon="3.53668">
        <ele>502.70435706759</ele>
        <time>2015-09-09T15:15:07Z</time>
      </trkpt>
      <trkpt lat="43.75803" lon="3.53666">
        <ele>502.70435706759</ele>
        <time>2015-09-09T15:15:17Z</time>
      </trkpt>
      <trkpt lat="43.75786" lon="3.53667">
        <ele>502.93835628669</ele>
        <time>2015-09-09T15:15:31Z</time>
      </trkpt>
      <trkpt lat="43.75784" lon="3.53668">
        <ele>502.93835628669</ele>
        <time>2015-09-09T15:15:32Z</time>
      </trkpt>
      <trkpt lat="43.75781" lon="3.53677">
        <ele>503.39868380891</ele>
        <time>2015-09-09T15:15:44Z</time>
      </trkpt>
      <trkpt lat="43.75781" lon="3.5368">
        <ele>503.39868380891</ele>
        <time>2015-09-09T15:15:44Z</time>
      </trkpt>
      <trkpt lat="43.7578" lon="3.53692">
        <ele>504.24202768918</ele>
        <time>2015-09-09T15:16:12Z</time>
      </trkpt>
      <trkpt lat="43.75778" lon="3.53693">
        <ele>504.24202768918</ele>
        <time>2015-09-09T15:16:23Z</time>
      </trkpt>
      <trkpt lat="43.75773" lon="3.53698">
        <ele>504.24202768918</ele>
        <time>2015-09-09T15:16:27Z</time>
      </trkpt>
      <trkpt lat="43.75774" lon="3.53701">
        <ele>505.06474683868</ele>
        <time>2015-09-09T15:16:37Z</time>
      </trkpt>
      <trkpt lat="43.75774" lon="3.53716">
        <ele>506.14129804916</ele>
        <time>2015-09-09T15:16:48Z</time>
      </trkpt>
      <trkpt lat="43.75772" lon="3.5372">
        <ele>506.14129804916</ele>
        <time>2015-09-09T15:16:55Z</time>
      </trkpt>
      <trkpt lat="43.75771" lon="3.53724">
        <ele>506.14129804916</ele>
        <time>2015-09-09T15:16:57Z</time>
      </trkpt>
      <trkpt lat="43.75772" lon="3.53725">
        <ele>506.14129804916</ele>
        <time>2015-09-09T15:17:08Z</time>
      </trkpt>
      <trkpt lat="43.75773" lon="3.53736">
        <ele>507.60987634971</ele>
        <time>2015-09-09T15:17:14Z</time>
      </trkpt>
      <trkpt lat="43.75773" lon="3.5375">
        <ele>509.2658836591</ele>
        <time>2015-09-09T15:17:29Z</time>
      </trkpt>
      <trkpt lat="43.75767" lon="3.53759">
        <ele>509.2658836591</ele>
        <time>2015-09-09T15:17:49Z</time>
      </trkpt>
      <trkpt lat="43.75766" lon="3.53752">
        <ele>510.93356509149</ele>
        <time>2015-09-09T15:18:02Z</time>
      </trkpt>
      <trkpt lat="43.75765" lon="3.53752">
        <ele>510.93356509149</ele>
        <time>2015-09-09T15:18:07Z</time>
      </trkpt>
      <trkpt lat="43.75758" lon="3.53748">
        <ele>510.93356509149</ele>
        <time>2015-09-09T15:18:14Z</time>
      </trkpt>
      <trkpt lat="43.75758" lon="3.53748">
        <ele>510.93356509149</ele>
        <time>2015-09-09T15:18:23Z</time>
      </trkpt>
      <trkpt lat="43.75754" lon="3.53758">
        <ele>512.91114318367</ele>
        <time>2015-09-09T15:18:29Z</time>
      </trkpt>
      <trkpt lat="43.75754" lon="3.53761">
        <ele>512.91114318367</ele>
        <time>2015-09-09T15:18:33Z</time>
      </trkpt>
      <trkpt lat="43.75757" lon="3.53771">
        <ele>514.85434509692</ele>
        <time>2015-09-09T15:18:44Z</time>
      </trkpt>
      <trkpt lat="43.75754" lon="3.53771">
        <ele>514.85434509692</ele>
        <time>2015-09-09T15:18:47Z</time>
      </trkpt>
      <trkpt lat="43.7575" lon="3.5377">
        <ele>514.85434509692</ele>
        <time>2015-09-09T15:18:52Z</time>
      </trkpt>
      <trkpt lat="43.75747" lon="3.53769">
        <ele>516.64601457664</ele>
        <time>2015-09-09T15:18:57Z</time>
      </trkpt>
      <trkpt lat="43.75747" lon="3.53768">
        <ele>516.64601457664</ele>
        <time>2015-09-09T15:19:02Z</time>
      </trkpt>
      <trkpt lat="43.75747" lon="3.53768">
        <ele>516.64601457664</ele>
        <time>2015-09-09T15:19:07Z</time>
      </trkpt>
      <trkpt lat="43.75746" lon="3.53761">
        <ele>516.64601457664</ele>
        <time>2015-09-09T15:19:12Z</time>
      </trkpt>
      <trkpt lat="43.75743" lon="3.53757">
        <ele>517.94743687717</ele>
        <time>2015-09-09T15:19:17Z</time>
      </trkpt>
      <trkpt lat="43.75741" lon="3.53754">
        <ele>517.94743687717</ele>
        <time>2015-09-09T15:19:22Z</time>
      </trkpt>
      <trkpt lat="43.75739" lon="3.53749">
        <ele>517.94743687717</ele>
        <time>2015-09-09T15:19:27Z</time>
      </trkpt>
      <trkpt lat="43.75736" lon="3.53746">
        <ele>518.84966494967</ele>
        <time>2015-09-09T15:19:32Z</time>
      </trkpt>
      <trkpt lat="43.75734" lon="3.53743">
        <ele>518.84966494967</ele>
        <time>2015-09-09T15:19:37Z</time>
      </trkpt>
      <trkpt lat="43.75729" lon="3.53739">
        <ele>518.84966494967</ele>
        <time>2015-09-09T15:19:45Z</time>
      </trkpt>
      <trkpt lat="43.75724" lon="3.53736">
        <ele>519.43819026874</ele>
        <time>2015-09-09T15:19:55Z</time>
      </trkpt>
      <trkpt lat="43.75721" lon="3.53735">
        <ele>519.43819026874</ele>
        <time>2015-09-09T15:19:57Z</time>
      </trkpt>
      <trkpt lat="43.75718" lon="3.53735">
        <ele>519.43819026874</ele>
        <time>2015-09-09T15:20:04Z</time>
      </trkpt>
      <trkpt lat="43.75716" lon="3.53737">
        <ele>519.43819026874</ele>
        <time>2015-09-09T15:20:07Z</time>
      </trkpt>
      <trkpt lat="43.75715" lon="3.53737">
        <ele>519.43819026874</ele>
        <time>2015-09-09T15:20:14Z</time>
      </trkpt>
      <trkpt lat="43.75705" lon="3.53742">
        <ele>519.63459352909</ele>
        <time>2015-09-09T15:20:34Z</time>
      </trkpt>
      <trkpt lat="43.75705" lon="3.53742">
        <ele>519.63459352909</ele>
        <time>2015-09-09T15:20:37Z</time>
      </trkpt>
      <trkpt lat="43.75705" lon="3.53742">
        <ele>519.63459352909</ele>
        <time>2015-09-09T15:20:44Z</time>
      </trkpt>
      <trkpt lat="43.75713" lon="3.53744">
        <ele>519.48261730733</ele>
        <time>2015-09-09T15:21:16Z</time>
      </trkpt>
      <trkpt lat="43.7572" lon="3.53748">
        <ele>519.48261730733</ele>
        <time>2015-09-09T15:21:40Z</time>
      </trkpt>
      <trkpt lat="43.75721" lon="3.5375">
        <ele>519.48261730733</ele>
        <time>2015-09-09T15:21:42Z</time>
      </trkpt>
      <trkpt lat="43.75718" lon="3.53755">
        <ele>519.11024493138</ele>
        <time>2015-09-09T15:21:49Z</time>
      </trkpt>
      <trkpt lat="43.75714" lon="3.53764">
        <ele>519.11024493138</ele>
        <time>2015-09-09T15:22:14Z</time>
      </trkpt>
      <trkpt lat="43.75713" lon="3.53766">
        <ele>518.52139283824</ele>
        <time>2015-09-09T15:22:17Z</time>
      </trkpt>
      <trkpt lat="43.75711" lon="3.53767">
        <ele>518.52139283824</ele>
        <time>2015-09-09T15:22:22Z</time>
      </trkpt>
      <trkpt lat="43.75709" lon="3.53767">
        <ele>518.52139283824</ele>
        <time>2015-09-09T15:22:27Z</time>
      </trkpt>
      <trkpt lat="43.75714" lon="3.53787">
        <ele>517.54736200119</ele>
        <time>2015-09-09T15:22:47Z</time>
      </trkpt>
      <trkpt lat="43.75714" lon="3.53793">
        <ele>517.54736200119</ele>
        <time>2015-09-09T15:22:59Z</time>
      </trkpt>
      <trkpt lat="43.7571" lon="3.53801">
        <ele>516.23467151865</ele>
        <time>2015-09-09T15:23:17Z</time>
      </trkpt>
      <trkpt lat="43.75718" lon="3.53812">
        <ele>514.80028568245</ele>
        <time>2015-09-09T15:23:46Z</time>
      </trkpt>
      <trkpt lat="43.75715" lon="3.53813">
        <ele>514.80028568245</ele>
        <time>2015-09-09T15:23:47Z</time>
      </trkpt>
      <trkpt lat="43.75713" lon="3.53812">
        <ele>514.80028568245</ele>
        <time>2015-09-09T15:24:00Z</time>
      </trkpt>
      <trkpt lat="43.75716" lon="3.53818">
        <ele>513.08526125426</ele>
        <time>2015-09-09T15:24:03Z</time>
      </trkpt>
      <trkpt lat="43.75716" lon="3.53818">
        <ele>513.08526125426</ele>
        <time>2015-09-09T15:24:04Z</time>
      </trkpt>
      <trkpt lat="43.75712" lon="3.5382">
        <ele>513.08526125426</ele>
        <time>2015-09-09T15:24:15Z</time>
      </trkpt>
      <trkpt lat="43.75711" lon="3.53821">
        <ele>513.08526125426</ele>
        <time>2015-09-09T15:24:17Z</time>
      </trkpt>
      <trkpt lat="43.75706" lon="3.53824">
        <ele>511.18806110833</ele>
        <time>2015-09-09T15:24:25Z</time>
      </trkpt>
      <trkpt lat="43.75706" lon="3.53825">
        <ele>511.18806110833</ele>
        <time>2015-09-09T15:24:27Z</time>
      </trkpt>
      <trkpt lat="43.75708" lon="3.5383">
        <ele>511.18806110833</ele>
        <time>2015-09-09T15:24:32Z</time>
      </trkpt>
      <trkpt lat="43.7571" lon="3.53837">
        <ele>509.22918878258</ele>
        <time>2015-09-09T15:24:40Z</time>
      </trkpt>
      <trkpt lat="43.75709" lon="3.53837">
        <ele>509.22918878258</ele>
        <time>2015-09-09T15:24:42Z</time>
      </trkpt>
      <trkpt lat="43.75707" lon="3.53839">
        <ele>509.22918878258</ele>
        <time>2015-09-09T15:24:47Z</time>
      </trkpt>
      <trkpt lat="43.75703" lon="3.5384">
        <ele>509.22918878258</ele>
        <time>2015-09-09T15:24:52Z</time>
      </trkpt>
      <trkpt lat="43.75699" lon="3.53846">
        <ele>507.20510651009</ele>
        <time>2015-09-09T15:24:57Z</time>
      </trkpt>
      <trkpt lat="43.75692" lon="3.53849">
        <ele>507.20510651009</ele>
        <time>2015-09-09T15:25:04Z</time>
      </trkpt>
      <trkpt lat="43.75692" lon="3.53849">
        <ele>507.20510651009</ele>
        <time>2015-09-09T15:25:07Z</time>
      </trkpt>
      <trkpt lat="43.7567" lon="3.53849">
        <ele>504.92528776192</ele>
        <time>2015-09-09T15:25:17Z</time>
      </trkpt>
      <trkpt lat="43.75664" lon="3.53852">
        <ele>504.92528776192</ele>
        <time>2015-09-09T15:25:33Z</time>
      </trkpt>
      <trkpt lat="43.75647" lon="3.53866">
        <ele>502.40116309111</ele>
        <time>2015-09-09T15:25:48Z</time>
      </trkpt>
      <trkpt lat="43.75645" lon="3.53871">
        <ele>502.40116309111</ele>
        <time>2015-09-09T15:26:00Z</time>
      </trkpt>
      <trkpt lat="43.75642" lon="3.5388">
        <ele>499.86006115183</ele>
        <time>2015-09-09T15:26:02Z</time>
      </trkpt>
      <trkpt lat="43.75639" lon="3.53886">
        <ele>499.86006115183</ele>
        <time>2015-09-09T15:26:14Z</time>
      </trkpt>
      <trkpt lat="43.75625" lon="3.53895">
        <ele>497.32518672443</ele>
        <time>2015-09-09T15:26:17Z</time>
      </trkpt>
      <trkpt lat="43.75618" lon="3.53902">
        <ele>497.32518672443</ele>
        <time>2015-09-09T15:26:25Z</time>
      </trkpt>
      <trkpt lat="43.75617" lon="3.53903">
        <ele>494.90434915092</ele>
        <time>2015-09-09T15:26:31Z</time>
      </trkpt>
      <trkpt lat="43.7561" lon="3.539">
        <ele>494.90434915092</ele>
        <time>2015-09-09T15:26:34Z</time>
      </trkpt>
      <trkpt lat="43.75599" lon="3.53917">
        <ele>492.25022184781</ele>
        <time>2015-09-09T15:26:48Z</time>
      </trkpt>
      <trkpt lat="43.75596" lon="3.53922">
        <ele>492.25022184781</ele>
        <time>2015-09-09T15:26:53Z</time>
      </trkpt>
      <trkpt lat="43.75591" lon="3.53927">
        <ele>489.64675181316</ele>
        <time>2015-09-09T15:27:00Z</time>
      </trkpt>
      <trkpt lat="43.75589" lon="3.53929">
        <ele>489.64675181316</ele>
        <time>2015-09-09T15:27:02Z</time>
      </trkpt>
      <trkpt lat="43.7558" lon="3.53936">
        <ele>486.85232449761</ele>
        <time>2015-09-09T15:27:17Z</time>
      </trkpt>
      <trkpt lat="43.75581" lon="3.53941">
        <ele>486.85232449761</ele>
        <time>2015-09-09T15:27:32Z</time>
      </trkpt>
      <trkpt lat="43.75575" lon="3.53954">
        <ele>483.72989544379</ele>
        <time>2015-09-09T15:27:45Z</time>
      </trkpt>
      <trkpt lat="43.75574" lon="3.53955">
        <ele>483.72989544379</ele>
        <time>2015-09-09T15:27:47Z</time>
      </trkpt>
      <trkpt lat="43.75574" lon="3.53956">
        <ele>483.72989544379</ele>
        <time>2015-09-09T15:27:52Z</time>
      </trkpt>
      <trkpt lat="43.75572" lon="3.53958">
        <ele>483.72989544379</ele>
        <time>2015-09-09T15:27:57Z</time>
      </trkpt>
      <trkpt lat="43.75557" lon="3.53979">
        <ele>480.26850555238</ele>
        <time>2015-09-09T15:28:17Z</time>
      </trkpt>
      <trkpt lat="43.75553" lon="3.53984">
        <ele>480.26850555238</ele>
        <time>2015-09-09T15:28:25Z</time>
      </trkpt>
      <trkpt lat="43.75552" lon="3.53991">
        <ele>476.9487290692</ele>
        <time>2015-09-09T15:28:27Z</time>
      </trkpt>
      <trkpt lat="43.75534" lon="3.54022">
        <ele>473.40820708752</ele>
        <time>2015-09-09T15:28:54Z</time>
      </trkpt>
      <trkpt lat="43.75521" lon="3.5404">
        <ele>469.52776432206</ele>
        <time>2015-09-09T15:29:17Z</time>
      </trkpt>
      <trkpt lat="43.75516" lon="3.54039">
        <ele>469.52776432206</ele>
        <time>2015-09-09T15:29:39Z</time>
      </trkpt>
      <trkpt lat="43.75499" lon="3.54056">
        <ele>465.51474685939</ele>
        <time>2015-09-09T15:29:42Z</time>
      </trkpt>
      <trkpt lat="43.75495" lon="3.54064">
        <ele>465.51474685939</ele>
        <time>2015-09-09T15:29:50Z</time>
      </trkpt>
      <trkpt lat="43.75493" lon="3.54066">
        <ele>461.77756718161</ele>
        <time>2015-09-09T15:29:53Z</time>
      </trkpt>
      <trkpt lat="43.75489" lon="3.54077">
        <ele>458.30451293177</ele>
        <time>2015-09-09T15:29:59Z</time>
      </trkpt>
      <trkpt lat="43.75488" lon="3.54082">
        <ele>458.30451293177</ele>
        <time>2015-09-09T15:30:02Z</time>
      </trkpt>
      <trkpt lat="43.75485" lon="3.54118">
        <ele>454.72345713138</ele>
        <time>2015-09-09T15:30:25Z</time>
      </trkpt>
      <trkpt lat="43.75485" lon="3.54119">
        <ele>454.72345713138</ele>
        <time>2015-09-09T15:30:29Z</time>
      </trkpt>
      <trkpt lat="43.75487" lon="3.54127">
        <ele>454.72345713138</ele>
        <time>2015-09-09T15:30:38Z</time>
      </trkpt>
      <trkpt lat="43.7549" lon="3.54141">
        <ele>451.38138496442</ele>
        <time>2015-09-09T15:30:48Z</time>
      </trkpt>
      <trkpt lat="43.75499" lon="3.54148">
        <ele>447.54684648179</ele>
        <time>2015-09-09T15:30:54Z</time>
      </trkpt>
      <trkpt lat="43.7551" lon="3.54127">
        <ele>443.8978843395</ele>
        <time>2015-09-09T15:31:22Z</time>
      </trkpt>
      <trkpt lat="43.75533" lon="3.54099">
        <ele>439.3470204032</ele>
        <time>2015-09-09T15:32:00Z</time>
      </trkpt>
      <trkpt lat="43.75557" lon="3.54084">
        <ele>434.45973118719</ele>
        <time>2015-09-09T15:32:23Z</time>
      </trkpt>
      <trkpt lat="43.75563" lon="3.5408">
        <ele>434.45973118719</ele>
        <time>2015-09-09T15:32:27Z</time>
      </trkpt>
      <trkpt lat="43.75599" lon="3.54061">
        <ele>428.43479457296</ele>
        <time>2015-09-09T15:32:58Z</time>
      </trkpt>
      <trkpt lat="43.75606" lon="3.54055">
        <ele>428.43479457296</ele>
        <time>2015-09-09T15:33:04Z</time>
      </trkpt>
      <trkpt lat="43.75611" lon="3.54054">
        <ele>422.70882643831</ele>
        <time>2015-09-09T15:33:07Z</time>
      </trkpt>
      <trkpt lat="43.75616" lon="3.54052">
        <ele>422.70882643831</ele>
        <time>2015-09-09T15:33:12Z</time>
      </trkpt>
      <trkpt lat="43.75616" lon="3.54053">
        <ele>422.70882643831</ele>
        <time>2015-09-09T15:33:17Z</time>
      </trkpt>
      <trkpt lat="43.75616" lon="3.54058">
        <ele>417.02654737941</ele>
        <time>2015-09-09T15:33:22Z</time>
      </trkpt>
      <trkpt lat="43.75615" lon="3.54063">
        <ele>417.02654737941</ele>
        <time>2015-09-09T15:33:27Z</time>
      </trkpt>
      <trkpt lat="43.75613" lon="3.54069">
        <ele>417.02654737941</ele>
        <time>2015-09-09T15:33:32Z</time>
      </trkpt>
      <trkpt lat="43.75611" lon="3.54077">
        <ele>411.36716239309</ele>
        <time>2015-09-09T15:33:37Z</time>
      </trkpt>
      <trkpt lat="43.75608" lon="3.54082">
        <ele>411.36716239309</ele>
        <time>2015-09-09T15:33:42Z</time>
      </trkpt>
      <trkpt lat="43.75604" lon="3.54088">
        <ele>405.98482841545</ele>
        <time>2015-09-09T15:33:47Z</time>
      </trkpt>
      <trkpt lat="43.75603" lon="3.54095">
        <ele>405.98482841545</ele>
        <time>2015-09-09T15:33:52Z</time>
      </trkpt>
      <trkpt lat="43.75601" lon="3.541">
        <ele>400.98422541293</ele>
        <time>2015-09-09T15:33:57Z</time>
      </trkpt>
      <trkpt lat="43.75599" lon="3.54105">
        <ele>400.98422541293</ele>
        <time>2015-09-09T15:34:02Z</time>
      </trkpt>
      <trkpt lat="43.75598" lon="3.54116">
        <ele>396.17271711683</ele>
        <time>2015-09-09T15:34:07Z</time>
      </trkpt>
      <trkpt lat="43.75597" lon="3.54125">
        <ele>396.17271711683</ele>
        <time>2015-09-09T15:34:12Z</time>
      </trkpt>
      <trkpt lat="43.75595" lon="3.54131">
        <ele>391.47183155013</ele>
        <time>2015-09-09T15:34:24Z</time>
      </trkpt>
      <trkpt lat="43.75589" lon="3.5414">
        <ele>386.89468585991</ele>
        <time>2015-09-09T15:34:27Z</time>
      </trkpt>
      <trkpt lat="43.75574" lon="3.54239">
        <ele>380.49284407461</ele>
        <time>2015-09-09T15:35:32Z</time>
      </trkpt>
      <trkpt lat="43.75564" lon="3.54283">
        <ele>373.96769097197</ele>
        <time>2015-09-09T15:36:02Z</time>
      </trkpt>
      <trkpt lat="43.75554" lon="3.54316">
        <ele>367.5986415769</ele>
        <time>2015-09-09T15:36:27Z</time>
      </trkpt>
      <trkpt lat="43.75549" lon="3.54319">
        <ele>367.5986415769</ele>
        <time>2015-09-09T15:36:32Z</time>
      </trkpt>
      <trkpt lat="43.75516" lon="3.54312">
        <ele>360.76473152366</ele>
        <time>2015-09-09T15:37:18Z</time>
      </trkpt>
      <trkpt lat="43.75497" lon="3.54314">
        <ele>354.49120657668</ele>
        <time>2015-09-09T15:37:22Z</time>
      </trkpt>
      <trkpt lat="43.75485" lon="3.54313">
        <ele>348.789356903</ele>
        <time>2015-09-09T15:37:32Z</time>
      </trkpt>
      <trkpt lat="43.75481" lon="3.54313">
        <ele>348.789356903</ele>
        <time>2015-09-09T15:37:48Z</time>
      </trkpt>
      <trkpt lat="43.75465" lon="3.54312">
        <ele>344.07120460799</ele>
        <time>2015-09-09T15:38:03Z</time>
      </trkpt>
      <trkpt lat="43.75457" lon="3.54307">
        <ele>344.07120460799</ele>
        <time>2015-09-09T15:38:09Z</time>
      </trkpt>
      <trkpt lat="43.7545" lon="3.54305">
        <ele>340.16778282399</ele>
        <time>2015-09-09T15:38:15Z</time>
      </trkpt>
      <trkpt lat="43.75448" lon="3.54304">
        <ele>340.16778282399</ele>
        <time>2015-09-09T15:38:17Z</time>
      </trkpt>
      <trkpt lat="43.75442" lon="3.54304">
        <ele>340.16778282399</ele>
        <time>2015-09-09T15:38:24Z</time>
      </trkpt>
      <trkpt lat="43.75439" lon="3.54305">
        <ele>337.02080212559</ele>
        <time>2015-09-09T15:38:27Z</time>
      </trkpt>
      <trkpt lat="43.75435" lon="3.54306">
        <ele>337.02080212559</ele>
        <time>2015-09-09T15:38:32Z</time>
      </trkpt>
      <trkpt lat="43.75393" lon="3.54317">
        <ele>334.73234818634</ele>
        <time>2015-09-09T15:39:10Z</time>
      </trkpt>
      <trkpt lat="43.75363" lon="3.54321">
        <ele>332.88992879294</ele>
        <time>2015-09-09T15:39:34Z</time>
      </trkpt>
      <trkpt lat="43.75361" lon="3.54323">
        <ele>332.88992879294</ele>
        <time>2015-09-09T15:39:37Z</time>
      </trkpt>
      <trkpt lat="43.75334" lon="3.54338">
        <ele>331.54218472143</ele>
        <time>2015-09-09T15:39:57Z</time>
      </trkpt>
      <trkpt lat="43.75323" lon="3.54349">
        <ele>330.61729032197</ele>
        <time>2015-09-09T15:40:08Z</time>
      </trkpt>
      <trkpt lat="43.75308" lon="3.54373">
        <ele>329.97527397431</ele>
        <time>2015-09-09T15:40:27Z</time>
      </trkpt>
      <trkpt lat="43.75303" lon="3.54375">
        <ele>329.97527397431</ele>
        <time>2015-09-09T15:40:33Z</time>
      </trkpt>
      <trkpt lat="43.75295" lon="3.54382">
        <ele>329.65844310699</ele>
        <time>2015-09-09T15:40:37Z</time>
      </trkpt>
      <trkpt lat="43.75274" lon="3.54397">
        <ele>329.6617467322</ele>
        <time>2015-09-09T15:41:06Z</time>
      </trkpt>
      <trkpt lat="43.75266" lon="3.54402">
        <ele>329.993951307</ele>
        <time>2015-09-09T15:41:07Z</time>
      </trkpt>
      <trkpt lat="43.75261" lon="3.54403">
        <ele>329.993951307</ele>
        <time>2015-09-09T15:41:21Z</time>
      </trkpt>
      <trkpt lat="43.75242" lon="3.54428">
        <ele>330.77751743755</ele>
        <time>2015-09-09T15:41:42Z</time>
      </trkpt>
      <trkpt lat="43.75205" lon="3.54455">
        <ele>331.7211425275</ele>
        <time>2015-09-09T15:42:12Z</time>
      </trkpt>
      <trkpt lat="43.75193" lon="3.54458">
        <ele>333.0012668113</ele>
        <time>2015-09-09T15:42:19Z</time>
      </trkpt>
      <trkpt lat="43.75187" lon="3.5446">
        <ele>333.0012668113</ele>
        <time>2015-09-09T15:42:25Z</time>
      </trkpt>
      <trkpt lat="43.75185" lon="3.5446">
        <ele>333.0012668113</ele>
        <time>2015-09-09T15:42:27Z</time>
      </trkpt>
      <trkpt lat="43.75182" lon="3.54456">
        <ele>334.75168947288</ele>
        <time>2015-09-09T15:42:32Z</time>
      </trkpt>
      <trkpt lat="43.75174" lon="3.5445">
        <ele>336.72049640734</ele>
        <time>2015-09-09T15:42:47Z</time>
      </trkpt>
      <trkpt lat="43.75167" lon="3.54448">
        <ele>336.72049640734</ele>
        <time>2015-09-09T15:42:48Z</time>
      </trkpt>
      <trkpt lat="43.75143" lon="3.54435">
        <ele>339.17821658519</ele>
        <time>2015-09-09T15:43:12Z</time>
      </trkpt>
      <trkpt lat="43.75136" lon="3.54428">
        <ele>339.17821658519</ele>
        <time>2015-09-09T15:43:23Z</time>
      </trkpt>
      <trkpt lat="43.75119" lon="3.54422">
        <ele>341.85553232998</ele>
        <time>2015-09-09T15:43:32Z</time>
      </trkpt>
      <trkpt lat="43.75107" lon="3.54424">
        <ele>344.44488303232</ele>
        <time>2015-09-09T15:43:44Z</time>
      </trkpt>
      <trkpt lat="43.75088" lon="3.54434">
        <ele>347.02209344115</ele>
        <time>2015-09-09T15:44:21Z</time>
      </trkpt>
      <trkpt lat="43.75078" lon="3.54441">
        <ele>349.55687320752</ele>
        <time>2015-09-09T15:44:27Z</time>
      </trkpt>
      <trkpt lat="43.7507" lon="3.54445">
        <ele>349.55687320752</ele>
        <time>2015-09-09T15:44:32Z</time>
      </trkpt>
      <trkpt lat="43.75068" lon="3.54448">
        <ele>352.02160271002</ele>
        <time>2015-09-09T15:44:37Z</time>
      </trkpt>
      <trkpt lat="43.75065" lon="3.54453">
        <ele>352.02160271002</ele>
        <time>2015-09-09T15:44:42Z</time>
      </trkpt>
      <trkpt lat="43.7504" lon="3.54479">
        <ele>353.97331551432</ele>
        <time>2015-09-09T15:45:04Z</time>
      </trkpt>
      <trkpt lat="43.75039" lon="3.5448">
        <ele>353.97331551432</ele>
        <time>2015-09-09T15:45:12Z</time>
      </trkpt>
      <trkpt lat="43.75033" lon="3.54501">
        <ele>355.79600549427</ele>
        <time>2015-09-09T15:45:19Z</time>
      </trkpt>
      <trkpt lat="43.75024" lon="3.54537">
        <ele>357.44269411342</ele>
        <time>2015-09-09T15:45:43Z</time>
      </trkpt>
      <trkpt lat="43.75023" lon="3.5454">
        <ele>357.44269411342</ele>
        <time>2015-09-09T15:45:53Z</time>
      </trkpt>
      <trkpt lat="43.7502" lon="3.54558">
        <ele>359.07249931839</ele>
        <time>2015-09-09T15:45:57Z</time>
      </trkpt>
      <trkpt lat="43.75014" lon="3.54584">
        <ele>360.57390131555</ele>
        <time>2015-09-09T15:46:13Z</time>
      </trkpt>
      <trkpt lat="43.75007" lon="3.54592">
        <ele>361.97404135355</ele>
        <time>2015-09-09T15:46:19Z</time>
      </trkpt>
      <trkpt lat="43.75006" lon="3.54594">
        <ele>361.97404135355</ele>
        <time>2015-09-09T15:46:25Z</time>
      </trkpt>
      <trkpt lat="43.74994" lon="3.54602">
        <ele>363.21229520917</ele>
        <time>2015-09-09T15:46:27Z</time>
      </trkpt>
      <trkpt lat="43.74987" lon="3.54611">
        <ele>364.26217926942</ele>
        <time>2015-09-09T15:46:32Z</time>
      </trkpt>
      <trkpt lat="43.74978" lon="3.54629">
        <ele>365.27302565938</ele>
        <time>2015-09-09T15:46:44Z</time>
      </trkpt>
      <trkpt lat="43.74964" lon="3.5465">
        <ele>366.06666531865</ele>
        <time>2015-09-09T15:47:05Z</time>
      </trkpt>
      <trkpt lat="43.74963" lon="3.54653">
        <ele>366.06666531865</ele>
        <time>2015-09-09T15:47:07Z</time>
      </trkpt>
      <trkpt lat="43.74956" lon="3.54657">
        <ele>366.63754577972</ele>
        <time>2015-09-09T15:47:18Z</time>
      </trkpt>
      <trkpt lat="43.74939" lon="3.5464">
        <ele>366.88065707724</ele>
        <time>2015-09-09T15:47:42Z</time>
      </trkpt>
      <trkpt lat="43.74935" lon="3.54635">
        <ele>366.88065707724</ele>
        <time>2015-09-09T15:47:47Z</time>
      </trkpt>
      <trkpt lat="43.74923" lon="3.54611">
        <ele>366.88734323822</ele>
        <time>2015-09-09T15:48:07Z</time>
      </trkpt>
      <trkpt lat="43.74918" lon="3.54599">
        <ele>366.82973055144</ele>
        <time>2015-09-09T15:48:20Z</time>
      </trkpt>
      <trkpt lat="43.74914" lon="3.54594">
        <ele>366.82973055144</ele>
        <time>2015-09-09T15:48:22Z</time>
      </trkpt>
      <trkpt lat="43.74906" lon="3.5459">
        <ele>366.59401705395</ele>
        <time>2015-09-09T15:48:29Z</time>
      </trkpt>
      <trkpt lat="43.74904" lon="3.54587">
        <ele>366.59401705395</ele>
        <time>2015-09-09T15:48:36Z</time>
      </trkpt>
      <trkpt lat="43.74892" lon="3.54567">
        <ele>366.13323452294</ele>
        <time>2015-09-09T15:48:53Z</time>
      </trkpt>
      <trkpt lat="43.74881" lon="3.54548">
        <ele>365.57774156136</ele>
        <time>2015-09-09T15:49:06Z</time>
      </trkpt>
      <trkpt lat="43.7488" lon="3.54547">
        <ele>365.57774156136</ele>
        <time>2015-09-09T15:49:07Z</time>
      </trkpt>
      <trkpt lat="43.74868" lon="3.54544">
        <ele>364.91917930995</ele>
        <time>2015-09-09T15:49:20Z</time>
      </trkpt>
      <trkpt lat="43.74866" lon="3.54543">
        <ele>364.91917930995</ele>
        <time>2015-09-09T15:49:20Z</time>
      </trkpt>
      <trkpt lat="43.74865" lon="3.54543">
        <ele>364.91917930995</ele>
        <time>2015-09-09T15:49:22Z</time>
      </trkpt>
      <trkpt lat="43.7484" lon="3.54549">
        <ele>363.89096501216</ele>
        <time>2015-09-09T15:49:47Z</time>
      </trkpt>
      <trkpt lat="43.74795" lon="3.54561">
        <ele>362.42032111751</ele>
        <time>2015-09-09T15:50:17Z</time>
      </trkpt>
      <trkpt lat="43.74788" lon="3.54564">
        <ele>362.42032111751</ele>
        <time>2015-09-09T15:50:25Z</time>
      </trkpt>
      <trkpt lat="43.74785" lon="3.54565">
        <ele>360.78715369719</ele>
        <time>2015-09-09T15:50:27Z</time>
      </trkpt>
      <trkpt lat="43.74779" lon="3.54566">
        <ele>360.78715369719</ele>
        <time>2015-09-09T15:50:32Z</time>
      </trkpt>
      <trkpt lat="43.74762" lon="3.54571">
        <ele>358.68943480977</ele>
        <time>2015-09-09T15:50:48Z</time>
      </trkpt>
      <trkpt lat="43.74749" lon="3.54576">
        <ele>356.45407326111</ele>
        <time>2015-09-09T15:50:59Z</time>
      </trkpt>
      <trkpt lat="43.74747" lon="3.54575">
        <ele>356.45407326111</ele>
        <time>2015-09-09T15:51:00Z</time>
      </trkpt>
      <trkpt lat="43.74732" lon="3.54576">
        <ele>353.82246890523</ele>
        <time>2015-09-09T15:51:16Z</time>
      </trkpt>
      <trkpt lat="43.74728" lon="3.54575">
        <ele>353.82246890523</ele>
        <time>2015-09-09T15:51:17Z</time>
      </trkpt>
      <trkpt lat="43.74717" lon="3.54565">
        <ele>350.93094413972</ele>
        <time>2015-09-09T15:51:28Z</time>
      </trkpt>
      <trkpt lat="43.74713" lon="3.5454">
        <ele>348.02192255525</ele>
        <time>2015-09-09T15:51:47Z</time>
      </trkpt>
      <trkpt lat="43.74715" lon="3.54526">
        <ele>345.0751490138</ele>
        <time>2015-09-09T15:51:57Z</time>
      </trkpt>
      <trkpt lat="43.7472" lon="3.54508">
        <ele>341.78378170864</ele>
        <time>2015-09-09T15:52:17Z</time>
      </trkpt>
      <trkpt lat="43.74726" lon="3.54498">
        <ele>338.48417918517</ele>
        <time>2015-09-09T15:52:30Z</time>
      </trkpt>
      <trkpt lat="43.74727" lon="3.54494">
        <ele>338.48417918517</ele>
        <time>2015-09-09T15:52:30Z</time>
      </trkpt>
      <trkpt lat="43.74728" lon="3.54491">
        <ele>338.48417918517</ele>
        <time>2015-09-09T15:52:32Z</time>
      </trkpt>
      <trkpt lat="43.74737" lon="3.54475">
        <ele>335.08449274496</ele>
        <time>2015-09-09T15:52:47Z</time>
      </trkpt>
      <trkpt lat="43.74741" lon="3.54468">
        <ele>335.08449274496</ele>
        <time>2015-09-09T15:52:52Z</time>
      </trkpt>
      <trkpt lat="43.74745" lon="3.5446">
        <ele>331.8169115089</ele>
        <time>2015-09-09T15:52:57Z</time>
      </trkpt>
      <trkpt lat="43.74752" lon="3.54421">
        <ele>328.56468436677</ele>
        <time>2015-09-09T15:53:29Z</time>
      </trkpt>
      <trkpt lat="43.74757" lon="3.54364">
        <ele>325.34921542054</ele>
        <time>2015-09-09T15:53:56Z</time>
      </trkpt>
      <trkpt lat="43.7476" lon="3.54319">
        <ele>322.00279161742</ele>
        <time>2015-09-09T15:54:22Z</time>
      </trkpt>
      <trkpt lat="43.74762" lon="3.54312">
        <ele>322.00279161742</ele>
        <time>2015-09-09T15:54:28Z</time>
      </trkpt>
      <trkpt lat="43.74763" lon="3.54306">
        <ele>318.9323071094</ele>
        <time>2015-09-09T15:54:32Z</time>
      </trkpt>
      <trkpt lat="43.74763" lon="3.54268">
        <ele>315.77889602616</ele>
        <time>2015-09-09T15:54:52Z</time>
      </trkpt>
      <trkpt lat="43.74764" lon="3.54259">
        <ele>315.77889602616</ele>
        <time>2015-09-09T15:55:02Z</time>
      </trkpt>
      <trkpt lat="43.74761" lon="3.5423">
        <ele>312.71453448066</ele>
        <time>2015-09-09T15:55:22Z</time>
      </trkpt>
      <trkpt lat="43.7476" lon="3.54221">
        <ele>312.71453448066</ele>
        <time>2015-09-09T15:55:27Z</time>
      </trkpt>
      <trkpt lat="43.74766" lon="3.5417">
        <ele>309.84051827874</ele>
        <time>2015-09-09T15:55:56Z</time>
      </trkpt>
      <trkpt lat="43.74766" lon="3.54168">
        <ele>309.84051827874</ele>
        <time>2015-09-09T15:55:57Z</time>
      </trkpt>
      <trkpt lat="43.74764" lon="3.54157">
        <ele>307.23559569486</ele>
        <time>2015-09-09T15:56:11Z</time>
      </trkpt>
      <trkpt lat="43.74762" lon="3.54144">
        <ele>305.0438637203</ele>
        <time>2015-09-09T15:56:11Z</time>
      </trkpt>
      <trkpt lat="43.74759" lon="3.54137">
        <ele>305.0438637203</ele>
        <time>2015-09-09T15:56:17Z</time>
      </trkpt>
      <trkpt lat="43.74759" lon="3.54136">
        <ele>305.0438637203</ele>
        <time>2015-09-09T15:56:25Z</time>
      </trkpt>
      <trkpt lat="43.74754" lon="3.54131">
        <ele>303.22457170855</ele>
        <time>2015-09-09T15:56:27Z</time>
      </trkpt>
      <trkpt lat="43.7473" lon="3.5412">
        <ele>301.81080438251</ele>
        <time>2015-09-09T15:56:52Z</time>
      </trkpt>
      <trkpt lat="43.74716" lon="3.54122">
        <ele>300.5292801655</ele>
        <time>2015-09-09T15:57:02Z</time>
      </trkpt>
      <trkpt lat="43.74695" lon="3.54111">
        <ele>299.64506422715</ele>
        <time>2015-09-09T15:57:27Z</time>
      </trkpt>
      <trkpt lat="43.74688" lon="3.54113">
        <ele>299.64506422715</ele>
        <time>2015-09-09T15:57:32Z</time>
      </trkpt>
      <trkpt lat="43.74662" lon="3.54115">
        <ele>299.11426565873</ele>
        <time>2015-09-09T15:57:58Z</time>
      </trkpt>
      <trkpt lat="43.7466" lon="3.54113">
        <ele>299.11426565873</ele>
        <time>2015-09-09T15:58:02Z</time>
      </trkpt>
      <trkpt lat="43.74653" lon="3.54108">
        <ele>298.88067978997</ele>
        <time>2015-09-09T15:58:13Z</time>
      </trkpt>
      <trkpt lat="43.74637" lon="3.54109">
        <ele>298.71834207756</ele>
        <time>2015-09-09T15:58:27Z</time>
      </trkpt>
      <trkpt lat="43.74631" lon="3.54115">
        <ele>298.71834207756</ele>
        <time>2015-09-09T15:58:32Z</time>
      </trkpt>
      <trkpt lat="43.74596" lon="3.54128">
        <ele>298.72021479297</ele>
        <time>2015-09-09T15:59:02Z</time>
      </trkpt>
      <trkpt lat="43.74591" lon="3.54133">
        <ele>298.72021479297</ele>
        <time>2015-09-09T15:59:16Z</time>
      </trkpt>
      <trkpt lat="43.74571" lon="3.54142">
        <ele>298.29455744426</ele>
        <time>2015-09-09T15:59:32Z</time>
      </trkpt>
      <trkpt lat="43.74527" lon="3.54146">
        <ele>297.47066583489</ele>
        <time>2015-09-09T16:00:09Z</time>
      </trkpt>
      <trkpt lat="43.74526" lon="3.54146">
        <ele>297.47066583489</ele>
        <time>2015-09-09T16:00:18Z</time>
      </trkpt>
      <trkpt lat="43.74515" lon="3.54147">
        <ele>296.69465893176</ele>
        <time>2015-09-09T16:00:22Z</time>
      </trkpt>
      <trkpt lat="43.7451" lon="3.54148">
        <ele>296.69465893176</ele>
        <time>2015-09-09T16:00:30Z</time>
      </trkpt>
      <trkpt lat="43.74504" lon="3.54148">
        <ele>296.07706239694</ele>
        <time>2015-09-09T16:00:32Z</time>
      </trkpt>
      <trkpt lat="43.74501" lon="3.54148">
        <ele>296.07706239694</ele>
        <time>2015-09-09T16:00:44Z</time>
      </trkpt>
      <trkpt lat="43.74466" lon="3.54162">
        <ele>295.40274854935</ele>
        <time>2015-09-09T16:01:07Z</time>
      </trkpt>
      <trkpt lat="43.74461" lon="3.54168">
        <ele>295.40274854935</ele>
        <time>2015-09-09T16:01:12Z</time>
      </trkpt>
      <trkpt lat="43.74457" lon="3.54171">
        <ele>294.78955933379</ele>
        <time>2015-09-09T16:01:17Z</time>
      </trkpt>
      <trkpt lat="43.74454" lon="3.54172">
        <ele>294.78955933379</ele>
        <time>2015-09-09T16:01:22Z</time>
      </trkpt>
      <trkpt lat="43.74448" lon="3.54167">
        <ele>294.72116928287</ele>
        <time>2015-09-09T16:01:27Z</time>
      </trkpt>
      <trkpt lat="43.74439" lon="3.54168">
        <ele>294.72116928287</ele>
        <time>2015-09-09T16:01:41Z</time>
      </trkpt>
      <trkpt lat="43.7441" lon="3.54179">
        <ele>294.99567533544</ele>
        <time>2015-09-09T16:02:06Z</time>
      </trkpt>
      <trkpt lat="43.74409" lon="3.5418">
        <ele>294.99567533544</ele>
        <time>2015-09-09T16:02:07Z</time>
      </trkpt>
      <trkpt lat="43.744" lon="3.54186">
        <ele>295.30974747812</ele>
        <time>2015-09-09T16:02:24Z</time>
      </trkpt>
      <trkpt lat="43.7439" lon="3.54189">
        <ele>295.71368714053</ele>
        <time>2015-09-09T16:02:27Z</time>
      </trkpt>
      <trkpt lat="43.74386" lon="3.54188">
        <ele>295.71368714053</ele>
        <time>2015-09-09T16:02:32Z</time>
      </trkpt>
      <trkpt lat="43.74355" lon="3.5419">
        <ele>296.00887644734</ele>
        <time>2015-09-09T16:03:06Z</time>
      </trkpt>
      <trkpt lat="43.74354" lon="3.5419">
        <ele>296.00887644734</ele>
        <time>2015-09-09T16:03:07Z</time>
      </trkpt>
      <trkpt lat="43.74348" lon="3.54194">
        <ele>296.00887644734</ele>
        <time>2015-09-09T16:03:20Z</time>
      </trkpt>
      <trkpt lat="43.74328" lon="3.54218">
        <ele>295.98279921628</ele>
        <time>2015-09-09T16:03:37Z</time>
      </trkpt>
      <trkpt lat="43.74323" lon="3.5422">
        <ele>295.98279921628</ele>
        <time>2015-09-09T16:03:42Z</time>
      </trkpt>
      <trkpt lat="43.74308" lon="3.54236">
        <ele>295.82859045813</ele>
        <time>2015-09-09T16:04:00Z</time>
      </trkpt>
      <trkpt lat="43.74307" lon="3.54237">
        <ele>295.82859045813</ele>
        <time>2015-09-09T16:04:02Z</time>
      </trkpt>
      <trkpt lat="43.74298" lon="3.54242">
        <ele>295.62472580521</ele>
        <time>2015-09-09T16:04:15Z</time>
      </trkpt>
      <trkpt lat="43.74294" lon="3.54245">
        <ele>295.62472580521</ele>
        <time>2015-09-09T16:04:17Z</time>
      </trkpt>
      <trkpt lat="43.74289" lon="3.5425">
        <ele>295.40087482335</ele>
        <time>2015-09-09T16:04:23Z</time>
      </trkpt>
      <trkpt lat="43.74286" lon="3.54252">
        <ele>295.40087482335</ele>
        <time>2015-09-09T16:04:27Z</time>
      </trkpt>
      <trkpt lat="43.74279" lon="3.54262">
        <ele>295.12699657177</ele>
        <time>2015-09-09T16:04:33Z</time>
      </trkpt>
      <trkpt lat="43.74276" lon="3.54267">
        <ele>295.12699657177</ele>
        <time>2015-09-09T16:04:37Z</time>
      </trkpt>
      <trkpt lat="43.74273" lon="3.54272">
        <ele>294.81869166643</ele>
        <time>2015-09-09T16:04:51Z</time>
      </trkpt>
      <trkpt lat="43.74252" lon="3.54313">
        <ele>294.34646386538</ele>
        <time>2015-09-09T16:05:12Z</time>
      </trkpt>
      <trkpt lat="43.74249" lon="3.54322">
        <ele>294.34646386538</ele>
        <time>2015-09-09T16:05:27Z</time>
      </trkpt>
      <trkpt lat="43.7424" lon="3.54335">
        <ele>293.67732145192</ele>
        <time>2015-09-09T16:05:32Z</time>
      </trkpt>
      <trkpt lat="43.74234" lon="3.54355">
        <ele>292.93983654574</ele>
        <time>2015-09-09T16:05:42Z</time>
      </trkpt>
      <trkpt lat="43.74233" lon="3.54361">
        <ele>292.93983654574</ele>
        <time>2015-09-09T16:05:47Z</time>
      </trkpt>
      <trkpt lat="43.74231" lon="3.54367">
        <ele>292.12369281321</ele>
        <time>2015-09-09T16:05:52Z</time>
      </trkpt>
      <trkpt lat="43.74229" lon="3.54371">
        <ele>292.12369281321</ele>
        <time>2015-09-09T16:05:57Z</time>
      </trkpt>
      <trkpt lat="43.74226" lon="3.54374">
        <ele>292.12369281321</ele>
        <time>2015-09-09T16:06:02Z</time>
      </trkpt>
      <trkpt lat="43.74223" lon="3.54379">
        <ele>291.14755938141</ele>
        <time>2015-09-09T16:06:07Z</time>
      </trkpt>
      <trkpt lat="43.74221" lon="3.54385">
        <ele>291.14755938141</ele>
        <time>2015-09-09T16:06:12Z</time>
      </trkpt>
      <trkpt lat="43.74218" lon="3.54387">
        <ele>291.14755938141</ele>
        <time>2015-09-09T16:06:17Z</time>
      </trkpt>
      <trkpt lat="43.74215" lon="3.54392">
        <ele>290.00864360297</ele>
        <time>2015-09-09T16:06:22Z</time>
      </trkpt>
      <trkpt lat="43.74213" lon="3.54399">
        <ele>290.00864360297</ele>
        <time>2015-09-09T16:06:27Z</time>
      </trkpt>
      <trkpt lat="43.74211" lon="3.54407">
        <ele>288.73369195768</ele>
        <time>2015-09-09T16:06:32Z</time>
      </trkpt>
      <trkpt lat="43.74206" lon="3.54411">
        <ele>288.73369195768</ele>
        <time>2015-09-09T16:06:37Z</time>
      </trkpt>
      <trkpt lat="43.74203" lon="3.54416">
        <ele>287.30468424306</ele>
        <time>2015-09-09T16:06:42Z</time>
      </trkpt>
      <trkpt lat="43.74201" lon="3.54421">
        <ele>287.30468424306</ele>
        <time>2015-09-09T16:06:47Z</time>
      </trkpt>
      <trkpt lat="43.74197" lon="3.54417">
        <ele>287.30468424306</ele>
        <time>2015-09-09T16:07:12Z</time>
      </trkpt>
      <trkpt lat="43.742" lon="3.54409">
        <ele>285.14336514296</ele>
        <time>2015-09-09T16:07:25Z</time>
      </trkpt>
      <trkpt lat="43.74203" lon="3.54392">
        <ele>282.98422408431</ele>
        <time>2015-09-09T16:07:27Z</time>
      </trkpt>
      <trkpt lat="43.74202" lon="3.5439">
        <ele>282.98422408431</ele>
        <time>2015-09-09T16:07:32Z</time>
      </trkpt>
      <trkpt lat="43.742" lon="3.54388">
        <ele>282.98422408431</ele>
        <time>2015-09-09T16:08:07Z</time>
      </trkpt>
      <trkpt lat="43.742" lon="3.54381">
        <ele>282.98422408431</ele>
        <time>2015-09-09T16:08:12Z</time>
      </trkpt>
      <trkpt lat="43.74198" lon="3.54373">
        <ele>281.10430216152</ele>
        <time>2015-09-09T16:08:26Z</time>
      </trkpt>
      <trkpt lat="43.74197" lon="3.54363">
        <ele>281.10430216152</ele>
        <time>2015-09-09T16:08:27Z</time>
      </trkpt>
      <trkpt lat="43.74197" lon="3.54356">
        <ele>279.3271865289</ele>
        <time>2015-09-09T16:08:32Z</time>
      </trkpt>
      <trkpt lat="43.742" lon="3.54347">
        <ele>279.3271865289</ele>
        <time>2015-09-09T16:08:39Z</time>
      </trkpt>
      <trkpt lat="43.74201" lon="3.54343">
        <ele>277.73412892308</ele>
        <time>2015-09-09T16:08:42Z</time>
      </trkpt>
      <trkpt lat="43.74198" lon="3.54315">
        <ele>276.19813772531</ele>
        <time>2015-09-09T16:09:03Z</time>
      </trkpt>
      <trkpt lat="43.74196" lon="3.54311">
        <ele>276.19813772531</ele>
        <time>2015-09-09T16:09:11Z</time>
      </trkpt>
      <trkpt lat="43.74189" lon="3.54303">
        <ele>274.81754841969</ele>
        <time>2015-09-09T16:09:12Z</time>
      </trkpt>
      <trkpt lat="43.74182" lon="3.54305">
        <ele>274.81754841969</ele>
        <time>2015-09-09T16:09:25Z</time>
      </trkpt>
      <trkpt lat="43.7416" lon="3.54325">
        <ele>273.45244642435</ele>
        <time>2015-09-09T16:09:42Z</time>
      </trkpt>
      <trkpt lat="43.74155" lon="3.5433">
        <ele>273.45244642435</ele>
        <time>2015-09-09T16:09:54Z</time>
      </trkpt>
      <trkpt lat="43.74154" lon="3.54323">
        <ele>271.87225775268</ele>
        <time>2015-09-09T16:10:13Z</time>
      </trkpt>
      <trkpt lat="43.74151" lon="3.54317">
        <ele>271.87225775268</ele>
        <time>2015-09-09T16:10:27Z</time>
      </trkpt>
      <trkpt lat="43.7414" lon="3.5432">
        <ele>270.06568553803</ele>
        <time>2015-09-09T16:10:32Z</time>
      </trkpt>
      <trkpt lat="43.74138" lon="3.54327">
        <ele>270.06568553803</ele>
        <time>2015-09-09T16:10:44Z</time>
      </trkpt>
      <trkpt lat="43.74136" lon="3.54327">
        <ele>270.06568553803</ele>
        <time>2015-09-09T16:11:00Z</time>
      </trkpt>
      <trkpt lat="43.74131" lon="3.54317">
        <ele>268.1813965571</ele>
        <time>2015-09-09T16:11:05Z</time>
      </trkpt>
      <trkpt lat="43.74128" lon="3.54319">
        <ele>268.1813965571</ele>
        <time>2015-09-09T16:11:10Z</time>
      </trkpt>
      <trkpt lat="43.74127" lon="3.54322">
        <ele>268.1813965571</ele>
        <time>2015-09-09T16:11:12Z</time>
      </trkpt>
      <trkpt lat="43.74125" lon="3.54329">
        <ele>266.25644870792</ele>
        <time>2015-09-09T16:11:20Z</time>
      </trkpt>
      <trkpt lat="43.74113" lon="3.54346">
        <ele>264.20996938614</ele>
        <time>2015-09-09T16:11:42Z</time>
      </trkpt>
      <trkpt lat="43.74114" lon="3.54349">
        <ele>264.20996938614</ele>
        <time>2015-09-09T16:12:08Z</time>
      </trkpt>
      <trkpt lat="43.74108" lon="3.54359">
        <ele>261.83762830109</ele>
        <time>2015-09-09T16:12:26Z</time>
      </trkpt>
      <trkpt lat="43.74108" lon="3.54359">
        <ele>261.83762830109</ele>
        <time>2015-09-09T16:12:27Z</time>
      </trkpt>
      <trkpt lat="43.74109" lon="3.54359">
        <ele>261.83762830109</ele>
        <time>2015-09-09T16:12:32Z</time>
      </trkpt>
      <trkpt lat="43.74105" lon="3.54373">
        <ele>259.21037318027</ele>
        <time>2015-09-09T16:13:06Z</time>
      </trkpt>
      <trkpt lat="43.74105" lon="3.54374">
        <ele>259.21037318027</ele>
        <time>2015-09-09T16:13:07Z</time>
      </trkpt>
      <trkpt lat="43.74104" lon="3.54385">
        <ele>259.21037318027</ele>
        <time>2015-09-09T16:13:19Z</time>
      </trkpt>
      <trkpt lat="43.74102" lon="3.54391">
        <ele>256.72605737641</ele>
        <time>2015-09-09T16:13:27Z</time>
      </trkpt>
      <trkpt lat="43.74092" lon="3.54406">
        <ele>254.47903536646</ele>
        <time>2015-09-09T16:13:32Z</time>
      </trkpt>
      <trkpt lat="43.74075" lon="3.54428">
        <ele>252.38306417177</ele>
        <time>2015-09-09T16:13:44Z</time>
      </trkpt>
      <trkpt lat="43.74073" lon="3.5443">
        <ele>252.38306417177</ele>
        <time>2015-09-09T16:13:52Z</time>
      </trkpt>
      <trkpt lat="43.74064" lon="3.54439">
        <ele>250.24245104621</ele>
        <time>2015-09-09T16:14:07Z</time>
      </trkpt>
      <trkpt lat="43.74058" lon="3.54444">
        <ele>250.24245104621</ele>
        <time>2015-09-09T16:14:20Z</time>
      </trkpt>
      <trkpt lat="43.74051" lon="3.54451">
        <ele>248.26502817711</ele>
        <time>2015-09-09T16:14:22Z</time>
      </trkpt>
      <trkpt lat="43.74048" lon="3.54459">
        <ele>248.26502817711</ele>
        <time>2015-09-09T16:14:30Z</time>
      </trkpt>
      <trkpt lat="43.74047" lon="3.54463">
        <ele>246.51312491472</ele>
        <time>2015-09-09T16:14:32Z</time>
      </trkpt>
      <trkpt lat="43.74037" lon="3.54478">
        <ele>245.07260359115</ele>
        <time>2015-09-09T16:14:45Z</time>
      </trkpt>
      <trkpt lat="43.74031" lon="3.54506">
        <ele>243.58973535561</ele>
        <time>2015-09-09T16:15:06Z</time>
      </trkpt>
      <trkpt lat="43.74026" lon="3.54521">
        <ele>242.2700322528</ele>
        <time>2015-09-09T16:15:07Z</time>
      </trkpt>
      <trkpt lat="43.74025" lon="3.54535">
        <ele>240.98633727887</ele>
        <time>2015-09-09T16:15:18Z</time>
      </trkpt>
      <trkpt lat="43.7402" lon="3.54544">
        <ele>240.98633727887</ele>
        <time>2015-09-09T16:15:22Z</time>
      </trkpt>
      <trkpt lat="43.74014" lon="3.54582">
        <ele>239.00098869696</ele>
        <time>2015-09-09T16:15:47Z</time>
      </trkpt>
      <trkpt lat="43.73991" lon="3.5461">
        <ele>237.04470693687</ele>
        <time>2015-09-09T16:16:16Z</time>
      </trkpt>
      <trkpt lat="43.7399" lon="3.54611">
        <ele>237.04470693687</ele>
        <time>2015-09-09T16:16:17Z</time>
      </trkpt>
      <trkpt lat="43.73983" lon="3.54623">
        <ele>235.21794599008</ele>
        <time>2015-09-09T16:16:26Z</time>
      </trkpt>
      <trkpt lat="43.73982" lon="3.54624">
        <ele>235.21794599008</ele>
        <time>2015-09-09T16:16:27Z</time>
      </trkpt>
      <trkpt lat="43.73977" lon="3.54629">
        <ele>235.21794599008</ele>
        <time>2015-09-09T16:16:32Z</time>
      </trkpt>
      <trkpt lat="43.73963" lon="3.54641">
        <ele>233.45483390086</ele>
        <time>2015-09-09T16:16:47Z</time>
      </trkpt>
      <trkpt lat="43.73937" lon="3.54673">
        <ele>231.30499770537</ele>
        <time>2015-09-09T16:17:17Z</time>
      </trkpt>
      <trkpt lat="43.73932" lon="3.5468">
        <ele>231.30499770537</ele>
        <time>2015-09-09T16:17:24Z</time>
      </trkpt>
      <trkpt lat="43.73931" lon="3.54684">
        <ele>229.18801696975</ele>
        <time>2015-09-09T16:17:27Z</time>
      </trkpt>
      <trkpt lat="43.73929" lon="3.54688">
        <ele>229.18801696975</ele>
        <time>2015-09-09T16:17:32Z</time>
      </trkpt>
      <trkpt lat="43.73926" lon="3.54692">
        <ele>229.18801696975</ele>
        <time>2015-09-09T16:17:37Z</time>
      </trkpt>
      <trkpt lat="43.73923" lon="3.54696">
        <ele>227.03133969066</ele>
        <time>2015-09-09T16:17:42Z</time>
      </trkpt>
      <trkpt lat="43.73919" lon="3.54701">
        <ele>227.03133969066</ele>
        <time>2015-09-09T16:17:47Z</time>
      </trkpt>
      <trkpt lat="43.73896" lon="3.54748">
        <ele>224.47956942231</ele>
        <time>2015-09-09T16:18:21Z</time>
      </trkpt>
      <trkpt lat="43.73894" lon="3.54751">
        <ele>224.47956942231</ele>
        <time>2015-09-09T16:18:22Z</time>
      </trkpt>
      <trkpt lat="43.73886" lon="3.5476">
        <ele>222.22764972657</ele>
        <time>2015-09-09T16:18:29Z</time>
      </trkpt>
      <trkpt lat="43.73885" lon="3.54764">
        <ele>222.22764972657</ele>
        <time>2015-09-09T16:18:32Z</time>
      </trkpt>
      <trkpt lat="43.73873" lon="3.54777">
        <ele>220.16918842076</ele>
        <time>2015-09-09T16:18:47Z</time>
      </trkpt>
      <trkpt lat="43.73853" lon="3.54817">
        <ele>217.84472020781</ele>
        <time>2015-09-09T16:19:17Z</time>
      </trkpt>
      <trkpt lat="43.73836" lon="3.54841">
        <ele>215.1894862118</ele>
        <time>2015-09-09T16:19:47Z</time>
      </trkpt>
      <trkpt lat="43.73833" lon="3.54847">
        <ele>215.1894862118</ele>
        <time>2015-09-09T16:19:55Z</time>
      </trkpt>
      <trkpt lat="43.73823" lon="3.54864">
        <ele>212.43256335633</ele>
        <time>2015-09-09T16:20:20Z</time>
      </trkpt>
      <trkpt lat="43.73816" lon="3.54873">
        <ele>209.80082319774</ele>
        <time>2015-09-09T16:20:22Z</time>
      </trkpt>
      <trkpt lat="43.73812" lon="3.54879">
        <ele>209.80082319774</ele>
        <time>2015-09-09T16:20:31Z</time>
      </trkpt>
      <trkpt lat="43.73811" lon="3.54881">
        <ele>209.80082319774</ele>
        <time>2015-09-09T16:20:32Z</time>
      </trkpt>
      <trkpt lat="43.73807" lon="3.54885">
        <ele>207.21582114147</ele>
        <time>2015-09-09T16:20:41Z</time>
      </trkpt>
      <trkpt lat="43.73804" lon="3.5489">
        <ele>207.21582114147</ele>
        <time>2015-09-09T16:20:44Z</time>
      </trkpt>
      <trkpt lat="43.738" lon="3.54897">
        <ele>204.63348664238</ele>
        <time>2015-09-09T16:20:52Z</time>
      </trkpt>
      <trkpt lat="43.73796" lon="3.54886">
        <ele>202.12818646415</ele>
        <time>2015-09-09T16:21:22Z</time>
      </trkpt>
      <trkpt lat="43.73796" lon="3.54879">
        <ele>202.12818646415</ele>
        <time>2015-09-09T16:21:45Z</time>
      </trkpt>
      <trkpt lat="43.73792" lon="3.54878">
        <ele>199.76852583874</ele>
        <time>2015-09-09T16:21:47Z</time>
      </trkpt>
      <trkpt lat="43.73787" lon="3.54878">
        <ele>199.76852583874</ele>
        <time>2015-09-09T16:21:55Z</time>
      </trkpt>
      <trkpt lat="43.73768" lon="3.54897">
        <ele>197.70404625386</ele>
        <time>2015-09-09T16:22:22Z</time>
      </trkpt>
      <trkpt lat="43.73775" lon="3.54903">
        <ele>197.70404625386</ele>
        <time>2015-09-09T16:22:29Z</time>
      </trkpt>
      <trkpt lat="43.73778" lon="3.54882">
        <ele>195.6256504596</ele>
        <time>2015-09-09T16:22:52Z</time>
      </trkpt>
      <trkpt lat="43.73796" lon="3.54828">
        <ele>193.46307461407</ele>
        <time>2015-09-09T16:23:22Z</time>
      </trkpt>
      <trkpt lat="43.73789" lon="3.54782">
        <ele>191.15137686582</ele>
        <time>2015-09-09T16:23:52Z</time>
      </trkpt>
      <trkpt lat="43.73788" lon="3.54775">
        <ele>191.15137686582</ele>
        <time>2015-09-09T16:24:02Z</time>
      </trkpt>
      <trkpt lat="43.73773" lon="3.54759">
        <ele>188.28486362039</ele>
        <time>2015-09-09T16:24:25Z</time>
      </trkpt>
      <trkpt lat="43.73773" lon="3.5476">
        <ele>188.28486362039</ele>
        <time>2015-09-09T16:24:27Z</time>
      </trkpt>
      <trkpt lat="43.73774" lon="3.54766">
        <ele>188.28486362039</ele>
        <time>2015-09-09T16:24:32Z</time>
      </trkpt>
      <trkpt lat="43.73772" lon="3.54791">
        <ele>184.89263688609</ele>
        <time>2015-09-09T16:25:00Z</time>
      </trkpt>
      <trkpt lat="43.73763" lon="3.54818">
        <ele>181.39215925086</ele>
        <time>2015-09-09T16:25:29Z</time>
      </trkpt>
      <trkpt lat="43.73761" lon="3.54822">
        <ele>181.39215925086</ele>
        <time>2015-09-09T16:25:35Z</time>
      </trkpt>
      <trkpt lat="43.73739" lon="3.5484">
        <ele>177.83899355716</ele>
        <time>2015-09-09T16:25:57Z</time>
      </trkpt>
      <trkpt lat="43.73722" lon="3.54849">
        <ele>173.96763639595</ele>
        <time>2015-09-09T16:26:27Z</time>
      </trkpt>
      <trkpt lat="43.73721" lon="3.54851">
        <ele>173.96763639595</ele>
        <time>2015-09-09T16:26:34Z</time>
      </trkpt>
      <trkpt lat="43.73719" lon="3.54854">
        <ele>173.96763639595</ele>
        <time>2015-09-09T16:26:44Z</time>
      </trkpt>
      <trkpt lat="43.73704" lon="3.54871">
        <ele>169.80669615548</ele>
        <time>2015-09-09T16:27:02Z</time>
      </trkpt>
      <trkpt lat="43.73694" lon="3.54871">
        <ele>165.98865547453</ele>
        <time>2015-09-09T16:27:18Z</time>
      </trkpt>
      <trkpt lat="43.73669" lon="3.54877">
        <ele>162.20497298575</ele>
        <time>2015-09-09T16:27:39Z</time>
      </trkpt>
      <trkpt lat="43.73664" lon="3.54879">
        <ele>162.20497298575</ele>
        <time>2015-09-09T16:27:39Z</time>
      </trkpt>
      <trkpt lat="43.73662" lon="3.54879">
        <ele>162.20497298575</ele>
        <time>2015-09-09T16:27:50Z</time>
      </trkpt>
      <trkpt lat="43.73645" lon="3.54888">
        <ele>158.45778064319</ele>
        <time>2015-09-09T16:28:02Z</time>
      </trkpt>
      <trkpt lat="43.73642" lon="3.54893">
        <ele>158.45778064319</ele>
        <time>2015-09-09T16:28:09Z</time>
      </trkpt>
      <trkpt lat="43.73639" lon="3.54895">
        <ele>158.45778064319</ele>
        <time>2015-09-09T16:28:18Z</time>
      </trkpt>
      <trkpt lat="43.73628" lon="3.54893">
        <ele>154.5758943267</ele>
        <time>2015-09-09T16:28:27Z</time>
      </trkpt>
      <trkpt lat="43.73623" lon="3.54881">
        <ele>151.0494554709</ele>
        <time>2015-09-09T16:28:35Z</time>
      </trkpt>
      <trkpt lat="43.73617" lon="3.5488">
        <ele>151.0494554709</ele>
        <time>2015-09-09T16:28:37Z</time>
      </trkpt>
      <trkpt lat="43.73582" lon="3.54879">
        <ele>146.81830383123</ele>
        <time>2015-09-09T16:29:06Z</time>
      </trkpt>
      <trkpt lat="43.73581" lon="3.54879">
        <ele>146.81830383123</ele>
        <time>2015-09-09T16:29:07Z</time>
      </trkpt>
      <trkpt lat="43.73575" lon="3.54878">
        <ele>146.81830383123</ele>
        <time>2015-09-09T16:29:46Z</time>
      </trkpt>
      <trkpt lat="43.73575" lon="3.54873">
        <ele>142.21341013428</ele>
        <time>2015-09-09T16:30:09Z</time>
      </trkpt>
      <trkpt lat="43.73585" lon="3.54869">
        <ele>137.62880587039</ele>
        <time>2015-09-09T16:30:42Z</time>
      </trkpt>
      <trkpt lat="43.73594" lon="3.54842">
        <ele>133.24202863962</ele>
        <time>2015-09-09T16:31:12Z</time>
      </trkpt>
      <trkpt lat="43.73572" lon="3.54843">
        <ele>128.95746603987</ele>
        <time>2015-09-09T16:31:37Z</time>
      </trkpt>
      <trkpt lat="43.73565" lon="3.54841">
        <ele>128.95746603987</ele>
        <time>2015-09-09T16:31:49Z</time>
      </trkpt>
      <trkpt lat="43.7356" lon="3.54837">
        <ele>124.94548500018</ele>
        <time>2015-09-09T16:32:00Z</time>
      </trkpt>
      <trkpt lat="43.73537" lon="3.54826">
        <ele>121.20449054856</ele>
        <time>2015-09-09T16:32:12Z</time>
      </trkpt>
      <trkpt lat="43.73534" lon="3.54821">
        <ele>121.20449054856</ele>
        <time>2015-09-09T16:32:20Z</time>
      </trkpt>
      <trkpt lat="43.73533" lon="3.54818">
        <ele>121.20449054856</ele>
        <time>2015-09-09T16:32:27Z</time>
      </trkpt>
      <trkpt lat="43.73522" lon="3.54805">
        <ele>117.70326278988</ele>
        <time>2015-09-09T16:32:36Z</time>
      </trkpt>
      <trkpt lat="43.73512" lon="3.54805">
        <ele>114.49851242522</ele>
        <time>2015-09-09T16:32:47Z</time>
      </trkpt>
      <trkpt lat="43.73495" lon="3.54811">
        <ele>111.64180107715</ele>
        <time>2015-09-09T16:32:57Z</time>
      </trkpt>
      <trkpt lat="43.7349" lon="3.54813">
        <ele>111.64180107715</ele>
        <time>2015-09-09T16:33:02Z</time>
      </trkpt>
      <trkpt lat="43.73483" lon="3.54816">
        <ele>109.06449385644</ele>
        <time>2015-09-09T16:33:07Z</time>
      </trkpt>
      <trkpt lat="43.73481" lon="3.54816">
        <ele>109.06449385644</ele>
        <time>2015-09-09T16:33:13Z</time>
      </trkpt>
      <trkpt lat="43.73481" lon="3.5482">
        <ele>109.06449385644</ele>
        <time>2015-09-09T16:33:25Z</time>
      </trkpt>
      <trkpt lat="43.73482" lon="3.54823">
        <ele>109.06449385644</ele>
        <time>2015-09-09T16:33:31Z</time>
      </trkpt>
      <trkpt lat="43.73486" lon="3.5482">
        <ele>106.44267996121</ele>
        <time>2015-09-09T16:33:39Z</time>
      </trkpt>
      <trkpt lat="43.73485" lon="3.54819">
        <ele>106.44267996121</ele>
        <time>2015-09-09T16:33:45Z</time>
      </trkpt>
      <trkpt lat="43.73484" lon="3.54815">
        <ele>106.44267996121</ele>
        <time>2015-09-09T16:33:47Z</time>
      </trkpt>
      <trkpt lat="43.73489" lon="3.54819">
        <ele>104.18239014472</ele>
        <time>2015-09-09T16:34:07Z</time>
      </trkpt>
      <trkpt lat="43.73478" lon="3.54824">
        <ele>102.31283824503</ele>
        <time>2015-09-09T16:34:19Z</time>
      </trkpt>
      <trkpt lat="43.73476" lon="3.54826">
        <ele>102.31283824503</ele>
        <time>2015-09-09T16:34:27Z</time>
      </trkpt>
      <trkpt lat="43.73468" lon="3.5483">
        <ele>100.71579013216</ele>
        <time>2015-09-09T16:34:32Z</time>
      </trkpt>
      <trkpt lat="43.73449" lon="3.54837">
        <ele>99.396142940071</ele>
        <time>2015-09-09T16:34:47Z</time>
      </trkpt>
      <trkpt lat="43.73439" lon="3.54856">
        <ele>98.415239530358</ele>
        <time>2015-09-09T16:35:07Z</time>
      </trkpt>
      <trkpt lat="43.73437" lon="3.54858">
        <ele>98.415239530358</ele>
        <time>2015-09-09T16:35:12Z</time>
      </trkpt>
      <trkpt lat="43.73422" lon="3.54857">
        <ele>97.756869191303</ele>
        <time>2015-09-09T16:35:19Z</time>
      </trkpt>
      <trkpt lat="43.73402" lon="3.54885">
        <ele>97.275386004576</ele>
        <time>2015-09-09T16:35:46Z</time>
      </trkpt>
      <trkpt lat="43.73403" lon="3.54884">
        <ele>97.275386004576</ele>
        <time>2015-09-09T16:35:47Z</time>
      </trkpt>
      <trkpt lat="43.73403" lon="3.54877">
        <ele>97.275386004576</ele>
        <time>2015-09-09T16:36:00Z</time>
      </trkpt>
      <trkpt lat="43.73423" lon="3.54907">
        <ele>97.137980542305</ele>
        <time>2015-09-09T16:36:14Z</time>
      </trkpt>
      <trkpt lat="43.73421" lon="3.54914">
        <ele>97.137980542305</ele>
        <time>2015-09-09T16:36:17Z</time>
      </trkpt>
      <trkpt lat="43.73419" lon="3.54921">
        <ele>97.296863176866</ele>
        <time>2015-09-09T16:36:27Z</time>
      </trkpt>
      <trkpt lat="43.7342" lon="3.54951">
        <ele>97.548446307048</ele>
        <time>2015-09-09T16:36:37Z</time>
      </trkpt>
      <trkpt lat="43.73416" lon="3.54965">
        <ele>97.977716419528</ele>
        <time>2015-09-09T16:36:48Z</time>
      </trkpt>
      <trkpt lat="43.734" lon="3.54968">
        <ele>98.518897175312</ele>
        <time>2015-09-09T16:36:55Z</time>
      </trkpt>
      <trkpt lat="43.73385" lon="3.54982">
        <ele>99.269364183874</ele>
        <time>2015-09-09T16:37:07Z</time>
      </trkpt>
      <trkpt lat="43.73382" lon="3.54983">
        <ele>99.269364183874</ele>
        <time>2015-09-09T16:37:15Z</time>
      </trkpt>
      <trkpt lat="43.7338" lon="3.54993">
        <ele>100.14595216642</ele>
        <time>2015-09-09T16:37:17Z</time>
      </trkpt>
      <trkpt lat="43.73387" lon="3.55038">
        <ele>101.27316027155</ele>
        <time>2015-09-09T16:37:48Z</time>
      </trkpt>
      <trkpt lat="43.7339" lon="3.55066">
        <ele>102.50641204897</ele>
        <time>2015-09-09T16:37:54Z</time>
      </trkpt>
      <trkpt lat="43.73389" lon="3.55078">
        <ele>102.50641204897</ele>
        <time>2015-09-09T16:38:00Z</time>
      </trkpt>
      <trkpt lat="43.7339" lon="3.55082">
        <ele>103.79811309008</ele>
        <time>2015-09-09T16:38:02Z</time>
      </trkpt>
      <trkpt lat="43.73394" lon="3.55102">
        <ele>105.16185624563</ele>
        <time>2015-09-09T16:38:17Z</time>
      </trkpt>
      <trkpt lat="43.73391" lon="3.55117">
        <ele>106.62467245982</ele>
        <time>2015-09-09T16:38:27Z</time>
      </trkpt>
      <trkpt lat="43.73393" lon="3.55122">
        <ele>106.62467245982</ele>
        <time>2015-09-09T16:38:32Z</time>
      </trkpt>
      <trkpt lat="43.73381" lon="3.5515">
        <ele>108.47097308135</ele>
        <time>2015-09-09T16:38:54Z</time>
      </trkpt>
      <trkpt lat="43.7338" lon="3.55195">
        <ele>109.96909250996</ele>
        <time>2015-09-09T16:39:12Z</time>
      </trkpt>
      <trkpt lat="43.73383" lon="3.55203">
        <ele>109.96909250996</ele>
        <time>2015-09-09T16:39:17Z</time>
      </trkpt>
      <trkpt lat="43.73381" lon="3.55217">
        <ele>111.03321660915</ele>
        <time>2015-09-09T16:39:22Z</time>
      </trkpt>
      <trkpt lat="43.73377" lon="3.55238">
        <ele>111.38357735908</ele>
        <time>2015-09-09T16:39:35Z</time>
      </trkpt>
      <trkpt lat="43.73367" lon="3.55252">
        <ele>111.29645724502</ele>
        <time>2015-09-09T16:39:54Z</time>
      </trkpt>
      <trkpt lat="43.73368" lon="3.55253">
        <ele>111.29645724502</ele>
        <time>2015-09-09T16:40:03Z</time>
      </trkpt>
      <trkpt lat="43.73361" lon="3.55291">
        <ele>111.4040453566</ele>
        <time>2015-09-09T16:40:22Z</time>
      </trkpt>
      <trkpt lat="43.73339" lon="3.55288">
        <ele>111.54244919507</ele>
        <time>2015-09-09T16:40:32Z</time>
      </trkpt>
      <trkpt lat="43.73338" lon="3.55293">
        <ele>111.54244919507</ele>
        <time>2015-09-09T16:40:32Z</time>
      </trkpt>
      <trkpt lat="43.7333" lon="3.5533">
        <ele>111.86264099725</ele>
        <time>2015-09-09T16:40:54Z</time>
      </trkpt>
      <trkpt lat="43.73325" lon="3.55334">
        <ele>111.86264099725</ele>
        <time>2015-09-09T16:40:57Z</time>
      </trkpt>
      <trkpt lat="43.73327" lon="3.55344">
        <ele>112.23045482153</ele>
        <time>2015-09-09T16:41:02Z</time>
      </trkpt>
      <trkpt lat="43.73327" lon="3.55349">
        <ele>112.23045482153</ele>
        <time>2015-09-09T16:41:07Z</time>
      </trkpt>
      <trkpt lat="43.73327" lon="3.55366">
        <ele>112.46407088828</ele>
        <time>2015-09-09T16:41:16Z</time>
      </trkpt>
      <trkpt lat="43.73289" lon="3.55369">
        <ele>111.5309967134</ele>
        <time>2015-09-09T16:41:59Z</time>
      </trkpt>
      <trkpt lat="43.73255" lon="3.55366">
        <ele>110.10656702678</ele>
        <time>2015-09-09T16:42:27Z</time>
      </trkpt>
      <trkpt lat="43.73248" lon="3.55362">
        <ele>110.10656702678</ele>
        <time>2015-09-09T16:42:32Z</time>
      </trkpt>
      <trkpt lat="43.73242" lon="3.55363">
        <ele>108.73165756515</ele>
        <time>2015-09-09T16:42:47Z</time>
      </trkpt>
      <trkpt lat="43.73222" lon="3.55349">
        <ele>107.3742844223</ele>
        <time>2015-09-09T16:42:57Z</time>
      </trkpt>
      <trkpt lat="43.73197" lon="3.5533">
        <ele>105.74556856048</ele>
        <time>2015-09-09T16:43:22Z</time>
      </trkpt>
      <trkpt lat="43.73192" lon="3.55326">
        <ele>105.74556856048</ele>
        <time>2015-09-09T16:43:27Z</time>
      </trkpt>
      <trkpt lat="43.73184" lon="3.55322">
        <ele>104.12642163797</ele>
        <time>2015-09-09T16:43:38Z</time>
      </trkpt>
      <trkpt lat="43.73152" lon="3.55315">
        <ele>102.58991661398</ele>
        <time>2015-09-09T16:43:57Z</time>
      </trkpt>
      <trkpt lat="43.73122" lon="3.55311">
        <ele>100.94427724729</ele>
        <time>2015-09-09T16:44:27Z</time>
      </trkpt>
      <trkpt lat="43.73121" lon="3.55311">
        <ele>100.94427724729</ele>
        <time>2015-09-09T16:44:27Z</time>
      </trkpt>
      <trkpt lat="43.73118" lon="3.55309">
        <ele>100.94427724729</ele>
        <time>2015-09-09T16:44:40Z</time>
      </trkpt>
      <trkpt lat="43.73089" lon="3.55296">
        <ele>98.969020855824</ele>
        <time>2015-09-09T16:45:02Z</time>
      </trkpt>
      <trkpt lat="43.73082" lon="3.5529">
        <ele>98.969020855824</ele>
        <time>2015-09-09T16:45:09Z</time>
      </trkpt>
      <trkpt lat="43.73077" lon="3.55287">
        <ele>97.022935352483</ele>
        <time>2015-09-09T16:45:12Z</time>
      </trkpt>
      <trkpt lat="43.73072" lon="3.55281">
        <ele>97.022935352483</ele>
        <time>2015-09-09T16:45:19Z</time>
      </trkpt>
      <trkpt lat="43.73055" lon="3.55273">
        <ele>94.90525776937</ele>
        <time>2015-09-09T16:45:32Z</time>
      </trkpt>
      <trkpt lat="43.73012" lon="3.55262">
        <ele>92.35847953543</ele>
        <time>2015-09-09T16:46:05Z</time>
      </trkpt>
      <trkpt lat="43.73007" lon="3.55257">
        <ele>92.35847953543</ele>
        <time>2015-09-09T16:46:07Z</time>
      </trkpt>
      <trkpt lat="43.7299" lon="3.55256">
        <ele>89.548785626664</ele>
        <time>2015-09-09T16:46:14Z</time>
      </trkpt>
      <trkpt lat="43.72988" lon="3.55255">
        <ele>89.548785626664</ele>
        <time>2015-09-09T16:46:17Z</time>
      </trkpt>
      <trkpt lat="43.72986" lon="3.55254">
        <ele>89.548785626664</ele>
        <time>2015-09-09T16:46:22Z</time>
      </trkpt>
      <trkpt lat="43.72982" lon="3.55252">
        <ele>89.548785626664</ele>
        <time>2015-09-09T16:46:27Z</time>
      </trkpt>
      <trkpt lat="43.72978" lon="3.5525">
        <ele>86.429177757085</ele>
        <time>2015-09-09T16:46:32Z</time>
      </trkpt>
      <trkpt lat="43.72972" lon="3.55247">
        <ele>86.429177757085</ele>
        <time>2015-09-09T16:46:37Z</time>
      </trkpt>
      <trkpt lat="43.72969" lon="3.55245">
        <ele>83.389335685901</ele>
        <time>2015-09-09T16:46:44Z</time>
      </trkpt>
      <trkpt lat="43.72967" lon="3.55242">
        <ele>83.389335685901</ele>
        <time>2015-09-09T16:46:52Z</time>
      </trkpt>
      <trkpt lat="43.72957" lon="3.55232">
        <ele>80.011891383904</ele>
        <time>2015-09-09T16:47:01Z</time>
      </trkpt>
      <trkpt lat="43.72956" lon="3.55231">
        <ele>80.011891383904</ele>
        <time>2015-09-09T16:47:02Z</time>
      </trkpt>
      <trkpt lat="43.72951" lon="3.55227">
        <ele>80.011891383904</ele>
        <time>2015-09-09T16:47:07Z</time>
      </trkpt>
      <trkpt lat="43.72946" lon="3.55225">
        <ele>76.602798530808</ele>
        <time>2015-09-09T16:47:12Z</time>
      </trkpt>
      <trkpt lat="43.72934" lon="3.55211">
        <ele>73.099718997714</ele>
        <time>2015-09-09T16:47:26Z</time>
      </trkpt>
      <trkpt lat="43.72931" lon="3.55209">
        <ele>73.099718997714</ele>
        <time>2015-09-09T16:47:27Z</time>
      </trkpt>
      <trkpt lat="43.72926" lon="3.55204">
        <ele>73.099718997714</ele>
        <time>2015-09-09T16:47:32Z</time>
      </trkpt>
      <trkpt lat="43.72897" lon="3.55172">
        <ele>68.983943073633</ele>
        <time>2015-09-09T16:48:02Z</time>
      </trkpt>
      <trkpt lat="43.7289" lon="3.55162">
        <ele>65.07350594159</ele>
        <time>2015-09-09T16:48:10Z</time>
      </trkpt>
      <trkpt lat="43.72888" lon="3.5516">
        <ele>65.07350594159</ele>
        <time>2015-09-09T16:48:12Z</time>
      </trkpt>
      <trkpt lat="43.72884" lon="3.55153">
        <ele>61.376299006272</ele>
        <time>2015-09-09T16:48:19Z</time>
      </trkpt>
      <trkpt lat="43.72867" lon="3.55139">
        <ele>57.942154617683</ele>
        <time>2015-09-09T16:48:32Z</time>
      </trkpt>
      <trkpt lat="43.72841" lon="3.5511">
        <ele>54.427276469317</ele>
        <time>2015-09-09T16:49:02Z</time>
      </trkpt>
      <trkpt lat="43.72832" lon="3.55105">
        <ele>51.233763668621</ele>
        <time>2015-09-09T16:49:14Z</time>
      </trkpt>
      <trkpt lat="43.7281" lon="3.55087">
        <ele>48.300791151953</ele>
        <time>2015-09-09T16:49:32Z</time>
      </trkpt>
      <trkpt lat="43.72806" lon="3.55083">
        <ele>48.300791151953</ele>
        <time>2015-09-09T16:49:37Z</time>
      </trkpt>
      <trkpt lat="43.72778" lon="3.55056">
        <ele>45.700813741692</ele>
        <time>2015-09-09T16:50:05Z</time>
      </trkpt>
      <trkpt lat="43.72776" lon="3.55054">
        <ele>45.700813741692</ele>
        <time>2015-09-09T16:50:07Z</time>
      </trkpt>
      <trkpt lat="43.72769" lon="3.55048">
        <ele>43.37016880121</ele>
        <time>2015-09-09T16:50:13Z</time>
      </trkpt>
      <trkpt lat="43.72767" lon="3.55047">
        <ele>43.37016880121</ele>
        <time>2015-09-09T16:50:17Z</time>
      </trkpt>
      <trkpt lat="43.72762" lon="3.55043">
        <ele>43.37016880121</ele>
        <time>2015-09-09T16:50:27Z</time>
      </trkpt>
      <trkpt lat="43.72751" lon="3.5504">
        <ele>41.277776049634</ele>
        <time>2015-09-09T16:50:32Z</time>
      </trkpt>
      <trkpt lat="43.72746" lon="3.55038">
        <ele>41.277776049634</ele>
        <time>2015-09-09T16:50:46Z</time>
      </trkpt>
      <trkpt lat="43.72734" lon="3.55034">
        <ele>39.46606733048</ele>
        <time>2015-09-09T16:50:53Z</time>
      </trkpt>
      <trkpt lat="43.72716" lon="3.55023">
        <ele>38.002239513415</ele>
        <time>2015-09-09T16:51:10Z</time>
      </trkpt>
      <trkpt lat="43.72711" lon="3.55021">
        <ele>38.002239513415</ele>
        <time>2015-09-09T16:51:12Z</time>
      </trkpt>
      <trkpt lat="43.72685" lon="3.55017">
        <ele>36.990666041192</ele>
        <time>2015-09-09T16:51:37Z</time>
      </trkpt>
      <trkpt lat="43.72679" lon="3.55014">
        <ele>36.990666041192</ele>
        <time>2015-09-09T16:51:44Z</time>
      </trkpt>
      <trkpt lat="43.72677" lon="3.55014">
        <ele>36.990666041192</ele>
        <time>2015-09-09T16:51:55Z</time>
      </trkpt>
      <trkpt lat="43.72654" lon="3.55007">
        <ele>36.425772954765</ele>
        <time>2015-09-09T16:52:07Z</time>
      </trkpt>
      <trkpt lat="43.72652" lon="3.55007">
        <ele>36.425772954765</ele>
        <time>2015-09-09T16:52:14Z</time>
      </trkpt>
      <trkpt lat="43.72633" lon="3.5501">
        <ele>36.589245749745</ele>
        <time>2015-09-09T16:52:35Z</time>
      </trkpt>
      <trkpt lat="43.7263" lon="3.5501">
        <ele>36.589245749745</ele>
        <time>2015-09-09T16:52:37Z</time>
      </trkpt>
      <trkpt lat="43.72624" lon="3.5501">
        <ele>36.589245749745</ele>
        <time>2015-09-09T16:52:48Z</time>
      </trkpt>
      <trkpt lat="43.72605" lon="3.55011">
        <ele>37.192310185296</ele>
        <time>2015-09-09T16:53:07Z</time>
      </trkpt>
      <trkpt lat="43.72601" lon="3.55011">
        <ele>37.192310185296</ele>
        <time>2015-09-09T16:53:12Z</time>
      </trkpt>
      <trkpt lat="43.72595" lon="3.55012">
        <ele>37.89403528615</ele>
        <time>2015-09-09T16:53:25Z</time>
      </trkpt>
      <trkpt lat="43.72568" lon="3.55021">
        <ele>38.594365690903</ele>
        <time>2015-09-09T16:53:40Z</time>
      </trkpt>
      <trkpt lat="43.72566" lon="3.55022">
        <ele>38.594365690903</ele>
        <time>2015-09-09T16:53:42Z</time>
      </trkpt>
      <trkpt lat="43.72539" lon="3.55028">
        <ele>39.57525327939</ele>
        <time>2015-09-09T16:54:12Z</time>
      </trkpt>
      <trkpt lat="43.72498" lon="3.55035">
        <ele>40.736860295756</ele>
        <time>2015-09-09T16:54:51Z</time>
      </trkpt>
      <trkpt lat="43.72457" lon="3.55047">
        <ele>42.231175231615</ele>
        <time>2015-09-09T16:55:12Z</time>
      </trkpt>
      <trkpt lat="43.72452" lon="3.55051">
        <ele>42.231175231615</ele>
        <time>2015-09-09T16:55:19Z</time>
      </trkpt>
      <trkpt lat="43.7245" lon="3.55051">
        <ele>42.231175231615</ele>
        <time>2015-09-09T16:55:23Z</time>
      </trkpt>
      <trkpt lat="43.72422" lon="3.55062">
        <ele>44.3134108859</ele>
        <time>2015-09-09T16:55:45Z</time>
      </trkpt>
      <trkpt lat="43.72417" lon="3.55066">
        <ele>44.3134108859</ele>
        <time>2015-09-09T16:55:47Z</time>
      </trkpt>
      <trkpt lat="43.72391" lon="3.55099">
        <ele>46.71405197007</ele>
        <time>2015-09-09T16:56:12Z</time>
      </trkpt>
      <trkpt lat="43.7239" lon="3.55108">
        <ele>46.71405197007</ele>
        <time>2015-09-09T16:56:17Z</time>
      </trkpt>
      <trkpt lat="43.72383" lon="3.55123">
        <ele>48.966404347073</ele>
        <time>2015-09-09T16:56:29Z</time>
      </trkpt>
      <trkpt lat="43.7238" lon="3.55127">
        <ele>48.966404347073</ele>
        <time>2015-09-09T16:56:32Z</time>
      </trkpt>
      <trkpt lat="43.72376" lon="3.55133">
        <ele>51.085324594011</ele>
        <time>2015-09-09T16:56:37Z</time>
      </trkpt>
      <trkpt lat="43.72373" lon="3.55139">
        <ele>51.085324594011</ele>
        <time>2015-09-09T16:56:42Z</time>
      </trkpt>
    </trkseg>
  </trk>
</gpx>